[[{"header":{"parameterUnit":"m.s-1","parameterCategory":1,"la1":31.0,"la2":29.5877,"lo1":-88.7671,"lo2":-86.6584,"dy":0.0162,"dx":0.0185,"nx":115,"ny":88,"refTime":"2024-07-28T12:00:00:Z","depth":0,"parameterNumber":2,"parameterNumberName":"U-component_of_WINDS"},"data":[0.0,0.0,0.0,0.0,0.0,0.0,0.0,0.0,0.0,0.0,0.0,0.0,0.0,0.0,0.0,0.0,0.0,0.0,0.0,0.0,0.0,0.0,0.0,0.0,0.0,0.0,0.0,0.0,0.0,0.0,0.0,0.0,0.0,0.0,0.0,0.0,0.0,0.0,0.0,0.0,0.0,0.0,0.0,0.0,0.0,0.0,0.0,0.0,0.0,0.0,0.0,0.0,0.0,0.0,0.0,0.0,0.0,0.0,0.0,0.0,0.0,0.0,0.0,0.0,0.0,0.0,0.0,0.0,0.0,0.0,0.0,0.0,0.0,0.0,0.0,0.0,0.0,0.0,0.0,0.0,0.0,0.0,0.0,0.0,0.0,0.0,0.0,0.0,0.0,0.0,0.0,0.0,0.0,0.0,0.0,0.0,0.0,0.0,0.0,0.0,0.0,0.0,0.0,0.0,0.0,0.0,0.0,0.0,0.0,0.0,0.0,0.0,0.0,0.0,0.0,0.0,0.0,0.0,0.0,0.0,0.0,0.0,0.0,0.0,0.0,0.0,0.0,0.0,0.0,0.0,0.0,0.0,0.0,0.0,0.0,0.0,0.0,0.0,0.0,0.0,0.0,0.0,0.0,0.0,0.0,0.0,0.0,0.0,0.0,0.0,0.0,0.0,0.0,0.0,0.0,0.0,0.0,0.0,0.0,0.0,0.0,0.0,0.0,0.0,0.0,0.0,0.0,0.0,0.0,0.0,0.0,0.0,0.0,0.0,0.0,0.0,0.0,0.0,0.0,0.0,0.0,0.0,0.0,0.0,0.0,0.0,0.0,0.0,0.0,0.0,0.0,0.0,0.0,0.0,0.0,0.0,0.0,0.0,0.0,0.0,0.0,0.0,0.0,0.0,0.0,0.0,0.0,0.0,0.0,0.0,0.0,0.0,0.0,0.0,0.0,0.0,0.0,0.0,0.0,0.0,0.0,0.0,0.0,0.0,0.0,0.0,0.0,0.0,0.0,0.0,0.0,0.0,0.0,0.0,0.0,0.0,0.0,0.0,0.0,0.0,0.0,0.0,0.0,0.0,0.0,0.0,0.0,0.0,0.0,0.0,0.0,0.0,0.0,0.0,0.0,0.0,0.0,0.0,0.0,0.0,0.0,0.0,0.0,0.0,0.0,0.0,0.0,0.0,0.0,0.0,0.0,0.0,0.0,0.0,0.0,0.0,0.0,0.0,0.0,0.0,0.0,0.0,0.0,0.0,0.0,0.0,0.0,0.0,0.0,0.0,0.0,0.0,0.0,0.0,0.0,0.0,0.0,0.0,0.0,0.0,0.0,0.0,0.0,0.0,0.0,0.0,0.0,0.0,0.0,0.0,0.0,0.0,0.0,0.0,0.0,0.0,0.0,0.0,0.0,0.0,0.0,0.0,0.0,0.0,0.0,0.0,0.0,0.0,0.0,0.0,0.0,0.0,0.0,0.0,0.0,0.0,0.0,0.0,0.0,0.0,0.0,0.0,0.0,0.0,0.0,0.0,0.0,0.0,0.0,0.0,0.0,0.0,0.0,0.0,0.0,0.0,0.0,0.0,0.0,0.0,0.0,0.0,0.0,0.0,0.0,0.0,0.0,0.0,0.0,0.0,0.0,0.0,0.0,0.0,0.0,0.0,0.0,0.0,0.0,0.0,0.0,0.0,0.0,0.0,0.0,0.0,0.0,0.0,0.0,0.0,0.0,0.0,0.0,0.0,0.0,0.0,0.0,0.0,0.0,0.0,0.0,0.0,0.0,0.0,0.0,0.0,0.0,0.0,0.0,0.0,0.0,0.0,0.0,0.0,0.0,0.0,0.0,0.0,0.0,0.0,0.0,0.0,0.0,0.0,0.0,0.0,0.0,0.0,0.0,0.0,0.0,0.0,0.0,0.0,0.0,0.0,0.0,0.0,0.0,0.0,0.0,0.0,0.0,0.0,0.0,0.0,0.0,0.0,0.0,0.0,0.0,0.0,0.0,0.0,0.0,0.0,0.0,0.0,0.0,0.0,0.0,0.0,0.0,0.0,0.0,0.0,0.0,0.0,0.0,0.0,0.0,0.0,0.0,0.0,0.0,0.0,0.0,0.0,0.0,0.0,0.0,0.0,0.0,0.0,0.0,0.0,0.0,0.0,0.0,0.0,0.0,0.0,0.0,0.0,0.0,0.0,0.0,0.0,0.0,0.0,0.0,0.0,0.0,0.0,0.0,0.0,0.0,0.0,0.0,0.0,0.0,0.0,0.0,0.0,0.0,0.0,0.0,0.0,0.0,0.0,0.0,0.0,0.0,0.0,0.0,0.0,0.0,0.0,0.0,0.0,0.0,0.0,0.0,0.0,0.0,0.0,0.0,0.0,0.0,0.0,0.0,0.0,0.0,0.0,0.0,0.0,0.0,0.0,0.0,0.0,0.0,0.0,0.0,0.0,0.0,0.0,0.0,0.0,0.0,0.0,0.0,0.0,0.0,0.0,0.0,0.0,0.0,0.0,0.0,0.0,0.0,0.0,0.0,0.0,0.0,0.0,0.0,0.0,0.0,0.0,0.0,0.0,0.0,0.0,0.0,0.0,0.0,0.0,0.0,0.0,0.0,0.0,0.0,0.0,0.0,0.0,0.0,0.0,0.0,0.0,0.0,0.0,0.0,0.0,0.0,0.0,0.0,0.0,0.0,0.0,0.0,0.0,0.0,0.0,0.0,0.0,0.0,0.0,0.0,0.0,0.0,0.0,0.0,0.0,0.0,0.0,0.0,0.0,0.0,0.0,0.0,0.0,0.0,0.0,0.0,0.0,0.0,0.0,0.0,0.0,0.0,0.0,0.0,0.0,0.0,0.0,0.0,0.0,0.0,0.0,0.0,0.0,0.0,0.0,0.0,0.0,0.0,0.0,0.0,0.0,0.0,0.0,0.0,0.0,0.0,0.0,0.0,0.0,0.0,0.0,0.0,0.0,0.0,0.0,0.0,0.0,0.0,0.0,0.0,0.0,0.0,0.0,0.0,0.0,0.0,0.0,0.0,0.0,0.0,0.0,0.0,0.0,0.0,0.0,0.0,0.0,0.0,0.0,0.0,0.0,0.0,0.0,0.0,0.0,0.0,0.0,0.0,0.0,0.0,0.0,0.0,0.0,0.0,0.0,0.0,0.0,0.0,0.0,0.0,0.0,0.0,0.0,0.0,0.0,0.0,0.0,0.0,0.0,0.0,0.0,0.0,0.0,0.0,0.0,0.0,0.0,0.0,0.0,0.0,0.0,0.0,0.0,0.0,0.0,0.0,0.0,0.0,0.0,0.0,0.0,0.0,0.0,0.0,0.0,0.0,0.0,0.0,0.0,0.0,0.0,0.0,0.0,0.0,0.0,0.0,0.0,0.0,0.0,0.0,0.0,0.0,0.0,0.0,0.0,0.0,0.0,0.0,0.0,0.0,0.0,0.0,0.0,0.0,0.0,0.0,0.0,0.0,0.0,0.0,0.0,0.0,0.0,0.0,0.0,0.0,0.0,0.0,0.0,0.0,0.0,0.0,0.0,0.0,0.0,0.0,0.0,0.0,0.0,0.0,0.0,0.0,0.0,0.0,0.0,0.0,0.0,0.0,0.0,0.0,0.0,0.0,0.0,0.0,0.0,0.0,0.0,0.0,0.0,0.0,0.0,0.0,0.0,0.0,0.0,0.0,0.0,0.0,0.0,0.0,0.0,0.0,0.0,0.0,0.0,0.0,0.0,0.0,0.0,0.0,0.0,0.0,0.0,0.0,0.0,0.0,0.0,0.0,0.0,0.0,0.0,0.0,0.0,0.0,0.0,0.0,0.0,0.0,0.0,0.0,0.0,0.0,0.0,0.0,0.0,0.0,0.0,0.0,0.0,0.0,0.0,0.0,0.0,0.0,0.0,0.0,0.0,0.0,0.0,0.0,0.0,0.0,0.0,0.0,0.0,0.0,0.0,0.0,0.0,0.0,0.0,0.0,0.0,0.0,0.0,0.0,0.0,0.0,0.0,0.0,0.0,0.0,0.0,0.0,0.0,0.0,0.0,0.0,0.0,0.0,0.0,0.0,0.0,0.0,0.0,0.0,0.0,0.0,0.0,0.0,0.0,0.0,0.0,0.0,0.0,0.0,0.0,0.0,0.0,0.0,0.0,0.0,0.0,0.0,0.0,0.0,0.0,0.0,0.0,0.0,0.0,0.0,0.0,0.0,0.0,0.0,0.0,0.0,0.0,0.0,0.0,0.0,0.0,0.0,0.0,0.0,0.0,-0.0,0.0,0.0,0.0,0.0,0.0,0.0,0.0,0.0,0.0,0.0,0.0,0.0,0.0,0.0,0.0,0.0,0.0,0.0,0.0,0.0,0.0,0.0,0.0,0.0,0.0,0.0,0.0,0.0,0.0,0.0,0.0,0.0,0.0,0.0,0.0,0.0,0.0,0.0,0.0,0.0,0.0,0.0,0.0,0.0,0.0,0.0,0.0,0.0,0.0,0.0,0.0,0.0,0.0,0.0,0.0,0.0,0.0,0.0,0.0,0.0,0.0,0.0,0.0,0.0,0.0,0.0,0.0,0.0,0.0,0.0,0.0,0.0,0.0,0.0,0.0,0.0,0.0,0.0,0.0,0.0,0.0,0.0,0.0,0.0,0.0,0.0,0.0,0.0,0.0,0.0,0.0,0.0,0.0,0.0,0.0,0.0,0.0,0.0,0.0,0.0,0.0,0.0,0.0,0.0,0.0,0.0,0.0,0.0,0.0,0.0,-0.0,-0.0,-0.0,-0.0,-0.0,0.0,0.0,0.0,0.0,0.0,0.0,0.0,0.0,0.0,0.0,0.0,0.0,0.0,0.0,0.0,0.0,0.0,0.0,0.0,0.0,0.0,0.0,0.0,0.0,0.0,0.0,0.0,0.0,0.0,0.0,0.0,0.0,0.0,0.0,0.0,0.0,0.0,0.0,0.0,0.0,0.0,0.0,0.0,0.0,0.0,0.0,0.0,0.0,0.0,0.0,0.0,0.0,0.0,0.0,0.0,0.0,0.0,0.0,0.0,0.0,0.0,0.0,0.0,0.0,0.0,0.0,0.0,0.0,0.0,0.0,0.0,0.0,0.0,0.0,0.0,0.0,0.0,0.0,0.0,0.0,0.0,0.0,0.0,0.0,0.0,0.0,0.0,0.0,0.0,0.0,0.0,0.0,0.0,0.0,0.0,0.0,0.0,0.0,0.0,0.0,0.0,0.0,0.0,0.0,0.0,0.0,0.0,0.0,0.0,0.0,0.0,0.0,-0.0,-0.0,-0.0,0.0,0.0,0.0,0.0,0.0,0.0,0.0,0.0,0.0,0.0,0.0,0.0,0.0,0.0,0.0,0.0,0.0,0.0,0.0,0.0,0.0,0.0,0.0,0.0,0.0,0.0,0.0,0.0,0.0,0.0,0.0,0.0,0.0,0.0,0.0,0.0,0.0,0.0,0.0,0.0,0.0,0.0,0.0,0.0,0.0,0.0,0.0,0.0,0.0,0.0,0.0,0.0,0.0,0.0,0.0,0.0,0.0,0.0,0.0,0.0,0.0,0.0,0.0,0.0,0.0,0.0,0.0,0.0,0.0,0.0,0.0,0.0,0.0,0.0,0.0,0.0,0.0,0.0,0.0,0.0,0.0,0.0,0.0,0.0,0.0,0.0,0.0,0.0,0.0,0.0,0.0,0.0,0.0,0.0,0.0,0.0,0.0,0.0,0.0,0.0,0.0,0.0,0.0,0.0,0.0,0.0,0.0,0.0,0.0,0.0,-0.0,-0.0,-0.0,0.0,-0.0,0.0,0.0,0.0,0.0,0.0,0.0,0.0,0.0,0.0,0.0,0.0,0.0,0.0,0.0,0.0,0.0,0.0,0.0,0.0,0.0,0.0,0.0,0.0,0.0,0.0,0.0,0.0,0.0,0.0,0.0,0.0,0.0,0.0,0.0,0.0,0.0,0.0,0.0,0.0,0.0,0.0,0.0,0.0,0.0,0.0,0.0,0.0,0.0,0.0,0.0,0.0,0.0,0.0,0.0,0.0,0.0,0.0,0.0,0.0,0.0,0.0,0.0,0.0,0.0,0.0,0.0,0.0,0.0,0.0,0.0,0.0,0.0,0.0,0.0,0.0,0.0,0.0,0.0,0.0,0.0,0.0,0.0,0.0,0.0,0.0,0.0,0.0,0.0,0.0,0.0,0.0,0.0,0.0,0.0,0.0,0.0,0.0,0.0,0.0,0.0,0.0,0.0,0.0,0.0,0.0,0.0,0.0,0.0,0.0,0.0,-0.0,-0.0,-0.0,-0.0,0.0,0.0,0.0,0.0,0.0,0.0,0.0,0.0,0.0,0.0,0.0,0.0,0.0,0.0,0.0,0.0,0.0,0.0,0.0,0.0,0.0,0.0,0.0,0.0,0.0,0.0,0.0,0.0,0.0,0.0,0.0,0.0,0.0,0.0,0.0,0.0,0.0,0.0,0.0,0.0,0.0,0.0,0.0,0.0,0.0,0.0,0.0,0.0,0.0,0.0,0.0,0.0,0.0,0.0,0.0,0.0,0.0,0.0,0.0,0.0,0.0,0.0,0.0,0.0,0.0,0.0,0.0,0.0,0.0,0.0,0.0,0.0,0.0,0.0,0.0,0.0,0.0,0.0,0.0,0.0,0.0,0.0,0.0,0.0,0.0,0.0,0.0,0.0,0.0,0.0,0.0,0.0,0.0,0.0,0.0,0.0,0.0,0.0,0.0,0.0,0.0,0.0,0.0,0.0,0.0,0.0,0.0,0.0,0.0,0.0,0.0336,-0.0,-0.0,-0.0,-0.0,-0.0,0.0,0.0,0.0,0.0,0.0,0.0,0.0,0.0,0.0,0.0,0.0,0.0,0.0,0.0,0.0,0.0,0.0,0.0,0.0,0.0,0.0,0.0,0.0,0.0,0.0,0.0,0.0,0.0,0.0,0.0,0.0,0.0,0.0,0.0,0.0,0.0,0.0,0.0,0.0,0.0,0.0,0.0,0.0,0.0,0.0,0.0,0.0,0.0,0.0,0.0,0.0,0.0,0.0,0.0,0.0,0.0,0.0,0.0,0.0,0.0,0.0,0.0,0.0,0.0,0.0,0.0,0.0,0.0,0.0,0.0,0.0,0.0,0.0,0.0,0.0,0.0,0.0,0.0,0.0,0.0,0.0,0.0,0.0,0.0,0.0,0.0,0.0,0.0,0.0,0.0,0.0,0.0,0.0,0.0,0.0,0.0,0.0,0.0,0.0,0.0,0.0,0.0,0.0,0.0,0.0,0.0,0.0,0.0,0.3309,0.1191,-0.0,-0.0,-0.0,-0.0,0.0,0.0,0.0,0.0,0.0,0.0,0.0,0.0,0.0,0.0,0.0,0.0,0.0,0.0,0.0,0.0,0.0,0.0,0.0,0.0,0.0,0.0,0.0,0.0,0.0,0.0,0.0,0.0,0.0,0.0,0.0,0.0,0.0,0.0,0.0,0.0,0.0,0.0,0.0,0.0,0.0,0.0,0.0,0.0,0.0,0.0,0.0,0.0,0.0,0.0,0.0,0.0,0.0,0.0,0.0,0.0,0.0,0.0,0.0,0.0,0.0,0.0,0.0,0.0,0.0,0.0,0.0,0.0,0.0,0.0,0.0,0.0,0.0,0.0,0.0,0.0,0.0,0.0,0.0,0.0,0.0,0.0,0.0,0.0,0.0,0.0,0.0,0.0,0.0,0.0,0.0,0.0,0.0,0.0,0.0,0.0,0.0,0.0,0.0,0.0,0.0,0.0,0.0,0.0,0.0,0.0,0.0,0.0,0.0,0.2169,0.2211,0.1592,-0.0,-0.0,-0.0,0.0,0.0,0.0,0.0,0.0,0.0,0.0,0.0,0.0,0.0,0.0,0.0,0.0,0.0,0.0,0.0,0.0,0.0,0.0,0.0,0.0,0.0,0.0,0.0,0.0,0.0,0.0,0.0,0.0,0.0,0.0,0.0,0.0,0.0,0.0,0.0,0.0,0.0,0.0,0.0,0.0,0.0,0.0,0.0,0.0,0.0,0.0,0.0,0.0,0.0,0.0,0.0,0.0,0.0,0.0,0.0,0.0,0.0,0.0,0.0,0.0,0.0,0.0,0.0,0.0,0.0,0.0,0.0,0.0,0.0,0.0,0.0,0.0,0.0,0.0,0.0,0.0,0.0,0.0,0.0,0.0,0.0,0.0,0.0,0.0,0.0,0.0,0.0,0.0,0.0,0.0,0.0,0.0,0.0,0.0,0.0,0.0,0.0,0.0,0.0,0.0,0.0,0.0,0.0,0.0,0.0,0.0,0.0,0.0,0.184,0.0,0.2439,0.0,-0.0,-0.0,0.0,0.0,0.0,0.0,0.0,0.0,0.0,0.0,0.0,0.0,0.0,0.0,0.0,0.0,0.0,0.0,0.0,0.0,0.0,0.0,0.0,0.0,0.0,0.0,0.0,0.0,0.0,0.0,0.0,0.0,0.0,0.0,0.0,0.0,0.0,0.0,0.0,0.0,0.0,0.0,0.0,0.0,0.0,0.0,0.0,0.0,0.0,0.0,0.0,0.0,0.0,0.0,0.0,0.0,0.0,0.0,0.0,0.0,0.0,0.0,0.0,0.0,0.0,0.0,0.0,0.0,0.0,0.0,0.0,0.0,0.0,0.0,0.0,0.0,0.0,0.0,0.0,0.0,0.0,0.0,0.0,0.0,0.0,0.0,0.0,0.0,0.0,0.0,0.0,0.0,0.0,0.0,0.0,0.0,0.0,0.0,0.0,0.0,0.0,0.0,0.0,0.0,0.0,0.0,0.0,0.0,0.0,0.0,0.268,0.2698,0.3249,0.238,-0.0,-0.0,-0.0,0.0,0.0,0.0,0.0,0.0,0.0,0.0,0.0,0.0,0.0,0.0,0.0,0.0,0.0,0.0,0.0,0.0,0.0,0.0,0.0,0.0,0.0,0.0,0.0,0.0,0.0,0.0,0.0,0.0,0.0,0.0,0.0,0.0,0.0,0.0,0.0,0.0,0.0,0.0,0.0,0.0,0.0,0.0,0.0,0.0,0.0,0.0,0.0,0.0,0.0,0.0,0.0,0.0,0.0,0.0,0.0,0.0,0.0,0.0,0.0,0.0,0.0,0.0,0.0,0.0,0.0,0.0,0.0,0.0,0.0,0.0,0.0,0.0,0.0,0.0,0.0,0.0,0.0,0.0,0.0,0.0,0.0,0.0,0.0,0.0,0.0,0.0,0.0,0.0,0.0,0.0,0.0,0.0,0.0,0.0,0.0,0.0,0.0,0.0,0.0,0.0,0.0,0.0,0.0,0.0,0.0,0.0,0.0,0.0,0.2696,0.2868,0.125,-0.2219,-0.0849,-0.0,0.0,0.0,0.0,0.0,0.0,0.0,0.0,0.0,0.0,0.0,0.0,0.0,0.0,0.0,0.0,0.0,0.0,0.0,0.0,0.0,0.0,0.0,0.0,0.0,0.0,0.0,0.0,0.0,0.0,0.0,0.0,0.0,0.0,0.0,0.0,0.0,0.0,0.0,0.0,0.0,0.0,0.0,0.0,0.0,0.0,0.0,0.0,0.0,0.0,0.0,0.0,0.0,0.0,0.0,0.0,0.0,0.0,0.0,0.0,0.0,0.0,0.0,0.0,0.0,0.0,0.0,0.0,0.0,0.0,0.0,0.0,0.0,0.0,0.0,0.0,0.0,0.0,0.0,0.0,0.0,0.0,0.0,0.0,0.0,0.0,0.0,0.0,0.0,0.0,0.0,0.0,0.0,0.0,0.0,0.0,0.0,0.0,0.0,0.0,0.0,0.0,0.0,0.0,0.0,0.0,0.0,0.0,0.0,0.0,0.2639,0.2021,0.0456,-0.219,-0.1634,-0.0909,-0.0,0.0,0.0,0.0,0.0,0.0,0.0,0.0,0.0,0.0,0.0,0.0,0.0,0.0,0.0,0.0,0.0,0.0,0.0,0.0,0.0,0.0,0.0,0.0,0.0,0.0,0.0,0.0,0.0,0.0,0.0,0.0,0.0,0.0,0.0,0.0,0.0,0.0,0.0,0.0,0.0,0.0,0.0,0.0,0.0,0.0,0.0,0.0,0.0,0.0,0.0,0.0,0.0,0.0,0.0,0.0,0.0,0.0,0.0,0.0,0.0,0.0,0.0,0.0,0.0,0.0,0.0,0.0,0.0,0.0,0.0,0.0,0.0,0.0,0.0,0.0,0.0,0.0,0.0,0.0,0.0,0.0,0.0,0.0,0.0,0.0,0.0,0.0,0.0,0.0,0.0,0.0,0.0,0.0,0.0,0.0,0.0,0.0,0.0,0.0,0.0,0.0,0.0,0.0,0.0,0.0,0.0,0.0,0.0,0.2538,0.088,-0.0,-0.0042,-0.2158,-0.2396,0.0,0.0,0.0,0.0,0.0,0.0,0.0,0.0,0.0,0.0,0.0,0.0,0.0,0.0,0.0,0.0,0.0,0.0,0.0,0.0,0.0,0.0,0.0,0.0,0.0,0.0,0.0,0.0,0.0,0.0,0.0,0.0,0.0,0.0,0.0,0.0,0.0,0.0,0.0,0.0,0.0,0.0,0.0,0.0,0.0,0.0,0.0,0.0,0.0,0.0,0.0,0.0,0.0,0.0,0.0,0.0,0.0,0.0,0.0,0.0,0.0,0.0,0.0,0.0,0.0,0.0,0.0,0.0,0.0,0.0,0.0,0.0,0.0,0.0,0.0,0.0,0.0,0.0,0.0,0.0,0.0,0.0,0.0,0.0,0.0,0.0,0.0,0.0,0.0,0.0,0.0,0.0,0.0,0.0,0.0,0.0,0.0,0.0,0.0,0.0,0.0,0.0,0.0,0.0,0.0,0.0,0.0,0.0,0.0,0.0674,0.022,-0.0,-0.0,-0.0599,-0.1477,0.0,0.0,0.0,0.0,0.0,0.0,0.0,0.0,0.0,0.0,0.0,0.0,0.0,0.0,0.0,0.0,0.0,0.0,0.0,0.0,0.0,0.0,0.0,0.0,0.0,0.0,0.0,0.0,0.0,0.0,0.0,0.0,0.0,0.0,0.0,0.0,0.0,0.0,0.0,0.0,0.0,0.0,0.0,0.0,0.0,0.0,0.0,0.0,0.0,0.0,0.0,0.0,0.0,0.0,0.0,0.0,0.0,0.0,0.0,0.0,0.0,0.0,0.0,0.0,0.0,0.0,0.0,0.0,0.0,0.0,0.0,0.0,0.0,0.0,0.0,0.0,0.0,0.0,0.0,0.0,0.0,0.0,0.0,0.0,0.0,0.0,0.0,0.0,0.0,0.0,0.0,0.0,0.0,0.0,0.0,0.0,0.0,0.0,0.0,0.0,0.0,0.0,0.0,0.0,0.0,0.0,0.0,0.0,-0.0,-0.0,-0.0,0.0494,0.1479,0.0526,-0.063,0.0,0.0,0.0,0.0,0.0,0.0,0.0,0.0,0.0,0.0,0.0,0.0,0.0,0.0,0.0,0.0,0.0,0.0,0.0,0.0,0.0,0.0,0.0,0.0,0.0,0.0,0.0,0.0,0.0,0.0,0.0,0.0,0.0,0.0,0.0,0.0,0.0,0.0,0.0,0.0,0.0,0.0,0.0,0.0,0.0,0.0,0.0,0.0,0.0,0.0,0.0,0.0,0.0,0.0,0.0,0.0,0.0,0.0,0.0,0.0,0.0,0.0,0.0,0.0,0.0,0.0,0.0,0.0,0.0,0.0,0.0,0.0,0.0,0.0,0.0,0.0,0.0,0.0,0.0,0.0,0.0,0.0,0.0,0.0,0.0,0.0,0.0,0.0,0.0,0.0,0.0,0.0,0.0,0.0,0.0,0.0,0.0,0.0,0.0,0.0,0.0,0.0,0.0,0.0,0.0,0.0,0.0,0.0,-0.0,-0.0,0.0135,0.1078,0.3248,0.1437,0.0303,0.0,0.0,0.0,0.0,0.0,0.0,0.0,0.0,0.0,0.0,0.0,0.0,0.0,0.0,0.0,0.0,0.0,0.0,0.0,0.0,0.0,0.0,0.0,0.0,0.0,0.0,0.0,0.0,0.0,0.0,0.0,0.0,0.0,0.0,0.0,0.0,0.0,0.0,0.0,0.0,0.0,0.0,0.0,0.0,0.0,0.0,0.0,0.0,0.0,0.0,0.0,0.0,0.0,0.0,0.0,0.0,0.0,0.0,0.0,0.0,0.0,0.0,0.0,0.0,0.0,0.0,0.0,0.0,0.0,0.0,0.0,0.0,0.0,0.0,0.0,0.0,0.0,0.0,0.0,0.0,0.0,0.0,0.0,0.0,0.0,0.0,0.0,0.0,0.0,0.0,0.0,0.0,0.0,0.0,0.0,0.0,0.0,0.0,0.0,0.0,0.0,0.0,0.0,0.0,0.0,0.0,0.0,0.0,0.0935,0.2746,0.0985,0.0671,0.2147,0.2605,0.2412,0.0,0.0,0.0,0.0,0.0,0.0,0.0,0.0,0.0,0.0,0.0,0.0,0.0,0.0,0.0,0.0,0.0,0.0,0.0,0.0,0.0,0.0,0.0,0.0,0.0,0.0,0.0,0.0,0.0,0.0,0.0,0.0,0.0,0.0,0.0,0.0,0.0,0.0,0.0,0.0,0.0,0.0,0.0,0.0,0.0,0.0,0.0,0.0,0.2167,0.0,0.0,0.0,0.0,0.0,0.0,0.0,0.0,0.0,0.0,0.0,0.0,0.0,0.0,0.0,0.0,0.0,0.0,0.0,0.0,0.0,0.0,0.0,0.0,0.0,0.0,0.0,0.0,0.0,0.0,0.0,0.0,0.0,0.0,0.0,0.0,0.0,0.0,0.0,0.0,0.0,0.0,0.0,0.0,0.0,0.0,0.0,0.0,0.0,0.0,0.0,0.0,0.0,0.0,0.0,0.0,0.0,0.0,0.0,0.2021,0.2693,0.2059,0.2011,0.2635,0.3274,0.3227,0.0,0.0,0.0,0.0,0.0,0.0,0.0,0.0,0.0,0.0,0.0,0.0,0.0,0.0,0.0,0.0,0.0,0.0,0.0,0.0,0.0,0.0,0.0,0.0,0.0,0.0,0.0,0.0,0.0,0.0,0.0,0.0,0.0,0.0,0.0,0.0,0.0,0.0,0.0,0.0,0.0,0.0,0.0,0.0,0.0,0.0,0.0,0.0,0.0,0.0,0.0,0.0,0.0,0.0,0.0,0.0,0.0,0.0,0.0,0.0,0.0,0.0,0.0,0.0,0.0,0.0,0.0,0.0,0.0,0.0,0.0,0.0,0.0,0.0,0.0,0.0,0.0,0.0,0.0,0.0,0.0,0.0,0.0,0.0,0.0,0.0,0.0,0.0,0.0,0.0,0.0,0.0,0.0,0.0,0.0,0.0,0.0,0.0,0.0,0.0,0.0,0.0,0.0,0.0,0.0,0.0,0.0,0.3581,0.3129,0.2187,0.3047,0.359,0.358,0.358,0.3487,0.3241,0.0,0.0,0.0,0.0,0.0,0.0,0.0,0.0,0.0,0.0,0.0,0.0,0.0,0.0,0.0,0.0,0.0,0.0,0.0,0.0,0.0,0.0,0.0,0.0,0.0,0.0,0.0,0.0,0.0,0.0,0.0,0.0,0.0,0.0,0.0,0.0,0.0,0.0,0.3642,0.3861,0.0,0.0,0.0,0.0,0.0,0.0,0.0,0.0,0.2628,0.0,0.0,0.0,0.0,0.0,0.0,0.0,0.0,0.0,0.0,0.0,0.0,0.0,0.0,0.0,0.0,0.0,0.0,0.0,0.0,0.0,0.0,0.0,0.0,0.0,0.0,0.0,0.0,0.0,0.0,0.0,0.0,0.0,0.0,0.0,0.0,0.0,0.0,0.0,0.0,0.0,0.0,0.0,0.0,0.0,0.0,0.0,0.0,0.0,0.0,0.0,0.0,0.0,0.0,0.0,0.0,0.3598,0.3616,0.3476,0.3307,0.3491,0.3581,0.358,0.358,0.3611,0.3656,0.0,0.0,0.0,0.0,0.0,0.0,0.0,0.0,0.0,0.0,0.0,0.0,0.0,0.0,0.0,0.0,0.0,0.0,0.0,0.0,0.0,0.0,0.0,0.0,0.0,0.0,0.0,0.0,0.0,0.0,0.0,0.0,0.0,0.0,0.0,0.0,0.0,0.0,0.0,0.5995,0.5598,0.0,0.0,0.0,0.0,0.0,0.0,0.0,0.0,0.2671,0.0,0.0,0.0,0.0,0.0,0.0,0.0,0.0,0.0,0.0,0.0,0.0,0.0,0.0,0.0,0.0,0.0,0.0,0.0,0.0,0.0,0.0,0.0,0.0,0.0,0.0,0.0,0.0,0.0,0.0,0.0,0.0,0.0,0.0,0.0,0.0,0.0,0.0,0.0,0.0,0.0,0.0,0.0,0.0,0.0,0.0,0.0,0.0,0.0,0.0,0.0,0.0,0.0,0.0,0.0,0.3342,0.3538,0.3606,0.3622,0.358,0.358,0.3621,0.3623,0.3553,0.0,0.0,0.0,0.0,0.0,0.0,0.0,0.0,0.0,0.0,0.0,0.0,0.0,0.0,0.0,0.0,0.0,0.0,0.0,0.0,0.0,0.0,0.0,0.0,0.0,0.0,0.0,0.0,0.0,0.0,0.0,0.0,0.0,0.0,0.0,0.0,0.0,0.0,0.0,0.0,0.685,0.6656,0.5373,0.0,0.0,0.0,0.0,0.0,0.0,0.2845,0.2679,0.0,0.0,0.0,0.0,0.0,0.0,0.0,0.0,0.0,0.0,0.0,0.0,0.0,0.0,0.0,0.0,0.0,0.0,0.0,0.0,0.0,0.0,0.0,0.0,0.0,0.0,0.0,0.0,0.0,0.0,0.0,0.0,0.0,0.0,0.0,0.0,0.0,0.0,0.0,0.0,0.0,0.0,0.0,0.0,0.0,0.0,0.0,0.0,0.0,0.0,0.0,0.0,0.0,0.0,0.0,0.319,0.3403,0.3551,0.3622,0.358,0.358,0.3622,0.3618,0.3499,0.0,0.0,0.0,0.0,0.0,0.0,0.0,0.0,0.0,0.0,0.0,0.0,0.0,0.0,0.0,0.0,0.0,0.0,0.0,0.0,0.0,0.0,0.0,0.0,0.0,0.0,0.0,0.0,0.0,0.0,0.0,0.0,0.0,0.0,0.0,0.0,0.0,0.0,0.0,0.0,0.0,0.7306,0.6206,0.5787,0.0,0.0,0.0,0.0,0.3323,0.2972,0.0,0.0,0.0,0.0,0.0,0.0,0.0,0.0,0.0,0.0,0.0,0.0,0.0,0.0,0.0,0.0,0.0,0.0,0.0,0.0,0.0,0.0,0.0,0.0,0.0,0.0,0.0,0.0,0.0,0.0,0.0,0.0,0.0,0.0,0.0,0.0,0.0,0.0,0.0,0.0,0.0,0.0,0.0,0.0,0.0,0.0,0.0,0.0,0.0,0.0,0.0,0.0,0.0,0.0,0.0,0.0,0.3436,0.3396,0.3408,0.3571,0.358,0.358,0.358,0.3603,0.3626,0.0,0.0,0.0,0.0,0.0,0.0,0.0,0.0,0.0,0.0,0.0,0.0,0.0,0.0,0.0,0.0,0.0,0.0,0.0,0.0,0.0,0.0,0.0,0.0,0.0,0.0,0.0,0.0,0.0,0.0,0.0,0.0,0.0,0.0,0.0,0.0,0.0,0.0,0.0,0.0,0.0,0.753,0.7013,0.6901,0.6467,0.0,0.0,0.4191,0.3421,0.2972,0.0,0.0,0.0,0.0,0.0,0.0,0.0,0.0,0.0,0.0,0.0,0.0,0.0,0.0,0.0,0.0,0.0,0.0,0.0,0.0,0.0,0.0,0.0,0.0,0.0,0.0,0.0,0.0,0.0,0.0,0.0,0.0,0.0,0.0,0.0,0.0,0.0,0.0,0.0,0.0,0.0,0.0,0.0,0.0,0.0,0.0,0.0,0.0,0.0,0.0,0.0,0.0,0.0,0.0,0.0,0.0498,0.1529,0.2392,0.3072,0.3575,0.358,0.358,0.3578,0.3274,0.3206,0.0,0.0,0.0,0.0,0.0,0.0,0.0,0.0,0.0,0.0,0.0,0.0,0.0,0.0,0.0,0.0,0.0,0.0,0.0,0.0,0.0,0.0,0.0,0.0,0.0,0.0,0.0,0.0,0.0,0.0,0.0,0.0,0.0,0.0,0.0,0.0,0.0,0.0,0.0,0.0,0.0,0.0,0.7329,0.6948,0.0,0.0,0.0,0.4543,0.435,0.0,0.0,0.0,0.0,0.0,0.0,0.0,0.0,0.0,0.0,0.0,0.0,0.0,0.0,0.0,0.0,0.0,0.0,0.0,0.0,0.0,0.0,0.0,0.0,0.0,0.0,0.0,0.0,0.0,0.0,0.0,0.0,0.0,0.0,0.0,0.0,0.0,0.0,0.0,0.0,0.0,0.0,0.0,0.0,0.0,0.0,0.0,0.0,0.0,0.0,0.0,0.0,0.0,0.0,0.0,0.0,0.0,-0.0,0.1493,0.2677,0.3539,0.358,0.358,0.3573,0.3015,0.0,0.0,0.0,0.0,0.0,0.0,0.0,0.0,0.0,0.0,0.0,0.0,0.0,0.0,0.0,0.0,0.0,0.0,0.0,0.0,0.0,0.0,0.0,0.0,0.0,0.0,0.0,0.1804,0.0,0.0,0.0,0.0,0.0,0.0,0.0,0.0,0.0,0.0,0.0,0.0,0.0,0.0,0.6996,0.7215,0.6686,0.6387,0.0,0.0,0.4876,0.5178,0.4535,0.3921,0.0,0.0,0.0,0.0,0.0,0.0,0.0,0.0,0.0,0.0,0.0,0.0,0.0,0.0,0.0,0.0,0.0,0.0,0.0,0.0,0.0,0.0,0.0,0.0,0.0,0.0,0.0,0.0,0.0,0.0,0.0,0.0,0.0,0.0,0.0,0.0,0.0,0.0,0.0,0.0,0.0,0.0,0.0,0.0,0.0,0.0,0.0,0.0,0.0,0.0,0.0,0.0,0.0,0.0,-0.0,-0.0,0.1197,0.2414,0.3549,0.3585,0.358,0.3576,0.303,0.3051,0.0,0.0,0.0,0.0,0.0,0.0,0.0,0.0,0.0,0.0,0.0,0.0,0.0,0.0,0.0,0.0,0.0,0.0,0.0,0.0,0.0,0.0,0.0,0.0,0.0,0.0,0.0,0.0,0.0,0.0,0.0,0.0,0.0,0.0,0.0,0.0,0.0,0.0,0.0,0.0,0.0,0.5692,0.6474,0.6291,0.6287,0.0,0.5879,0.5277,0.5604,0.4729,0.4113,0.4448,0.0,0.0,0.0,0.0,0.0,0.0,0.0,0.0,0.0,0.0,0.0,0.0,0.0,0.0,0.0,0.0,0.0,0.0,0.0,0.0,0.0,0.0,0.0,0.0,0.0,0.0,0.0,0.0,0.0,0.0,0.0,0.0,0.0,0.0,0.0,0.0,0.0,0.0,0.0,0.0,0.0,0.0,0.0,0.0,0.0,0.0,0.0,0.0,0.0,0.0,0.0,0.0,0.0,-0.0,-0.0,0.0471,0.1609,0.3504,0.3585,0.358,0.358,0.3169,0.3217,0.0,0.0,0.0,0.0,0.0,0.0,0.0,0.0,0.0,0.0,0.0,0.0,0.0,0.0,0.0,0.0,0.0,0.0,0.0,0.0,0.0,0.0,0.0,0.0,0.0,0.0,0.0,0.0,0.1809,0.1986,0.2426,0.0,0.0,0.0,0.0,0.0,0.0,0.0,0.0,0.0,0.0,0.466,0.5746,0.5867,0.0,0.0,0.6088,0.5947,0.6332,0.5852,0.5389,0.5348,0.4743,0.0,0.0,0.0,0.0,0.0,0.0,0.0,0.0,0.0,0.0,0.0,0.0,0.0,0.0,0.0,0.0,0.0,0.0,0.0,0.0,0.0,0.0,0.0,0.0,0.0,0.0,0.0,0.0,0.0,0.0,0.0,0.0,0.0,0.0,0.0,0.0,0.0,0.0,0.0,0.0,0.0,0.0,0.0,0.0,0.0,0.0,0.0,0.0,0.0,0.0,0.0,0.0,-0.0,-0.0,-0.0,0.0805,0.2506,0.3223,0.358,0.3571,0.3281,0.3313,0.0,0.0,0.0,0.0,0.0,0.0,0.0,0.0,0.0,0.0,0.0,0.0,0.0,0.0,0.0,0.0,0.0,0.0,0.0,0.0,0.0,0.0,0.0,0.0,0.0,0.0,0.0,0.0,0.1932,0.2355,0.2897,0.0,0.0,0.0,0.0,0.0,0.0,0.0,0.0,0.0,0.0,0.3981,0.5009,0.5338,0.5731,0.6396,0.6452,0.6684,0.7286,0.7048,0.6702,0.6602,0.0,0.0,0.0,0.0,0.0,0.0,0.0,0.0,0.0,0.0,0.0,0.0,0.0,0.0,0.0,0.0,0.0,0.0,0.0,0.0,0.0,0.0,0.0,0.0,0.0,0.0,0.0,-0.3954,0.0,0.0,-0.2629,0.0,0.0,0.0,0.0,0.0,0.0,0.0,0.0,0.0,0.0,0.0,0.0,0.0,0.0,0.0,0.0,0.0,0.0,0.0,0.0,0.0,0.0,-0.0,-0.0,-0.0,-0.0,0.0179,0.2366,0.358,0.3617,0.3283,0.3342,0.3773,0.0,0.0,0.0,0.0,0.0,0.0,0.0,0.0,0.0,0.0,0.0,0.0,0.0,0.0,0.0,0.0,0.0,0.0,0.0,0.0,0.0,0.0,0.0,0.0,0.0,0.0,0.1258,0.2258,0.2916,0.0,0.0,0.0,0.0,0.0,0.0,0.0,0.0,0.0,0.0,0.3525,0.3787,0.4337,0.4693,0.5433,0.6771,0.6976,0.7379,0.8534,0.8176,0.7904,0.0,0.0,0.0,0.0,0.0,0.0,0.0,0.0,0.0,0.0,0.0,0.0,0.0,0.0,0.0,0.0,0.0,0.0,0.0,0.0,0.0,0.0,0.0,0.0,0.0,0.0,0.0,-0.4165,-0.4047,0.0,0.0,0.0,0.0,0.0,0.0,0.0,0.0,0.0,0.0,0.0,-0.2147,-0.0397,0.0,0.0,0.0,0.0,0.0,0.0,0.0,0.0,0.0,0.0,0.0,0.0,-0.2399,-0.2351,-0.1607,-0.0803,0.0045,0.2364,0.358,0.358,0.3509,0.3403,0.3346,0.0,0.0,0.0,0.0,0.0,0.0,0.0,0.0,0.0,0.0,0.0,0.0,0.0,0.0,0.0,0.0,0.0,0.0,0.0,0.0,0.0,0.0,0.0,0.0,0.0,0.1656,0.0,0.0,0.0,0.0,0.0,0.0,0.0,0.0,0.0,0.0,0.0,0.3249,0.3619,0.3652,0.3667,0.3838,0.4756,0.5518,0.0,0.0,0.0,0.0,0.0,0.0,0.0,0.0,0.0,0.0,0.0,0.0,0.0,0.0,0.3537,0.3609,0.3478,0.3454,0.3759,0.0,0.0,0.0,0.0,0.0,0.0,0.0,0.0,0.0,0.0,0.0,0.0,0.0,0.0,-0.4571,0.0,-0.4389,0.0,0.0,0.0,0.0,0.0,0.0,0.0,0.0,-0.4164,-0.4046,-0.3906,-0.2208,-0.091,0.0,-0.0,-0.0,0.0,0.0,0.0,0.0,0.0,0.0,0.0,0.0,-0.2745,-0.3517,-0.2816,-0.206,-0.116,0.1916,0.3587,0.3581,0.36,0.3512,0.3282,0.3608,0.3704,0.0,0.0,0.0,0.0,0.0,0.0,0.0,0.0,0.0,0.0,0.0,0.0,0.0,0.0,0.0,0.0,0.0,0.0,0.0,0.0,0.0,0.0,0.0,0.2458,0.0,0.0,0.0,0.0,0.0,0.0,0.0,0.0,0.0,0.3631,0.3493,0.3515,0.3846,0.3793,0.3825,0.4096,0.0,0.0,0.0,0.0,0.0,0.0,0.0,0.9642,1.0002,0.9978,0.9528,0.8461,0.7169,0.6191,0.6042,0.0,0.0,0.3772,0.318,0.29,0.3781,0.3927,0.3998,0.4188,0.4268,0.4215,0.0,0.0,0.0,0.0,0.0,0.0,0.0,0.0,-0.4304,-0.4412,0.0,-0.4757,0.0,0.0,0.0,0.0,0.0,-0.4075,0.0,0.0,-0.4121,-0.4142,-0.4021,-0.3969,-0.2634,-0.0253,-0.0,-0.0,-0.0,-0.0,0.0,0.0,0.0,0.0,0.0,0.0,-0.1142,-0.3378,-0.352,-0.3587,-0.3438,0.0937,0.3411,0.3592,0.3591,0.3591,0.3585,0.3719,0.3819,0.3819,0.3483,0.0,0.0,0.0,0.0,0.0,0.0,0.0,0.0,0.0,0.0,0.0,0.0,0.0,0.0,0.0,0.0,0.0,0.0,0.0,0.0,0.2768,0.0,0.0,0.0,0.0,0.0,0.0,0.0,0.0,0.0,0.0,0.3681,0.3841,0.4021,0.4024,0.0,0.0,0.0,0.0,0.6149,0.7628,0.8369,0.9165,1.0365,1.0714,1.0864,1.0925,0.0,0.0,1.0196,0.9395,0.8529,0.7289,0.5558,0.4095,0.4048,0.32,0.2677,0.3671,0.3951,0.3836,0.3943,0.4091,0.3934,-0.2791,0.0,0.0,0.0,0.0,-0.4354,-0.4428,-0.4338,-0.4268,-0.4391,-0.464,-0.5024,0.0,0.0,0.0,0.0,0.0,0.0,-0.4433,-0.4337,-0.4226,-0.4244,-0.436,-0.4375,-0.3938,-0.3165,-0.1016,0.1103,0.315,0.3223,0.2992,0.2523,0.0,0.0,0.0,0.0,-0.0327,-0.1101,-0.2746,-0.3581,-0.3585,-0.2268,0.0133,0.3493,0.3602,0.3554,0.338,0.3666,0.3826,0.3805,0.3479,0.0,0.0,0.0,0.0,0.0,0.0,0.0,0.0,0.0,0.0,0.0,0.0,0.0,0.0,0.0,0.0,0.0,0.0,0.0,0.3572,0.4569,0.4809,0.0,0.0,0.0,0.0,0.0,0.0,0.0,0.0,0.0,0.4061,0.4031,0.406,0.0,0.0,0.5733,0.5506,0.6305,0.7206,0.7933,0.8739,0.0,1.0146,1.0356,1.0681,1.1388,1.2057,1.242,1.2104,1.1851,1.1115,0.9268,0.7768,0.6842,0.7017,0.6937,0.6501,0.5798,0.5819,0.6018,0.5803,0.4911,0.4082,-0.1801,-0.1154,-0.1892,-0.2609,-0.3253,-0.2865,-0.3068,-0.3627,-0.4095,-0.4441,-0.4575,-0.4244,-0.3963,-0.3815,-0.3458,0.0,0.0,0.0,-0.4485,-0.4459,-0.4353,-0.4406,-0.449,-0.4504,-0.3201,-0.0949,-0.0328,0.1568,0.4471,0.4467,0.4596,0.4711,0.0,0.0,0.0892,0.0865,0.0835,0.0652,-0.0638,-0.1554,-0.2041,-0.1207,0.0853,0.4104,0.4258,0.4202,0.4041,0.4252,0.4319,0.4121,0.3998,0.3732,0.0,0.0,0.0,0.0,0.0,0.0,0.0,0.0,0.0,0.0,0.0,0.1843,0.2327,0.0,0.0,0.0,0.2224,0.3113,0.4108,0.5113,0.0,0.0,0.0,0.0,0.0,0.0,0.0,0.4541,0.4449,0.4438,0.4645,0.4393,0.4209,0.43,0.5618,0.6539,0.6352,0.0,0.7757,0.862,0.9105,0.9599,1.0418,1.0738,1.1175,1.2068,1.2278,1.2526,1.2874,1.3253,1.3087,1.1669,1.0127,0.9259,0.9979,1.0656,1.0209,0.7661,0.7337,0.753,0.7466,0.6157,0.5249,-0.1008,-0.0,-0.0,-0.0781,-0.1896,-0.0557,-0.0779,-0.212,-0.3755,-0.4499,-0.4384,-0.302,-0.2252,-0.2082,-0.2942,0.0,-0.3324,-0.3873,-0.4095,-0.4155,-0.4384,-0.4504,-0.4458,-0.3999,-0.0894,0.4399,0.1673,0.178,0.4418,0.4488,0.5236,0.6524,0.5455,0.4025,0.2426,0.2382,0.223,0.2021,0.2225,0.1812,0.0698,0.2552,0.4184,0.5391,0.5443,0.5315,0.5134,0.5279,0.5118,0.4642,0.4754,0.4387,0.3395,0.0,0.0,0.0,0.0,0.0,0.0,0.0,0.0,0.0,0.0,0.0,0.0,0.0,0.0,0.0,0.1303,0.0,0.4134,0.4632,0.0,0.0,0.0,0.3913,0.3839,0.4136,0.4306,0.4314,0.0,0.0,0.5487,0.5078,0.4683,0.4683,0.5912,0.6969,0.7602,0.7619,0.8117,0.9728,0.9585,0.9765,1.099,1.1486,1.1946,1.2589,1.2309,1.2425,1.3186,1.3863,1.4417,1.4104,1.2485,1.1445,1.265,1.3762,1.364,0.9741,0.884,0.8735,0.8878,0.7922,0.7451,0.1736,-0.0,-0.0,-0.0224,-0.0504,-0.0168,-0.0168,-0.0726,-0.3366,-0.4509,-0.4453,-0.4109,-0.2678,-0.0552,-0.0773,-0.0827,-0.0881,-0.1001,-0.1059,-0.1226,-0.3422,-0.4509,-0.4284,0.0168,0.3087,0.4396,0.3808,0.3799,0.4475,0.4489,0.5196,0.6561,0.7391,0.6413,0.3811,0.3879,0.3943,0.3886,0.3893,0.3779,0.3493,0.3553,0.454,0.6554,0.6588,0.6166,0.5325,0.5594,0.5361,0.4515,0.4378,0.4069,0.3389,0.3041,0.0,0.0,0.0,0.0,0.0,0.0,0.0,0.0,0.0,-0.0698,-0.1182,0.0,-0.1427,0.0,-0.0696,0.0995,0.1916,0.3556,0.0,0.0,0.4785,0.4773,0.4383,0.4737,0.5068,0.5199,0.5742,0.6152,0.6312,0.622,0.6082,0.6138,0.7345,0.8661,0.9764,0.9514,0.9709,1.0944,1.0933,1.0871,1.1468,1.2006,1.2351,1.2131,1.3371,1.4761,1.5519,1.4852,1.4435,1.4875,1.4378,1.3958,1.4174,1.521,1.5349,1.3554,1.2005,1.0912,1.0839,1.0276,1.0187,0.23,0.1903,0.056,0.0391,0.095,0.028,0.0784,0.185,0.0223,-0.0503,-0.0559,-0.1228,-0.0223,0.1955,0.2011,0.1282,-0.0,-0.0,-0.0,-0.0,-0.0335,-0.0503,-0.0391,0.2238,0.3818,0.4496,0.4485,0.447,0.4503,0.4469,0.5194,0.6544,0.6786,0.6206,0.4858,0.491,0.4807,0.4479,0.4508,0.449,0.453,0.5014,0.5944,0.7314,0.739,0.6979,0.609,0.5962,0.5572,0.4822,0.4467,0.4001,0.3391,0.3115,0.2883,0.0,0.0,0.0,0.0,0.0,0.0,0.0,0.0,0.0,0.0,0.0,-0.3284,-0.3678,-0.2446,-0.0992,0.0527,0.1791,0.2879,0.3833,0.4539,0.4828,0.4505,0.5031,0.5432,0.5475,0.6147,0.675,0.7017,0.6811,0.6841,0.7458,0.8271,0.9306,1.0465,1.047,1.061,1.1598,1.1437,1.1509,1.2162,1.2827,1.3231,1.3301,1.4152,1.5262,1.6262,1.5526,1.4812,1.5059,1.5334,1.5522,1.5543,1.5969,1.6238,1.5587,1.4396,1.3339,1.2739,1.2183,1.2033,0.1736,0.427,0.1676,0.134,0.24,0.1119,0.1965,0.418,0.4228,0.4338,0.4394,0.3077,0.3241,0.4492,0.4494,0.3072,0.0612,0.0558,0.0447,0.0447,0.2971,0.4283,0.4453,0.3134,0.3182,0.4477,0.4477,0.4513,0.4527,0.4837,0.5567,0.649,0.5217,0.4779,0.5376,0.5431,0.5166,0.4517,0.4462,0.4509,0.4494,0.6171,0.7277,0.7862,0.7808,0.7524,0.6917,0.623,0.5682,0.5217,0.4759,0.4121,0.3414,0.3348,0.3174,0.0,0.2796,0.0,0.0,0.0,0.0,0.0,0.0,0.0,0.0,-0.5386,-0.5048,-0.4002,-0.3784,-0.2787,-0.0477,-0.0109,0.0724,0.2448,0.3742,0.4475,0.452,0.5167,0.5649,0.5649,0.6364,0.7128,0.7723,0.7247,0.7402,0.8468,0.9005,0.9602,1.0538,1.0781,1.1065,1.19,1.1768,1.2213,1.3284,1.3918,1.4365,1.4886,1.4894,1.5022,1.6273,1.5888,1.5317,1.5249,1.575,1.6292,1.6454,1.6491,1.6497,1.6392,1.5902,1.5236,1.4264,1.3334,1.2942,0.1737,0.4396,0.3884,0.3821,0.4041,0.3759,0.325,0.2627,0.2625,0.3359,0.4442,0.4203,0.4198,0.4482,0.4482,0.4196,0.363,0.364,0.2963,0.1784,0.2345,0.3302,0.4442,0.4203,0.4198,0.4477,0.4467,0.4462,0.4565,0.6833,0.7534,0.6574,0.5188,0.4569,0.4732,0.0,0.0,0.0,0.4462,0.4489,0.4494,0.4869,0.5932,0.7809,0.7437,0.0,0.6386,0.5988,0.5498,0.4855,0.4813,0.0,0.0,0.0,0.0,0.0,0.0,0.0,0.0,0.0,0.0,0.0,-0.3982,-0.427,-0.4934,-0.5211,-0.5033,-0.4259,-0.4257,-0.3635,-0.1932,-0.0667,0.0168,0.0614,0.2907,0.4489,0.4534,0.5614,0.6421,0.6423,0.7557,0.8427,0.848,0.8468,0.8468,0.8794,0.971,1.0478,1.0749,1.0834,1.1507,1.2999,1.3385,1.3867,1.4981,1.4922,1.5148,1.5881,1.6155,1.6149,1.6347,1.5882,1.567,1.6042,1.5869,1.588,1.6409,1.6528,1.6571,1.6528,1.6429,1.5964,1.4795,1.3684,1.2927,0.1344,0.0,0.4161,0.4494,0.0,0.4479,0.4081,0.3343,0.3349,0.3799,0.448,0.4473,0.4472,0.4468,0.447,0.447,0.4472,0.4482,0.4092,0.3357,0.3352,0.3751,0.4497,0.4479,0.4472,0.4472,0.4467,0.4506,0.4548,0.5957,0.6304,0.5574,0.4856,0.447,0.4515,0.4844,0.484,0.4517,0.4462,0.4508,0.4546,0.4927,0.5617,0.6581,0.6748,0.0,0.0,0.0,0.0,0.0,0.0,0.0,0.0,0.0,0.0,0.3592,0.343,0.343,0.3422,-0.101,-0.3856,-0.3981,-0.4136,-0.4574,-0.548,-0.5564,-0.5428,-0.5059,-0.4723,-0.4161,-0.3364,-0.1344,-0.0,-0.0,0.201,0.3635,0.4418,0.5449,0.6204,0.6637,0.7563,0.8371,0.8752,0.8808,0.8808,0.8804,0.9361,1.002,1.0494,1.1296,1.2379,1.3579,1.416,1.468,1.5416,1.5726,1.5861,1.6368,1.6218,1.6166,1.6455,1.5875,1.5743,1.673,1.6745,1.6688,1.7137,1.7186,1.7002,1.6886,1.6674,1.6188,1.5188,1.4348,1.3575,0.0727,0.1953,0.3756,0.4487,0.4465,0.4467,0.4465,0.4465,0.0,0.0,0.0,0.4462,0.4531,0.4497,0.4531,0.4532,0.4558,0.4541,0.4479,0.4489,0.448,0.448,0.4489,0.4472,0.4462,0.4462,0.4462,0.4501,0.4476,0.4476,0.4474,0.4476,0.4472,0.4491,0.446,0.4462,0.4462,0.4462,0.4462,0.4462,0.4517,0.5228,0.5573,0.5334,0.5894,0.6048,0.5631,0.4761,0.4385,0.4757,0.4332,0.4087,0.4063,0.4058,0.3943,0.3716,0.3661,0.3681,0.3673,-0.0152,-0.268,-0.2998,-0.3451,-0.4433,-0.6115,-0.6133,-0.5804,-0.5291,-0.4772,-0.4514,-0.4457,-0.1794,-0.0,-0.0,0.1339,0.2845,0.4307,0.5119,0.5817,0.6529,0.7292,0.7996,0.8699,0.8808,0.8808,0.8801,0.889,0.9204,1.0257,1.176,1.3025,1.3862,1.451,1.5084,1.5638,1.6126,1.6497,1.6481,1.6009,1.5837,1.6226,1.5999,1.6156,1.723,1.7531,1.7659,1.7961,1.7727,1.7515,1.7319,1.6776,1.6206,1.5645,1.508,1.4291,-0.0,0.0559,0.3311,0.4497,0.4477,0.4477,0.4477,0.4477,0.4467,0.4462,0.4462,0.4462,0.4591,0.4653,0.4577,0.4591,0.4765,0.4579,0.4465,0.4467,0.4465,0.4465,0.4467,0.4462,0.4462,0.4462,0.4462,0.446,0.4512,0.4508,0.4508,0.451,0.451,0.4513,0.4462,0.4462,0.4462,0.4462,0.4462,0.4462,0.4517,0.4627,0.4932,0.5238,0.5002,0.4864,0.5014,0.468,0.4394,0.432,0.4386,0.4345,0.4172,0.4164,0.4105,0.3931,0.392,0.4085,0.4336,0.3698,0.2561,0.0878,-0.011,-0.2314,-0.6116,-0.6544,-0.5428,-0.3123,-0.3704,-0.4514,-0.4286,-0.1738,-0.0,-0.0,0.1284,0.2792,0.4322,0.5071,0.5762,0.6532,0.7235,0.799,0.8646,0.8808,0.8808,0.8791,0.8633,0.9154,1.0391,1.19,1.3215,1.4318,1.5096,1.5688,1.6101,1.6429,1.6532,1.6514,1.6399,1.6283,1.6437,1.6378,1.6545,1.7246,1.7388,1.7598,1.8027,1.7673,1.7483,1.7347,1.6636,1.5967,1.6067,1.5302,1.4279,-0.0,-0.0,0.2353,0.325,0.3294,0.4144,0.403,0.3294,0.3235,0.3739,0.447,0.4465,0.4604,0.473,0.4706,0.4778,0.4863,0.4591,0.4467,0.447,0.4467,0.4467,0.447,0.4467,0.4467,0.4468,0.4465,0.4467,0.4472,0.4465,0.4462,0.4462,0.4462,0.4462,0.4462,0.4462,0.4462,0.4462,0.4462,0.4462,0.4462,0.4462,0.4647,0.4841,0.4618,0.4535,0.4681,0.4579,0.4457,0.4363,0.4484,0.4594,0.4896,0.4892,0.4739,0.4327,0.4266,0.4363,0.4459,0.449,0.4465,0.4231,0.3116,0.1991,0.0711,-0.1652,-0.2441,-0.1166,-0.1673,-0.2066,-0.2011,-0.0783,-0.0,-0.0,0.1339,0.2794,0.4208,0.4746,0.5386,0.6423,0.691,0.7563,0.8646,0.8808,0.8808,0.8748,0.819,0.8149,0.9441,1.0507,1.1738,1.3328,1.4481,1.532,1.5914,1.6337,1.6465,1.6528,1.6528,1.6529,1.653,1.6491,1.6713,1.7214,1.7504,1.794,1.8412,1.8334,1.8099,1.7706,1.7221,1.6554,1.5529,1.4424,1.3577,-0.0,-0.0,0.1256,0.1716,0.1824,0.2951,0.3169,0.2712,0.2409,0.2849,0.3912,0.4354,0.4625,0.4834,0.4838,0.4854,0.482,0.4603,0.4467,0.4472,0.4467,0.4467,0.4477,0.4467,0.4468,0.442,0.4184,0.4132,0.4425,0.4475,0.4467,0.4465,0.4465,0.4463,0.4462,0.4462,0.4462,0.4462,0.4462,0.4462,0.4462,0.4462,0.4462,0.4462,0.4517,0.4462,0.4462,0.4462,0.4462,0.4462,0.4462,0.473,0.5218,0.5435,0.5418,0.5169,0.5048,0.4834,0.4534,0.4684,0.5154,0.6002,0.5159,0.4978,0.5884,0.3257,0.1161,0.1052,0.1055,0.1003,0.1058,0.1059,-0.0,-0.0,0.1673,0.279,0.4204,0.4472,0.5007,0.6317,0.6591,0.7179,0.8371,0.8808,0.8633,0.8128,0.7055,0.6709,0.7973,0.8919,1.0242,1.1791,1.3522,1.4869,1.5499,1.6095,1.6448,1.6529,1.6529,1.6337,1.6225,1.6231,1.6703,1.7173,1.7626,1.802,1.8535,1.8542,1.8263,1.7834,1.7229,1.6262,1.4308,1.3496,1.2966,-0.0,-0.0,-0.0,0.0183,-0.0,-0.0,0.1931,0.3927,0.2842,0.2235,0.2739,0.3913,0.464,0.4894,0.4832,0.4867,0.4857,0.4596,0.452,0.4465,0.4462,0.4462,0.4465,0.4462,0.447,0.4307,0.3229,0.3346,0.4437,0.4379,0.443,0.4479,0.4477,0.4472,0.4462,0.4462,0.4462,0.4462,0.4462,0.4462,0.4462,0.4462,0.4462,0.4462,0.4462,0.4462,0.4462,0.4462,0.4462,0.4462,0.4462,0.4519,0.4679,0.5162,0.6,0.6981,0.6606,0.5858,0.4745,0.5091,0.5226,0.4743,0.4743,0.4903,0.5653,0.5261,0.4709,0.4161,0.4075,0.3865,0.4098,0.3923,0.3863,0.3976,0.301,0.2782,0.4193,0.4468,0.5011,0.6421,0.6645,0.7184,0.8484,0.8808,0.8299,0.7407,0.5935,0.5447,0.6817,0.8044,0.9075,1.0382,1.2561,1.4675,1.5454,1.6101,1.6362,1.646,1.6473,1.6107,1.5636,1.5941,1.6644,1.6831,1.721,1.745,1.7733,1.782,1.7456,1.7286,1.6481,1.5103,1.3543,1.2977,1.2924,-0.0,-0.0,-0.0,-0.0,-0.0,-0.0,0.1937,0.4869,0.4386,0.4003,0.3814,0.4529,0.4877,0.4909,0.4965,0.4928,0.4897,0.4754,0.4603,0.4468,0.4462,0.4462,0.4462,0.4462,0.447,0.4487,0.3855,0.386,0.4101,0.2738,0.1838,0.2061,0.3577,0.4484,0.4473,0.447,0.4468,0.4462,0.4462,0.4462,0.4462,0.4462,0.4462,0.4462,0.4462,0.4462,0.4462,0.4462,0.4462,0.4462,0.4462,0.468,0.5056,0.5322,0.6055,0.7198,0.665,0.6463,0.7023,0.6475,0.6197,0.6362,0.5987,0.6202,0.7278,0.6686,0.6197,0.6249,0.5265,0.4501,0.4503,0.4505,0.513,0.6327,0.5007,0.4051,0.5185,0.5177,0.5492,0.6477,0.6966,0.7616,0.8533,0.8808,0.8543,0.7661,0.607,0.5251,0.6404,0.7466,0.8443,0.972,1.1929,1.382,1.4863,1.5236,1.5701,1.6171,1.5876,1.5252,1.578,1.5353,1.5638,1.6195,1.625,1.6304,1.6407,1.6744,1.6709,1.6579,1.6256,1.5188,1.4422,1.3545,1.3068,-0.0,-0.0,-0.0,-0.0,-0.0,-0.0,0.2064,0.5159,0.5375,0.5207,0.4918,0.5116,0.5118,0.4972,0.5001,0.5043,0.5024,0.4881,0.4668,0.4529,0.4462,0.4462,0.4462,0.4465,0.4477,0.4494,0.4492,0.4042,0.3201,0.1228,-0.0,-0.0,0.2178,0.3469,0.3858,0.4201,0.4479,0.4472,0.447,0.447,0.447,0.4468,0.4463,0.4462,0.4462,0.4462,0.4462,0.4462,0.4462,0.4462,0.4462,0.4734,0.5164,0.5378,0.5991,0.6998,0.6532,0.6691,0.812,0.7212,0.6745,0.7017,0.6745,0.7128,0.7993,0.7506,0.7182,0.7447,0.645,0.5573,0.4567,0.52,0.6628,0.8368,0.6799,0.5891,0.6062,0.5884,0.6091,0.6802,0.713,0.7788,0.8556,0.8771,0.8722,0.8429,0.7055,0.5712,0.6519,0.721,0.8094,0.9275,1.1056,1.2715,1.4127,1.4926,1.5329,1.5358,1.5068,1.5078,1.5778,1.5,1.4544,1.5134,1.5066,1.4891,1.4806,1.5095,1.5985,1.617,1.5964,1.5508,1.5109,1.4322,1.3902,-0.0,-0.0,-0.0,-0.0,-0.0,-0.0,0.1998,0.5047,0.5369,0.5278,0.5139,0.5274,0.5265,0.5109,0.4996,0.5114,0.5282,0.4895,0.4685,0.4555,0.4532,0.4522,0.4462,0.4473,0.4487,0.4497,0.4502,0.309,0.0505,-0.0,-0.0,-0.0,-0.0,0.1005,0.2288,0.3583,0.4438,0.4322,0.4322,0.4379,0.4435,0.4426,0.4473,0.4465,0.4462,0.4462,0.4462,0.4462,0.4462,0.4462,0.4462,0.4515,0.4625,0.5166,0.5817,0.6477,0.6532,0.6542,0.6732,0.6712,0.6475,0.598,0.6524,0.6966,0.7833,0.778,0.772,0.7717,0.808,0.7292,0.5487,0.6874,0.8292,0.8648,0.8658,0.7826,0.6704,0.6588,0.6912,0.7345,0.7182,0.7529,0.8614,0.8795,0.8785,0.8825,0.8614,0.8101,0.7023,0.7286,0.8016,0.8839,1.0073,1.1602,1.3464,1.4329,1.4674,1.4874,1.4817,1.4502,1.4464,1.4326,1.4111,1.3991,1.3835,1.357,1.3152,1.3653,1.4824,1.5385,1.5762,1.5531,1.561,1.6048,1.5647,-0.0,-0.0,-0.0,-0.0,-0.0,-0.0,0.0795,0.2115,0.4411,0.539,0.5325,0.5371,0.5305,0.508,0.5192,0.5286,0.5369,0.5027,0.4804,0.4745,0.4653,0.467,0.4676,0.4682,0.4635,0.4516,0.4453,0.2977,-0.0,-0.0,-0.0,-0.0,-0.0,0.028,0.0837,0.134,0.2066,0.2907,0.302,0.302,0.3132,0.3978,0.4487,0.4484,0.4468,0.4462,0.4462,0.4462,0.4462,0.4462,0.4462,0.4462,0.4517,0.4734,0.4939,0.5245,0.5239,0.5627,0.6502,0.7063,0.7447,0.7605,0.7824,0.8046,0.8321,0.8431,0.8427,0.8431,0.8609,0.8153,0.7818,0.8265,0.8764,0.8784,0.8751,0.8416,0.7583,0.7289,0.7402,0.7673,0.7777,0.829,0.8491,0.8791,0.8814,0.8894,0.9542,0.9094,0.7901,0.7916,0.8432,0.8741,0.9526,1.0712,1.2204,1.3203,1.3863,1.4356,1.4417,1.3721,1.3412,1.2511,1.2078,1.2758,1.2701,1.2667,1.2391,1.3027,1.4118,1.4823,1.5203,1.5505,1.6021,1.6268,1.6241,-0.0,-0.0,-0.0,-0.0,-0.0,-0.0,-0.0,-0.0,0.2551,0.3996,0.4412,0.4531,0.4716,0.5187,0.534,0.5397,0.5406,0.5135,0.4979,0.4799,0.4761,0.4779,0.4787,0.473,0.4626,0.4307,0.3443,0.1929,-0.0,-0.0,-0.0,-0.0,-0.0,-0.0,-0.0,-0.0,0.0559,0.1341,0.1508,0.1507,0.1731,0.3478,0.4501,0.4501,0.4484,0.4472,0.4468,0.4463,0.4462,0.4462,0.4462,0.4462,0.4462,0.4462,0.4501,0.4527,0.4801,0.5406,0.6484,0.7272,0.7937,0.8371,0.8643,0.8808,0.8808,0.8808,0.8808,0.8808,0.8808,0.8808,0.8814,0.8795,0.8801,0.8765,0.8791,0.8635,0.8112,0.8046,0.783,0.7453,0.7613,0.802,0.8385,0.8642,0.8781,0.8811,0.9629,0.9408,0.849,0.8402,0.8702,0.8803,0.934,1.0257,1.1258,1.2061,1.288,1.3471,1.4359,1.352,1.2315,1.1195,1.0833,1.1442,1.1702,1.172,1.207,1.2706,1.3421,1.4231,1.4601,1.4863,1.5522,1.6306,1.6272,-0.0,-0.0,-0.0,-0.0,-0.0,-0.0,-0.0,-0.0,-0.0,0.1338,0.2602,0.2677,0.3479,0.484,0.5181,0.5389,0.535,0.5173,0.4662,0.4113,0.4462,0.4766,0.4895,0.4714,0.4325,0.3922,0.1431,-0.0,-0.0,-0.0,-0.0,-0.0,-0.0,-0.0,-0.0,-0.0,-0.0,-0.0,-0.0,-0.0,-0.0,0.2695,0.4054,0.4169,0.4158,0.4204,0.4423,0.4468,0.4465,0.4465,0.4463,0.4462,0.4462,0.4462,0.45,0.464,0.537,0.6157,0.6694,0.7343,0.7723,0.7993,0.8427,0.8808,0.8808,0.8808,0.8808,0.8808,0.8808,0.8808,0.8808,0.8811,0.8814,0.8808,0.8765,0.8758,0.8649,0.8699,0.8209,0.6964,0.6748,0.6877,0.7393,0.8183,0.8661,0.8497,0.8636,0.8699,0.8368,0.8412,0.8692,0.8738,0.8988,0.9588,1.0254,1.0922,1.1737,1.2622,1.3669,1.376,1.2278,1.1122,1.0863,1.1319,1.1625,1.1697,1.2143,1.2672,1.2996,1.3663,1.394,1.4411,1.5181,1.5909,1.6371,-0.0,-0.0,-0.0,-0.0,-0.0,-0.0,-0.0,-0.0,-0.0,-0.0,0.0806,0.0871,0.1138,-0.0,0.4173,0.5408,0.5266,0.4148,0.2775,0.182,0.2558,0.382,0.4929,0.5128,0.3791,0.1663,0.0478,-0.0,-0.0,-0.0,-0.0,-0.0,-0.0,-0.0,-0.0,-0.0,-0.0,-0.0,-0.0,-0.0,-0.0,-0.0,-0.0,0.1401,0.1398,0.2293,0.433,0.449,0.4487,0.443,0.4479,0.447,0.4463,0.4462,0.4501,0.4751,0.6698,0.7958,0.8003,0.7851,0.794,0.8371,0.8702,0.8755,0.8808,0.8808,0.8808,0.8808,0.8808,0.8808,0.8808,0.8808,0.8752,0.8804,0.8808,0.8533,0.8046,0.7613,0.6907,0.6145,0.6258,0.6253,0.6034,0.7109,0.8078,0.7165,0.7175,0.7267,0.7377,0.775,0.7691,0.7439,0.8016,0.8761,0.9422,0.999,1.0712,1.1656,1.2748,1.3463,1.2206,1.1642,1.1375,1.1236,1.1543,1.1859,1.2304,1.2642,1.2972,1.3294,1.3763,1.4288,1.4909,1.532,1.5688,-0.0,-0.0,-0.0,-0.0,-0.0,-0.0,-0.0,-0.0,-0.0,-0.0,-0.0,-0.0,-0.0,-0.0,0.2421,0.4121,0.5015,0.2904,0.1077,0.0201,0.0858,0.2162,0.3287,0.3422,0.2394,-0.0,-0.0,-0.0,-0.0,-0.0,-0.0,-0.0,-0.0,-0.0,-0.0,-0.0,-0.0,-0.0,-0.0,-0.0,-0.0,-0.0,-0.0,-0.0,-0.0,-0.0,0.2752,0.3313,0.3649,0.3755,0.4144,0.4475,0.4468,0.4463,0.45,0.5037,0.703,0.8779,0.8751,0.8353,0.8265,0.8699,0.8808,0.8808,0.8808,0.8808,0.8808,0.8808,0.8808,0.8808,0.8808,0.8808,0.8583,0.8016,0.7903,0.7753,0.7283,0.6701,0.6213,0.5832,0.5727,0.5326,0.5318,0.5651,0.7017,0.6185,0.5967,0.617,0.6392,0.6827,0.6673,0.663,0.7122,0.7859,0.8583,0.9155,0.9684,1.0694,1.1768,1.2254,1.195,1.2236,1.2292,1.2077,1.2217,1.2328,1.2715,1.2774,1.3012,1.3329,1.3547,1.3831,1.4217,1.4324,1.4647,-0.0,-0.0,-0.0,-0.0,-0.0,-0.0,-0.0,-0.0,-0.0,-0.0,-0.0,-0.0,-0.0,-0.0,-0.0,0.2092,0.4,-0.0,-0.0,-0.0,-0.0,-0.0,-0.0,-0.0,-0.0,-0.0,-0.0,-0.0,-0.0,-0.0,-0.0,-0.0,-0.0,-0.0,-0.0,-0.0,-0.0,-0.0,-0.0,-0.0,-0.0,-0.0,-0.0,-0.0,-0.0,-0.0,-0.0,0.1514,0.2074,0.2288,0.3238,0.3968,0.4364,0.447,0.4503,0.4581,0.7076,0.8162,0.8514,0.835,0.848,0.8586,0.859,0.8804,0.8752,0.8808,0.8808,0.8808,0.8808,0.8808,0.8808,0.8765,0.814,0.6791,0.6635,0.6599,0.6532,0.6116,0.557,0.535,0.4923,0.4368,0.4215,0.4544,0.5322,0.5753,0.5341,0.5402,0.5797,0.6081,0.6077,0.6195,0.6315,0.7009,0.7735,0.8333,0.8964,1.0482,1.1184,1.1285,1.1578,1.2058,1.259,1.2454,1.2635,1.2798,1.2881,1.2886,1.2886,1.3065,1.32,1.3291,1.342,1.3637,1.3789,-0.0,-0.0,-0.0,-0.0,-0.0,-0.0,-0.0,-0.0,-0.0,-0.0,-0.0,-0.0,-0.0,-0.0,-0.0,0.0607,-0.0,-0.0,-0.0,-0.0,-0.0,-0.0,-0.0,-0.0,-0.0,-0.0,-0.0,-0.0,-0.3572,-0.1407,-0.0,-0.0,-0.0,-0.0,-0.0,-0.0,-0.0,-0.0,-0.0,-0.0,-0.0,-0.0,-0.0,-0.0,-0.0,-0.0,-0.0,0.0336,0.056,0.0614,0.0892,0.2343,0.4139,0.442,0.4512,0.4701,0.5249,0.6204,0.698,0.7244,0.7453,0.794,0.7993,0.8212,0.8752,0.8808,0.8808,0.8808,0.8808,0.8755,0.8761,0.8682,0.7568,0.5612,0.551,0.5862,0.5891,0.5356,0.4468,0.3401,0.307,0.2844,0.3007,0.3622,0.441,0.4792,0.4842,0.4613,0.5167,0.5224,0.522,0.522,0.5443,0.6143,0.6843,0.7444,0.8501,1.0222,1.074,1.0466,1.0721,1.0956,1.1592,1.194,1.2597,1.2886,1.2886,1.2886,1.2886,1.2886,1.2978,1.3113,1.307,1.3152,1.3195,-0.0,-0.0,-0.0,-0.0,-0.0,-0.0,-0.0,-0.0,-0.0,-0.0,-0.0,-0.0,-0.0,-0.0,-0.0,-0.0,-0.0,-0.0,-0.0,-0.0,-0.0,-0.0,-0.0,-0.0,-0.0741,-0.2016,-0.0726,-0.2021,-0.4324,-0.311,-0.1933,-0.0,-0.0288,-0.0,-0.0,-0.0,-0.0,-0.0,-0.0,-0.0,-0.0,-0.0,-0.0,-0.0,-0.0,-0.0,-0.0,-0.0,-0.0,-0.0,-0.0,0.1115,0.3239,0.4196,0.4463,0.4544,0.5039,0.5645,0.569,0.6023,0.6573,0.7069,0.7233,0.7453,0.7723,0.7883,0.7883,0.7833,0.8062,0.8413,0.8488,0.7764,0.6298,0.4963,0.4822,0.5124,0.5303,0.4818,0.415,0.3192,0.2124,-0.0,-0.0,-0.0,0.2851,0.3465,0.425,0.4304,0.4581,0.4468,0.452,0.4682,0.4789,0.5492,0.614,0.674,0.7759,0.9533,1.0918,1.0478,1.0554,1.0727,1.1297,1.2035,1.2564,1.2886,1.2886,1.2886,1.2886,1.2886,1.2886,1.2881,1.2881,1.2886,1.2886,-0.0,-0.0,-0.0,-0.0,-0.0,-0.0,-0.0,-0.0,-0.0,-0.0,-0.0,-0.0,-0.0,-0.0,-0.0,-0.0,-0.0,-0.0,-0.0,-0.0,-0.0,-0.0,-0.0,-0.0,-0.2492,-0.4179,-0.1877,-0.2646,-0.4427,-0.4969,-0.4176,-0.2683,-0.1288,-0.0344,-0.0,-0.0,-0.0,-0.0,-0.0,-0.0,-0.0,-0.0,-0.0,-0.0,-0.0,-0.0,-0.0,-0.0,-0.0,-0.0,-0.0,-0.0,0.2232,0.369,0.4418,0.4629,0.5346,0.5555,0.4922,0.5362,0.5966,0.6362,0.6475,0.6534,0.6748,0.6858,0.6858,0.6861,0.7055,0.7509,0.7518,0.5925,0.4971,0.4479,0.4512,0.4473,0.4369,0.4443,0.4399,0.3943,0.1457,-0.0,-0.0,-0.0,0.0559,0.1897,0.268,0.318,0.3793,0.4301,0.4408,0.4517,0.4679,0.4787,0.5437,0.6088,0.7315,0.8741,1.062,1.1086,1.1216,1.1423,1.1706,1.2152,1.2564,1.2827,1.2886,1.2886,1.2827,1.2779,1.2671,1.272,1.2769,1.2881,1.2886,-0.0,-0.0,-0.0,-0.0,-0.0,-0.0,-0.0,-0.0,-0.0,-0.0,-0.0,-0.0,-0.0,-0.0,-0.0,-0.0,-0.0,-0.0,-0.0,-0.0,-0.0,-0.0,-0.0,-0.2357,-0.4388,-0.5065,-0.4708,-0.4615,-0.516,-0.491,-0.4645,-0.4194,-0.3366,-0.2313,-0.0,-0.0,-0.0,-0.0,-0.0,-0.0,-0.0,-0.0,-0.0,-0.0,-0.0,-0.0,-0.0,-0.0,-0.0,-0.0,-0.0,0.0671,0.2009,0.3583,0.4426,0.4581,0.4741,0.4846,0.4618,0.4725,0.5052,0.5651,0.5762,0.5977,0.6534,0.648,0.6534,0.6591,0.6707,0.6431,0.576,0.5025,0.4535,0.4501,0.4465,0.4193,0.3684,0.4041,0.3596,0.1679,-0.0,-0.0,-0.0,-0.0,-0.0,-0.0,0.1059,0.1781,0.2896,0.4078,0.4299,0.4467,0.4515,0.4679,0.5113,0.5814,0.6934,0.8212,0.9928,1.1657,1.1787,1.1607,1.172,1.2039,1.2505,1.272,1.2886,1.2652,1.2535,1.2496,1.2403,1.2344,1.2344,1.2613,1.2886,-0.0,-0.0,-0.0,-0.0,-0.0,-0.0,-0.0,-0.0,-0.1886,-0.2491,-0.2087,-0.0941,-0.0,-0.0,-0.0,-0.0,-0.0,-0.0,-0.0,-0.0,-0.0,-0.0,-0.0,-0.195,-0.3498,-0.4928,-0.5331,-0.5432,-0.5308,-0.5011,-0.4849,-0.4705,-0.4502,-0.3727,-0.196,-0.0,-0.0,-0.0,-0.0,-0.0,-0.0,-0.0,-0.0,-0.0,-0.0,-0.0,-0.0,-0.0,-0.0,-0.0,-0.0,-0.0,0.1396,0.3246,0.4371,0.4473,0.4463,0.4462,0.4462,0.4517,0.468,0.5003,0.4999,0.5222,0.55,0.5609,0.5607,0.5609,0.5555,0.5273,0.4601,0.4491,0.4503,0.4458,0.4473,0.4249,0.3907,0.4149,0.3366,-0.0,-0.0,-0.0,-0.0,-0.0,-0.0,-0.0,-0.0,0.1117,0.336,0.4378,0.4421,0.4472,0.4465,0.4625,0.4895,0.5649,0.6663,0.7891,0.9287,1.1112,1.2218,1.1828,1.1453,1.1976,1.251,1.2725,1.2881,1.254,1.2101,1.2012,1.1868,1.1814,1.1805,1.1944,1.2379,-0.0,-0.0,-0.0,-0.0,-0.0,-0.0,-0.0,-0.0,-0.4047,-0.4931,-0.493,-0.2012,-0.0,-0.0,-0.0,-0.0,-0.0,-0.0,-0.0,-0.0,-0.0,-0.0,-0.0,-0.0,-0.1679,-0.4456,-0.5135,-0.5342,-0.5296,-0.4744,-0.3632,-0.3687,-0.3689,-0.3629,-0.344,-0.0,-0.0,-0.0,-0.0,-0.0,-0.0,-0.0,-0.0,-0.0,-0.0,-0.0,-0.0,-0.0,-0.0,-0.0,-0.0,-0.0,-0.0,0.2124,0.4265,0.4311,0.4472,0.4467,0.4465,0.4463,0.4517,0.4462,0.4515,0.4515,0.4572,0.4682,0.4736,0.468,0.468,0.468,0.4462,0.4513,0.4513,0.4463,0.4472,0.4472,0.4468,0.4479,0.3186,-0.0,-0.0,-0.0,-0.0,-0.0,-0.0,-0.0,-0.0,0.0728,0.2919,0.4504,0.4489,0.448,0.4473,0.4463,0.4734,0.5216,0.6232,0.7012,0.8406,1.0072,1.174,1.1586,1.1203,1.2039,1.252,1.2578,1.2241,1.1621,1.1306,1.1377,1.1345,1.1249,1.1273,1.1284,1.1917,-0.0,-0.0,-0.0,-0.0,-0.0,-0.0,-0.1751,-0.4252,-0.5,-0.5404,-0.5262,-0.4653,-0.255,-0.0,-0.0,-0.0,-0.0,-0.0,-0.0,-0.0,-0.0,-0.0,-0.0,-0.0,-0.0,-0.1548,-0.3367,-0.49,-0.4247,-0.2587,-0.0,-0.0,-0.0,-0.0,-0.2893,-0.0,-0.0,-0.0,-0.0,-0.0,-0.0,-0.0,-0.0,-0.0,-0.0,-0.0,-0.0,-0.0,-0.0,-0.0,-0.0,-0.0,-0.0,-0.0,0.2067,0.364,0.4369,0.4473,0.4473,0.4467,0.4463,0.4462,0.4462,0.4462,0.4462,0.4462,0.4462,0.4462,0.4462,0.4462,0.4462,0.4462,0.4462,0.4462,0.4463,0.4467,0.4463,0.441,0.4307,0.3131,-0.0,-0.0,-0.0,-0.0,-0.0,-0.0,-0.0,0.0951,0.2127,0.3646,0.4492,0.4485,0.4482,0.447,0.4572,0.4999,0.5636,0.5867,0.7033,0.8655,0.9978,1.061,1.1011,1.1547,1.1773,1.1732,1.1271,1.0689,1.0499,1.0539,1.0594,1.0691,1.0868,1.1098,1.1955,-0.0,-0.0,-0.0,-0.1075,-0.2627,-0.2826,-0.316,-0.4036,-0.4986,-0.5391,-0.5387,-0.5254,-0.3961,-0.1674,-0.0268,-0.0,-0.0,-0.0,-0.0,-0.0,-0.0,-0.0,-0.0,-0.0,-0.0,-0.0,-0.1817,-0.0,-0.2481,-0.1044,-0.0,-0.0,-0.0,-0.0,-0.1623,-0.0,-0.0,-0.0,-0.0,-0.0,-0.0,-0.0,-0.0,-0.0,-0.0,-0.0,-0.0,-0.0,-0.0,-0.0,-0.0,-0.0,-0.0,-0.0,-0.0,-0.0,0.3577,0.4479,0.4477,0.4468,0.4462,0.4462,0.4462,0.4462,0.4462,0.4462,0.4462,0.4462,0.4462,0.4462,0.4462,0.4462,0.4462,0.4462,0.4462,0.4462,0.4462,0.4462,0.4472,0.4426,-0.0,-0.0,-0.0,-0.0,-0.0,-0.0,-0.0,0.1788,0.1956,0.3077,0.4492,0.4485,0.448,0.4472,0.4463,0.4785,0.5091,0.5271,0.6079,0.7641,0.8717,0.9633,1.0226,1.071,1.0824,1.082,1.0661,1.0238,0.997,0.9692,0.9751,0.9898,1.0485,1.1061,1.1692,-0.1078,-0.101,-0.0335,-0.2078,-0.5063,-0.5401,-0.4571,-0.3752,-0.4835,-0.5379,-0.5374,-0.5309,-0.4632,-0.2948,-0.0,-0.0,-0.0,-0.0,-0.0,-0.0,-0.0,-0.0,-0.0,-0.0,-0.0,-0.0,-0.0,-0.0,-0.0,-0.0,-0.0,-0.0,-0.0,-0.0,-0.0,-0.0,-0.0,-0.0,-0.0,-0.0,-0.0,-0.0,-0.0,-0.0,-0.0,-0.0,-0.0,-0.0,-0.0,-0.0,-0.0,-0.0,-0.0,-0.0,-0.0,-0.0,-0.0,0.3522,0.4425,0.4472,0.4465,0.4462,0.4462,0.4462,0.4462,0.4462,0.4462,0.4462,0.4462,0.4462,0.4462,0.4462,0.4462,0.4462,0.4462,0.4462,0.4462,0.4463,0.4465,0.4189,0.3623,0.3123,0.2512,-0.0,-0.0,-0.0,0.2911,0.3193,0.3361,0.3584,0.4487,0.4482,0.4477,0.447,0.4465,0.4462,0.471,0.4783,0.584,0.734,0.82,0.8952,0.9435,0.9866,0.9988,1.0024,0.9875,0.9758,0.9481,0.9197,0.9005,0.9312,1.0119,1.0315,1.0598,-0.4796,-0.4455,-0.1338,-0.2074,-0.5122,-0.5396,-0.5321,-0.5105,-0.5241,-0.5372,-0.543,-0.5372,-0.5244,-0.4032,-0.1344,-0.0,-0.0,-0.0,-0.0,-0.0,-0.0,-0.0,-0.0,-0.0,-0.0,-0.0,-0.0,-0.0,-0.0,-0.0,-0.0,-0.0,-0.0,-0.0,-0.0,-0.0,-0.0,-0.0,-0.0,-0.0,-0.0,-0.0,-0.0,-0.0,-0.0,-0.0,-0.0,-0.0,-0.0,-0.0,-0.0,-0.0,-0.0,-0.0,-0.0,-0.0,0.0615,0.1674,0.3751,0.4421,0.447,0.4463,0.4462,0.4462,0.4462,0.4462,0.4462,0.4462,0.4462,0.4462,0.4462,0.4462,0.4462,0.4462,0.4462,0.4462,0.4462,0.4462,0.4465,0.4465,0.4013,0.4136,0.3863,0.3981,-0.0,-0.0,0.4212,0.4383,0.4494,0.4485,0.4482,0.4477,0.4473,0.4468,0.4465,0.4462,0.4494,0.4515,0.5408,0.6663,0.7122,0.77,0.8585,0.895,0.9127,0.9312,0.9295,0.9138,0.8942,0.8847,0.8854,0.9333,1.0022,0.9976,0.9795,-0.5399,-0.5274,-0.3687,-0.3952,-0.5316,-0.5379,-0.5372,-0.5371,-0.5369,-0.5434,-0.5428,-0.5364,-0.4899,-0.3624,-0.1073,-0.0,-0.0,-0.0,-0.0,-0.0,-0.0,-0.0,-0.0,-0.0,-0.0,-0.0,-0.0,-0.0,-0.0,-0.0,-0.0,-0.0,-0.0,-0.0,-0.0,-0.0,-0.0,-0.0,-0.0,-0.0,-0.0,-0.0,-0.0,-0.0,-0.0,0.2188,0.2131,-0.0,-0.0,-0.0,-0.0,-0.0,-0.0,-0.0,-0.0,-0.0,-0.0,-0.0,0.2849,0.3912,0.4358,0.4465,0.4462,0.4462,0.4462,0.4462,0.4462,0.4462,0.4462,0.4462,0.4462,0.4462,0.4462,0.4517,0.4627,0.457,0.457,0.4517,0.4463,0.4462,0.4463,0.4472,0.448,0.4423,0.4311,0.4311,0.4309,0.4421,0.4477,0.4472,0.447,0.447,0.4468,0.4467,0.4465,0.4462,0.4553,0.4525,0.4515,0.5521,0.5729,0.633,0.7241,0.8274,0.8868,0.8897,0.8765,0.8804,0.885,0.8801,0.8808,0.9337,0.9747,0.9599,0.9965,-0.5389,-0.5401,-0.5382,-0.5374,-0.5374,-0.5434,-0.5428,-0.5427,-0.5428,-0.5427,-0.543,-0.5365,-0.4626,-0.3081,-0.0,-0.0,-0.0,-0.0,-0.0,-0.0,-0.0,-0.0,-0.0,-0.0,-0.0,-0.0,-0.0,-0.0,-0.0,-0.0,-0.0,0.1145,-0.0,-0.0,-0.0,-0.0,-0.0,-0.0,-0.0,-0.0,-0.0,-0.0,-0.0,-0.0,0.2019,0.3713,0.4,0.2693,-0.0,-0.0,-0.0,-0.0,-0.0,-0.0,-0.0,-0.0,-0.0,-0.0,0.2288,0.3573,0.4299,0.4465,0.4462,0.4462,0.4462,0.4462,0.4462,0.4462,0.4462,0.4462,0.4572,0.4741,0.5183,0.5179,0.5011,0.4844,0.4734,0.4736,0.4627,0.4462,0.4462,0.4462,0.4467,0.4465,0.4463,0.4463,0.4462,0.4462,0.4517,0.457,0.4732,0.4844,0.5173,0.5228,0.5228,0.5111,0.4929,0.4588,0.4578,0.4634,0.5074,0.5341,0.5948,0.7017,0.8394,0.8758,0.8765,0.8811,0.8808,0.8808,0.886,0.9124,0.9343,0.927,1.0,-0.5379,-0.5382,-0.5369,-0.5432,-0.5432,-0.5428,-0.5427,-0.5427,-0.5427,-0.5427,-0.5428,-0.5372,-0.5312,-0.4302,-0.1876,-0.0,-0.0,-0.0,-0.0,-0.0,-0.0,-0.0,-0.0,-0.0,-0.0,-0.0,-0.0,-0.0,-0.0,-0.0,-0.0,0.4194,0.113,-0.0,-0.0,-0.0,-0.0,-0.0,-0.0,-0.0,-0.0,-0.0,-0.0,-0.0,-0.0,0.1571,0.4185,0.3837,-0.0,-0.0,-0.0,-0.0,-0.0,-0.0,-0.0,-0.0,-0.0,-0.0,0.2399,0.369,0.4311,0.447,0.4462,0.4462,0.4462,0.4462,0.4462,0.4462,0.4462,0.4462,0.4851,0.5464,0.5683,0.6249,0.5907,0.5384,0.522,0.5009,0.4844,0.4572,0.457,0.4624,0.4462,0.4462,0.4462,0.4462,0.4462,0.4462,0.4677,0.4785,0.5164,0.549,0.6039,0.6261,0.6317,0.6143,0.5697,0.5134,0.4792,0.47,0.4825,0.5035,0.5675,0.6735,0.8211,0.8516,0.8771,0.8814,0.8808,0.8808,0.8857,0.9061,0.9442,0.9699,1.0529,-0.5434,-0.5432,-0.5428,-0.5427,-0.5427,-0.5427,-0.5427,-0.5427,-0.5427,-0.5427,-0.5428,-0.5434,-0.5379,-0.464,-0.3018,-0.1006,-0.0,-0.0,-0.0,-0.0,-0.0,-0.0,-0.0,-0.0,-0.0,-0.0,-0.0,-0.0,-0.0,-0.0,-0.0,0.1127,-0.0,-0.0,-0.0,-0.0,-0.0,-0.0,-0.0,-0.0,-0.0,-0.0,-0.0,-0.0,-0.0,-0.0,0.1794,0.366,0.3433,0.2526,0.0897,-0.0,-0.0,-0.0,-0.0,-0.0,-0.0,-0.0,0.3018,0.4086,0.447,0.4467,0.4462,0.4462,0.4462,0.4462,0.4462,0.4462,0.4462,0.4462,0.4629,0.5018,0.5521,0.677,0.6924,0.6102,0.5817,0.5553,0.5277,0.5003,0.4948,0.5003,0.4732,0.4462,0.4462,0.4462,0.4462,0.4517,0.4732,0.5111,0.549,0.5975,0.6524,0.6799,0.6912,0.6691,0.6414,0.5792,0.5173,0.5192,0.5376,0.5764,0.647,0.7365,0.786,0.8221,0.848,0.8699,0.8808,0.8808,0.8791,0.8827,0.9375,0.9933,1.043,-0.5427,-0.5427,-0.5427,-0.5427,-0.5427,-0.5427,-0.5427,-0.5427,-0.5427,-0.543,-0.5432,-0.5434,-0.5379,-0.4981,-0.4167,-0.2011,-0.0,-0.0,-0.0,-0.0,-0.0,-0.0,-0.0,-0.0,-0.0,-0.0,-0.0,-0.0,-0.0,-0.0,-0.0,-0.0,-0.0,-0.0,-0.0,-0.0,-0.0,-0.0,-0.0,-0.0,-0.0,-0.0,-0.0,-0.0,-0.0,-0.0,-0.0,0.1906,0.2638,0.2075,-0.0,-0.0,-0.0,-0.0,-0.0,-0.0,0.1062,0.2403,0.3809,0.4479,0.4463,0.4462,0.4462,0.4462,0.4462,0.4462,0.4462,0.4462,0.4462,0.4462,0.446,0.4728,0.5056,0.6005,0.6618,0.6145,0.6312,0.6209,0.5819,0.5487,0.538,0.5218,0.4787,0.4462,0.4462,0.4462,0.4462,0.4517,0.4679,0.5167,0.5873,0.6414,0.6956,0.7179,0.7292,0.7393,0.7391,0.6956,0.6392,0.6173,0.6355,0.675,0.7206,0.7994,0.8256,0.8103,0.8309,0.8695,0.8808,0.8808,0.8791,0.8781,0.8886,0.9316,0.9171,-0.5427,-0.5427,-0.5427,-0.5427,-0.5427,-0.5427,-0.5427,-0.5427,-0.5427,-0.5369,-0.5377,-0.5376,-0.5386,-0.5328,-0.4987,-0.3429,-0.0,-0.0,-0.0,-0.0,-0.0,-0.0,-0.0,-0.0,-0.0,-0.0,-0.0,-0.0,-0.0,-0.0,-0.0,-0.0,-0.0,-0.0,-0.0,-0.0,-0.0,-0.0,-0.0,-0.0,-0.0,-0.0,-0.0,-0.0,-0.0,-0.0,-0.0,-0.0,-0.0,-0.0,-0.0,-0.0,-0.0,-0.0,-0.0,-0.0,-0.0,0.4096,0.4492,0.4473,0.4465,0.4462,0.4462,0.4462,0.4462,0.4462,0.4462,0.4462,0.4462,0.4462,0.4505,0.4548,0.482,0.5142,0.5749,0.6359,0.6527,0.6858,0.647,0.6034,0.5651,0.5324,0.484,0.4462,0.4462,0.4462,0.4462,0.4572,0.468,0.5167,0.5871,0.6305,0.6794,0.7396,0.7616,0.8265,0.8318,0.7886,0.756,0.7331,0.7348,0.7708,0.8221,0.8678,0.8589,0.8318,0.853,0.8808,0.8808,0.8808,0.8808,0.8798,0.8791,0.8813,0.8813,-0.5427,-0.5427,-0.5427,-0.5427,-0.5427,-0.5427,-0.5427,-0.5427,-0.543,-0.5369,-0.5377,-0.5377,-0.5391,-0.5403,-0.5199,-0.4317,-0.3236,-0.0,-0.0,-0.0,-0.0,-0.0,-0.0,-0.0,-0.0,-0.0,-0.0,-0.0,-0.0,-0.0,-0.0,-0.0,-0.0,-0.0,-0.0,-0.0,-0.0,-0.0,-0.0,-0.0,-0.0,-0.0,-0.0,-0.0,-0.0,-0.0,-0.0,-0.0,-0.0,-0.0,-0.0,-0.0,-0.0,-0.0,-0.0,-0.0,0.2746,0.443,0.4477,0.4463,0.4463,0.4462,0.4462,0.4462,0.4462,0.4462,0.4462,0.4462,0.4462,0.4462,0.4512,0.4508,0.4668,0.4641,0.5239,0.6176,0.662,0.712,0.7176,0.6637,0.6204,0.5384,0.4789,0.4517,0.4462,0.4462,0.4462,0.4462,0.4572,0.5056,0.5649,0.5923,0.6414,0.7233,0.7886,0.8156,0.8543,0.8387,0.8328,0.8315,0.8453,0.8485,0.8585,0.8738,0.8612,0.854,0.8699,0.8808,0.8808,0.8808,0.8808,0.8808,0.8801,0.8784,0.879,-0.5427,-0.5427,-0.5427,-0.5427,-0.5427,-0.5427,-0.5427,-0.5427,-0.5428,-0.5371,-0.5311,-0.4767,-0.3959,-0.3631,-0.3499,-0.3538,-0.3272,-0.0,-0.0,-0.0,-0.0,-0.0,-0.0,-0.0,-0.0,-0.0,-0.0,-0.0,-0.0,-0.0,-0.0,-0.0,-0.0,-0.0,-0.0,-0.0,-0.0,-0.0,-0.0,-0.0,-0.0,-0.0,-0.0,-0.0,-0.0,-0.0,-0.0,-0.0,-0.0,-0.0,-0.0,-0.0,-0.0,-0.0,-0.0,-0.0,0.2632,0.42,0.4467,0.4462,0.4463,0.447,0.4465,0.4462,0.4462,0.4462,0.4462,0.4462,0.4462,0.4463,0.4465,0.4465,0.4338,0.4313,0.4801,0.5738,0.6291,0.6791,0.6961,0.6532,0.6095,0.5389,0.4791,0.468,0.4462,0.4462,0.4462,0.4517,0.4572,0.5056,0.5485,0.5651,0.5982,0.6748,0.7345,0.7667,0.8109,0.8672,0.8771,0.8808,0.8758,0.8669,0.8761,0.8808,0.8699,0.8646,0.8752,0.8808,0.8808,0.8808,0.8808,0.8808,0.8808,0.8791,0.8768,-0.5427,-0.5427,-0.5427,-0.5427,-0.5427,-0.5427,-0.5427,-0.5425,-0.5416,-0.5359,-0.5307,-0.3603,-0.2263,-0.0,-0.0,-0.0,-0.0,-0.0,-0.0,-0.0,-0.0,-0.0,-0.0,-0.0,-0.0,-0.0,-0.0,-0.0,-0.0,-0.0,-0.0,-0.0,-0.0,-0.0,-0.0,-0.0,-0.0,-0.0,-0.0,-0.0,-0.0,-0.0,-0.0,-0.0,-0.0,-0.0,-0.0,-0.0,-0.0,-0.0,-0.0,-0.0,-0.0,-0.0,-0.0,-0.0,-0.0,0.4087,0.4468,0.4465,0.4467,0.4472,0.4467,0.4463,0.4463,0.4463,0.4462,0.4462,0.4462,0.4467,0.4472,0.4184,0.3953,0.4163,0.4433,0.5093,0.559,0.5923,0.6091,0.5873,0.5599,0.5111,0.4679,0.4517,0.4462,0.4462,0.4574,0.4908,0.5014,0.5167,0.5435,0.5326,0.5764,0.6315,0.6748,0.7069,0.791,0.8589,0.8771,0.8808,0.8808,0.8808,0.8808,0.8808,0.8808,0.8808,0.8808,0.8808,0.8808,0.8808,0.8808,0.8808,0.8808,0.8801,0.8817,-0.5427,-0.5427,-0.5427,-0.5427,-0.5427,-0.5427,-0.5427,-0.5416,-0.5252,-0.5206,-0.5085,-0.345,-0.1821,-0.0,-0.0,-0.0,-0.0,-0.0,-0.0,-0.0,-0.0,-0.0,-0.0,-0.0,-0.0,-0.0,-0.0,-0.0,-0.0,-0.0,-0.0,-0.0,-0.0,-0.0,-0.0,-0.0,-0.0,-0.0,-0.0,-0.0,-0.0,-0.0,-0.0,-0.0,-0.0,-0.0,-0.0,-0.0,-0.0,-0.0,0.2188,0.3035,0.3148,-0.0,-0.0,-0.0,0.2518,0.4497,0.4479,0.4472,0.4473,0.4473,0.447,0.4475,0.4472,0.4467,0.4463,0.4462,0.4462,0.4467,0.4072,0.3729,0.3786,0.4174,0.4446,0.4776,0.5271,0.5433,0.5546,0.5492,0.5162,0.4893,0.4517,0.4462,0.4462,0.4462,0.4629,0.5018,0.5291,0.5441,0.5437,0.5328,0.5437,0.5984,0.6095,0.6362,0.7487,0.8441,0.8629,0.8761,0.8808,0.8808,0.8808,0.8808,0.8808,0.8808,0.8808,0.8808,0.8808,0.8808,0.8808,0.8808,0.8804,0.8801,0.884,-0.5304,-0.5425,-0.5427,-0.5326,-0.5199,-0.5277,-0.5253,-0.5176,-0.5145,-0.5051,-0.4874,-0.3986,-0.2527,-0.1011,-0.0,-0.0,-0.0,-0.0,-0.0,-0.0,-0.0,-0.0,-0.0,-0.0,-0.0,-0.0,-0.0,-0.0,-0.0,-0.0,-0.0,-0.0,-0.0,-0.0,-0.0,-0.0,-0.0,-0.0,-0.0,-0.0,-0.0,-0.0,-0.0,-0.0,-0.0,-0.0,-0.0,-0.0,-0.0,0.1458,0.4,0.4397,0.3938,-0.0,-0.0,-0.0,0.1228,0.2346,0.2562,0.3967,0.425,0.4477,0.4473,0.4473,0.4477,0.4473,0.4467,0.4462,0.4462,0.4348,0.3727,0.3278,0.3786,0.4296,0.4513,0.4679,0.4893,0.5054,0.5054,0.5056,0.4838,0.4624,0.4462,0.4462,0.4462,0.4462,0.4682,0.5067,0.534,0.555,0.5492,0.5328,0.5326,0.5542,0.5653,0.5821,0.6768,0.7833,0.8551,0.8688,0.8768,0.8808,0.8808,0.8808,0.8808,0.8808,0.8808,0.8808,0.8808,0.8808,0.8808,0.8808,0.8808,0.8804,0.884,-0.5194,-0.5382,-0.5396,-0.5163,-0.491,-0.5054,-0.4994,-0.4913,-0.502,-0.4964,-0.4804,-0.473,-0.3742,-0.2388,-0.0,-0.0,-0.0,-0.0,-0.0,-0.0,-0.0,-0.0,-0.0,-0.0,-0.0,-0.0,-0.0,-0.0,-0.0,-0.0,-0.0,-0.0,-0.0,-0.0,-0.0,-0.0,-0.0,-0.0,-0.0,-0.0,-0.0,-0.0,-0.0,-0.0,-0.0,-0.0,-0.0,-0.0,0.1289,0.3258,0.4453,0.445,0.3588,-0.0,-0.0,-0.0,-0.0,-0.0,-0.0,0.2398,0.3803,0.4254,0.4477,0.4473,0.4473,0.4473,0.4467,0.4462,0.4462,0.4463,0.4012,0.3841,0.4236,0.4406,0.4515,0.457,0.4679,0.4785,0.473,0.4732,0.4679,0.4462,0.4462,0.4462,0.4462,0.4462,0.4627,0.5011,0.522,0.5487,0.549,0.538,0.5378,0.5378,0.5113,0.5391,0.605,0.6995,0.794,0.8482,0.8387,0.8537,0.8808,0.8808,0.8808,0.8808,0.8808,0.8808,0.8808,0.8808,0.8808,0.8808,0.8804,0.8804,0.8794,-0.4989,-0.5026,-0.5025,-0.4872,-0.4651,-0.4872,-0.4847,-0.475,-0.4777,-0.4782,-0.4694,-0.4578,-0.4341,-0.3681,-0.3268,-0.2236,-0.0,-0.0,-0.0,-0.0,-0.0,-0.0,-0.0,-0.0,-0.0,-0.0,-0.0,-0.0,-0.0,-0.0,-0.0,-0.0,-0.0,-0.0,-0.0,-0.0,-0.0,-0.0,-0.0,-0.0,-0.0,-0.0,-0.0,-0.0,-0.0,-0.0,0.1513,0.1289,0.1567,0.2516,0.3929,0.4379,0.4369,0.3688,0.223,-0.0,-0.0,-0.0,-0.0,0.1338,0.2681,0.3976,0.4425,0.4475,0.4472,0.4468,0.4465,0.4463,0.4463,0.4465,0.4467,0.4463,0.4462,0.4462,0.4462,0.4462,0.4462,0.4462,0.4462,0.4462,0.4462,0.4462,0.4462,0.4462,0.4462,0.4462,0.4462,0.4677,0.488,0.5146,0.5433,0.5378,0.5431,0.5324,0.495,0.4899,0.5611,0.632,0.7255,0.7684,0.8052,0.8431,0.8808,0.8808,0.8808,0.8808,0.8808,0.8808,0.8808,0.8808,0.8804,0.8857,0.885,0.8896,0.8844,-0.4858,-0.4909,-0.4845,-0.4756,-0.4561,-0.4686,-0.4667,-0.4601,-0.4646,-0.4589,-0.459,-0.4537,-0.4482,-0.4483,-0.4492,-0.392,-0.2001,-0.0,-0.0,-0.0,-0.0,-0.0,-0.0,-0.0,-0.0,-0.0,-0.0,-0.0,-0.0,-0.0,-0.0,-0.0,-0.0,-0.0,-0.0,-0.0,-0.0,-0.0,-0.0,-0.0,-0.0,-0.0,-0.0,-0.0,-0.0,-0.0,0.3031,0.2749,0.2854,0.3128,0.4141,0.442,0.4475,0.4312,0.358,0.2625,-0.0,0.1454,0.0837,0.1116,0.2123,0.3299,0.4371,0.4421,0.4467,0.4463,0.4463,0.4462,0.4462,0.4463,0.4463,0.4462,0.4462,0.4462,0.4462,0.4462,0.4462,0.4462,0.4462,0.4462,0.4462,0.4462,0.4462,0.4462,0.4462,0.4462,0.4462,0.456,0.4709,0.4811,0.515,0.5378,0.5378,0.5164,0.4734,0.4789,0.5113,0.5821,0.6524,0.7275,0.7865,0.8418,0.8808,0.8808,0.8808,0.8808,0.8808,0.8808,0.8808,0.8808,0.8857,0.8906,0.8949,0.904,0.902,-0.4735,-0.4835,-0.4776,-0.466,-0.4525,-0.4467,-0.4472,-0.4468,-0.4465,-0.4467,-0.4531,-0.4475,-0.4462,-0.4465,-0.4472,-0.4475,-0.4257,-0.3702,-0.2403,-0.1284,-0.0,-0.0,-0.0,-0.0,-0.0,-0.0,-0.0,-0.0,-0.0,-0.0,-0.0,-0.0,-0.0,-0.0,-0.0,-0.0,-0.0,-0.0,-0.0,-0.0,-0.0,-0.0,-0.0,-0.0,-0.0,-0.0,0.3482,0.4448,0.4435,0.4423,0.4358,0.447,0.4473,0.4484,0.4433,0.3868,0.3762,0.2747,0.1846,0.2125,0.2459,0.2905,0.386,0.442,0.4467,0.4462,0.4462,0.4462,0.4462,0.4462,0.4462,0.4462,0.4462,0.4462,0.4462,0.4462,0.4462,0.4462,0.4462,0.4462,0.4462,0.4462,0.4462,0.4462,0.4462,0.4462,0.4506,0.4604,0.4648,0.4758,0.4925,0.5156,0.5216,0.4948,0.4572,0.4625,0.4895,0.5204,0.5957,0.687,0.7738,0.8412,0.8808,0.8808,0.8808,0.8804,0.8808,0.8808,0.8808,0.8906,0.8804,0.8959,0.942,0.9503,0.9345,-0.4521,-0.4548,-0.457,-0.4507,-0.4502,-0.447,-0.4462,-0.4462,-0.4462,-0.4462,-0.4462,-0.4462,-0.4462,-0.4462,-0.4463,-0.4467,-0.447,-0.4428,-0.4438,-0.3645,-0.1398,-0.0,-0.0,-0.0,-0.0,-0.0,-0.0,-0.0,-0.0,-0.0,-0.0,-0.0,-0.0,-0.0,-0.0,-0.0,-0.0,-0.0,-0.0,-0.0,-0.0,-0.0,-0.0,-0.0,-0.0,-0.0,0.3592,0.4394,0.4489,0.4475,0.4472,0.4416,0.4364,0.4373,0.4496,0.4214,0.4279,0.3429,0.2636,0.2241,0.2127,0.2513,0.3466,0.4482,0.4472,0.4462,0.4462,0.4462,0.4462,0.4462,0.4462,0.4462,0.4462,0.4462,0.4462,0.4462,0.4462,0.4462,0.4462,0.4462,0.4462,0.4462,0.4462,0.4462,0.4462,0.451,0.4489,0.4645,0.5265,0.5095,0.4924,0.4986,0.5164,0.4785,0.4517,0.4519,0.4677,0.4927,0.551,0.6704,0.7691,0.8471,0.8808,0.8808,0.8857,0.891,0.8857,0.9057,0.9061,0.9162,0.8906,0.8959,0.9625,0.9894,0.9771]},{"header":{"parameterUnit":"m.s-1","parameterCategory":1,"la1":31.0,"la2":29.5877,"lo1":-88.7671,"lo2":-86.6584,"dy":0.0162,"dx":0.0185,"nx":115,"ny":88,"refTime":"2024-07-28T12:00:00:Z","depth":0,"parameterNumber":3,"parameterNumberName":"V-component_of_WINDS"},"data":[0.0,0.0,0.0,0.0,0.0,0.0,0.0,0.0,0.0,0.0,0.0,0.0,0.0,0.0,0.0,0.0,0.0,0.0,0.0,0.0,0.0,0.0,0.0,0.0,0.0,0.0,0.0,0.0,0.0,0.0,0.0,0.0,0.0,0.0,0.0,0.0,0.0,0.0,0.0,0.0,0.0,0.0,0.0,0.0,0.0,0.0,0.0,0.0,0.0,0.0,0.0,0.0,0.0,0.0,0.0,0.0,0.0,0.0,0.0,0.0,0.0,0.0,0.0,0.0,0.0,0.0,0.0,0.0,0.0,0.0,0.0,0.0,0.0,0.0,0.0,0.0,0.0,0.0,0.0,0.0,0.0,0.0,0.0,0.0,0.0,0.0,0.0,0.0,0.0,0.0,0.0,0.0,0.0,0.0,0.0,0.0,0.0,0.0,0.0,0.0,0.0,0.0,0.0,0.0,0.0,0.0,0.0,0.0,0.0,0.0,0.0,0.0,0.0,0.0,0.0,0.0,0.0,0.0,0.0,0.0,0.0,0.0,0.0,0.0,0.0,0.0,0.0,0.0,0.0,0.0,0.0,0.0,0.0,0.0,0.0,0.0,0.0,0.0,0.0,0.0,0.0,0.0,0.0,0.0,0.0,0.0,0.0,0.0,0.0,0.0,0.0,0.0,0.0,0.0,0.0,0.0,0.0,0.0,0.0,0.0,0.0,0.0,0.0,0.0,0.0,0.0,0.0,0.0,0.0,0.0,0.0,0.0,0.0,0.0,0.0,0.0,0.0,0.0,0.0,0.0,0.0,0.0,0.0,0.0,0.0,0.0,0.0,0.0,0.0,0.0,0.0,0.0,0.0,0.0,0.0,0.0,0.0,0.0,0.0,0.0,0.0,0.0,0.0,0.0,0.0,0.0,0.0,0.0,0.0,0.0,0.0,0.0,0.0,0.0,0.0,0.0,0.0,0.0,0.0,0.0,0.0,0.0,0.0,0.0,0.0,0.0,0.0,0.0,0.0,0.0,0.0,0.0,0.0,0.0,0.0,0.0,0.0,0.0,0.0,0.0,0.0,0.0,0.0,0.0,0.0,0.0,0.0,0.0,0.0,0.0,0.0,0.0,0.0,0.0,0.0,0.0,0.0,0.0,0.0,0.0,0.0,0.0,0.0,0.0,0.0,0.0,0.0,0.0,0.0,0.0,0.0,0.0,0.0,0.0,0.0,0.0,0.0,0.0,0.0,0.0,0.0,0.0,0.0,0.0,0.0,0.0,0.0,0.0,0.0,0.0,0.0,0.0,0.0,0.0,0.0,0.0,0.0,0.0,0.0,0.0,0.0,0.0,0.0,0.0,0.0,0.0,0.0,0.0,0.0,0.0,0.0,0.0,0.0,0.0,0.0,0.0,0.0,0.0,0.0,0.0,0.0,0.0,0.0,0.0,0.0,0.0,0.0,0.0,0.0,0.0,0.0,0.0,0.0,0.0,0.0,0.0,0.0,0.0,0.0,0.0,0.0,0.0,0.0,0.0,0.0,0.0,0.0,0.0,0.0,0.0,0.0,0.0,0.0,0.0,0.0,0.0,0.0,0.0,0.0,0.0,0.0,0.0,0.0,0.0,0.0,0.0,0.0,0.0,0.0,0.0,0.0,0.0,0.0,0.0,0.0,0.0,0.0,0.0,0.0,0.0,0.0,0.0,0.0,0.0,0.0,0.0,0.0,0.0,0.0,0.0,0.0,0.0,0.0,0.0,0.0,0.0,0.0,0.0,0.0,0.0,0.0,0.0,0.0,0.0,0.0,0.0,0.0,0.0,0.0,0.0,0.0,0.0,0.0,0.0,0.0,0.0,0.0,0.0,0.0,0.0,0.0,0.0,0.0,0.0,0.0,0.0,0.0,0.0,0.0,0.0,0.0,0.0,0.0,0.0,0.0,0.0,0.0,0.0,0.0,0.0,0.0,0.0,0.0,0.0,0.0,0.0,0.0,0.0,0.0,0.0,0.0,0.0,0.0,0.0,0.0,0.0,0.0,0.0,0.0,0.0,0.0,0.0,0.0,0.0,0.0,0.0,0.0,0.0,0.0,0.0,0.0,0.0,0.0,0.0,0.0,0.0,0.0,0.0,0.0,0.0,0.0,0.0,0.0,0.0,0.0,0.0,0.0,0.0,0.0,0.0,0.0,0.0,0.0,0.0,0.0,0.0,0.0,0.0,0.0,0.0,0.0,0.0,0.0,0.0,0.0,0.0,0.0,0.0,0.0,0.0,0.0,0.0,0.0,0.0,0.0,0.0,0.0,0.0,0.0,0.0,0.0,0.0,0.0,0.0,0.0,0.0,0.0,0.0,0.0,0.0,0.0,0.0,0.0,0.0,0.0,0.0,0.0,0.0,0.0,0.0,0.0,0.0,0.0,0.0,0.0,0.0,0.0,0.0,0.0,0.0,0.0,0.0,0.0,0.0,0.0,0.0,0.0,0.0,0.0,0.0,0.0,0.0,0.0,0.0,0.0,0.0,0.0,0.0,0.0,0.0,0.0,0.0,0.0,0.0,0.0,0.0,0.0,0.0,0.0,0.0,0.0,0.0,0.0,0.0,0.0,0.0,0.0,0.0,0.0,0.0,0.0,0.0,0.0,0.0,0.0,0.0,0.0,0.0,0.0,0.0,0.0,0.0,0.0,0.0,0.0,0.0,0.0,0.0,0.0,0.0,0.0,0.0,0.0,0.0,0.0,0.0,0.0,0.0,0.0,0.0,0.0,0.0,0.0,0.0,0.0,0.0,0.0,0.0,0.0,0.0,0.0,0.0,0.0,0.0,0.0,0.0,0.0,0.0,0.0,0.0,0.0,0.0,0.0,0.0,0.0,0.0,0.0,0.0,0.0,0.0,0.0,0.0,0.0,0.0,0.0,0.0,0.0,0.0,0.0,0.0,0.0,0.0,0.0,0.0,0.0,0.0,0.0,0.0,0.0,0.0,0.0,0.0,0.0,0.0,0.0,0.0,0.0,0.0,0.0,0.0,0.0,0.0,0.0,0.0,0.0,0.0,0.0,0.0,0.0,0.0,0.0,0.0,0.0,0.0,0.0,0.0,0.0,0.0,0.0,0.0,0.0,0.0,0.0,0.0,0.0,0.0,0.0,0.0,0.0,0.0,0.0,0.0,0.0,0.0,0.0,0.0,0.0,0.0,0.0,0.0,0.0,0.0,0.0,0.0,0.0,0.0,0.0,0.0,0.0,0.0,0.0,0.0,0.0,0.0,0.0,0.0,0.0,0.0,0.0,0.0,0.0,0.0,0.0,0.0,0.0,0.0,0.0,0.0,0.0,0.0,0.0,0.0,0.0,0.0,0.0,0.0,0.0,0.0,0.0,0.0,0.0,0.0,0.0,0.0,0.0,0.0,0.0,0.0,0.0,0.0,0.0,0.0,0.0,0.0,0.0,0.0,0.0,0.0,0.0,0.0,0.0,0.0,0.0,0.0,0.0,0.0,0.0,0.0,0.0,0.0,0.0,0.0,0.0,0.0,0.0,0.0,0.0,0.0,0.0,0.0,0.0,0.0,0.0,0.0,0.0,0.0,0.0,0.0,0.0,0.0,0.0,0.0,0.0,0.0,0.0,0.0,0.0,0.0,0.0,0.0,0.0,0.0,0.0,0.0,0.0,0.0,0.0,0.0,0.0,0.0,0.0,0.0,0.0,0.0,0.0,0.0,0.0,0.0,0.0,0.0,0.0,0.0,0.0,0.0,0.0,0.0,0.0,0.0,0.0,0.0,0.0,0.0,0.0,0.0,0.0,0.0,0.0,0.0,0.0,0.0,0.0,0.0,0.0,0.0,0.0,0.0,0.0,0.0,0.0,0.0,0.0,0.0,0.0,0.0,0.0,0.0,0.0,0.0,0.0,0.0,0.0,0.0,0.0,0.0,0.0,0.0,0.0,0.0,0.0,0.0,0.0,0.0,0.0,0.0,0.0,0.0,0.0,0.0,0.0,0.0,0.0,0.0,0.0,0.0,0.0,0.0,0.0,0.0,0.0,0.0,0.0,0.0,0.0,0.0,0.0,0.0,0.0,0.0,0.0,0.0,0.0,0.0,0.0,0.0,0.0,0.0,0.0,0.0,0.0,0.0,0.0,0.0,0.0,0.0,0.0,0.0,0.0,0.0,0.0,0.0,0.0,0.0,0.0,0.0,0.0,0.0,0.0,0.0,0.0,0.0,0.0,0.0,0.0,0.0,0.0,0.0,0.0,0.0,0.0,0.0,0.0,0.0,0.0,0.0,0.0,0.0,-1.6728,0.0,0.0,0.0,0.0,0.0,0.0,0.0,0.0,0.0,0.0,0.0,0.0,0.0,0.0,0.0,0.0,0.0,0.0,0.0,0.0,0.0,0.0,0.0,0.0,0.0,0.0,0.0,0.0,0.0,0.0,0.0,0.0,0.0,0.0,0.0,0.0,0.0,0.0,0.0,0.0,0.0,0.0,0.0,0.0,0.0,0.0,0.0,0.0,0.0,0.0,0.0,0.0,0.0,0.0,0.0,0.0,0.0,0.0,0.0,0.0,0.0,0.0,0.0,0.0,0.0,0.0,0.0,0.0,0.0,0.0,0.0,0.0,0.0,0.0,0.0,0.0,0.0,0.0,0.0,0.0,0.0,0.0,0.0,0.0,0.0,0.0,0.0,0.0,0.0,0.0,0.0,0.0,0.0,0.0,0.0,0.0,0.0,0.0,0.0,0.0,0.0,0.0,0.0,0.0,0.0,0.0,0.0,0.0,0.0,0.0,-1.9062,-1.8603,-1.8193,-1.7588,-1.6728,0.0,0.0,0.0,0.0,0.0,0.0,0.0,0.0,0.0,0.0,0.0,0.0,0.0,0.0,0.0,0.0,0.0,0.0,0.0,0.0,0.0,0.0,0.0,0.0,0.0,0.0,0.0,0.0,0.0,0.0,0.0,0.0,0.0,0.0,0.0,0.0,0.0,0.0,0.0,0.0,0.0,0.0,0.0,0.0,0.0,0.0,0.0,0.0,0.0,0.0,0.0,0.0,0.0,0.0,0.0,0.0,0.0,0.0,0.0,0.0,0.0,0.0,0.0,0.0,0.0,0.0,0.0,0.0,0.0,0.0,0.0,0.0,0.0,0.0,0.0,0.0,0.0,0.0,0.0,0.0,0.0,0.0,0.0,0.0,0.0,0.0,0.0,0.0,0.0,0.0,0.0,0.0,0.0,0.0,0.0,0.0,0.0,0.0,0.0,0.0,0.0,0.0,0.0,0.0,0.0,0.0,0.0,0.0,0.0,0.0,0.0,0.0,-1.8096,-1.7578,-1.6738,0.0,0.0,0.0,0.0,0.0,0.0,0.0,0.0,0.0,0.0,0.0,0.0,0.0,0.0,0.0,0.0,0.0,0.0,0.0,0.0,0.0,0.0,0.0,0.0,0.0,0.0,0.0,0.0,0.0,0.0,0.0,0.0,0.0,0.0,0.0,0.0,0.0,0.0,0.0,0.0,0.0,0.0,0.0,0.0,0.0,0.0,0.0,0.0,0.0,0.0,0.0,0.0,0.0,0.0,0.0,0.0,0.0,0.0,0.0,0.0,0.0,0.0,0.0,0.0,0.0,0.0,0.0,0.0,0.0,0.0,0.0,0.0,0.0,0.0,0.0,0.0,0.0,0.0,0.0,0.0,0.0,0.0,0.0,0.0,0.0,0.0,0.0,0.0,0.0,0.0,0.0,0.0,0.0,0.0,0.0,0.0,0.0,0.0,0.0,0.0,0.0,0.0,0.0,0.0,0.0,0.0,0.0,0.0,0.0,0.0,-1.7646,-1.9111,-1.8398,0.0,-1.6758,0.0,0.0,0.0,0.0,0.0,0.0,0.0,0.0,0.0,0.0,0.0,0.0,0.0,0.0,0.0,0.0,0.0,0.0,0.0,0.0,0.0,0.0,0.0,0.0,0.0,0.0,0.0,0.0,0.0,0.0,0.0,0.0,0.0,0.0,0.0,0.0,0.0,0.0,0.0,0.0,0.0,0.0,0.0,0.0,0.0,0.0,0.0,0.0,0.0,0.0,0.0,0.0,0.0,0.0,0.0,0.0,0.0,0.0,0.0,0.0,0.0,0.0,0.0,0.0,0.0,0.0,0.0,0.0,0.0,0.0,0.0,0.0,0.0,0.0,0.0,0.0,0.0,0.0,0.0,0.0,0.0,0.0,0.0,0.0,0.0,0.0,0.0,0.0,0.0,0.0,0.0,0.0,0.0,0.0,0.0,0.0,0.0,0.0,0.0,0.0,0.0,0.0,0.0,0.0,0.0,0.0,0.0,0.0,0.0,0.0,-1.7568,-1.7764,-1.7422,-1.6826,0.0,0.0,0.0,0.0,0.0,0.0,0.0,0.0,0.0,0.0,0.0,0.0,0.0,0.0,0.0,0.0,0.0,0.0,0.0,0.0,0.0,0.0,0.0,0.0,0.0,0.0,0.0,0.0,0.0,0.0,0.0,0.0,0.0,0.0,0.0,0.0,0.0,0.0,0.0,0.0,0.0,0.0,0.0,0.0,0.0,0.0,0.0,0.0,0.0,0.0,0.0,0.0,0.0,0.0,0.0,0.0,0.0,0.0,0.0,0.0,0.0,0.0,0.0,0.0,0.0,0.0,0.0,0.0,0.0,0.0,0.0,0.0,0.0,0.0,0.0,0.0,0.0,0.0,0.0,0.0,0.0,0.0,0.0,0.0,0.0,0.0,0.0,0.0,0.0,0.0,0.0,0.0,0.0,0.0,0.0,0.0,0.0,0.0,0.0,0.0,0.0,0.0,0.0,0.0,0.0,0.0,0.0,0.0,0.0,0.0,-1.7096,-1.7422,-1.7051,-1.7051,-1.6543,-1.5449,0.0,0.0,0.0,0.0,0.0,0.0,0.0,0.0,0.0,0.0,0.0,0.0,0.0,0.0,0.0,0.0,0.0,0.0,0.0,0.0,0.0,0.0,0.0,0.0,0.0,0.0,0.0,0.0,0.0,0.0,0.0,0.0,0.0,0.0,0.0,0.0,0.0,0.0,0.0,0.0,0.0,0.0,0.0,0.0,0.0,0.0,0.0,0.0,0.0,0.0,0.0,0.0,0.0,0.0,0.0,0.0,0.0,0.0,0.0,0.0,0.0,0.0,0.0,0.0,0.0,0.0,0.0,0.0,0.0,0.0,0.0,0.0,0.0,0.0,0.0,0.0,0.0,0.0,0.0,0.0,0.0,0.0,0.0,0.0,0.0,0.0,0.0,0.0,0.0,0.0,0.0,0.0,0.0,0.0,0.0,0.0,0.0,0.0,0.0,0.0,0.0,0.0,0.0,0.0,0.0,0.0,0.0,0.0,-1.7641,-1.7038,-1.7041,-1.7832,-1.792,-1.7139,0.0,0.0,0.0,0.0,0.0,0.0,0.0,0.0,0.0,0.0,0.0,0.0,0.0,0.0,0.0,0.0,0.0,0.0,0.0,0.0,0.0,0.0,0.0,0.0,0.0,0.0,0.0,0.0,0.0,0.0,0.0,0.0,0.0,0.0,0.0,0.0,0.0,0.0,0.0,0.0,0.0,0.0,0.0,0.0,0.0,0.0,0.0,0.0,0.0,0.0,0.0,0.0,0.0,0.0,0.0,0.0,0.0,0.0,0.0,0.0,0.0,0.0,0.0,0.0,0.0,0.0,0.0,0.0,0.0,0.0,0.0,0.0,0.0,0.0,0.0,0.0,0.0,0.0,0.0,0.0,0.0,0.0,0.0,0.0,0.0,0.0,0.0,0.0,0.0,0.0,0.0,0.0,0.0,0.0,0.0,0.0,0.0,0.0,0.0,0.0,0.0,0.0,0.0,0.0,0.0,0.0,0.0,0.0,0.0,-1.6203,-1.6513,-1.7329,-1.8643,-1.7725,-1.6602,0.0,0.0,0.0,0.0,0.0,0.0,0.0,0.0,0.0,0.0,0.0,0.0,0.0,0.0,0.0,0.0,0.0,0.0,0.0,0.0,0.0,0.0,0.0,0.0,0.0,0.0,0.0,0.0,0.0,0.0,0.0,0.0,0.0,0.0,0.0,0.0,0.0,0.0,0.0,0.0,0.0,0.0,0.0,0.0,0.0,0.0,0.0,0.0,0.0,0.0,0.0,0.0,0.0,0.0,0.0,0.0,0.0,0.0,0.0,0.0,0.0,0.0,0.0,0.0,0.0,0.0,0.0,0.0,0.0,0.0,0.0,0.0,0.0,0.0,0.0,0.0,0.0,0.0,0.0,0.0,0.0,0.0,0.0,0.0,0.0,0.0,0.0,0.0,0.0,0.0,0.0,0.0,0.0,0.0,0.0,0.0,0.0,0.0,0.0,0.0,0.0,0.0,0.0,0.0,0.0,0.0,0.0,0.0,0.0,-1.6146,0.0,-1.7921,0.0,-1.7705,-1.6465,0.0,0.0,0.0,0.0,0.0,0.0,0.0,0.0,0.0,0.0,0.0,0.0,0.0,0.0,0.0,0.0,0.0,0.0,0.0,0.0,0.0,0.0,0.0,0.0,0.0,0.0,0.0,0.0,0.0,0.0,0.0,0.0,0.0,0.0,0.0,0.0,0.0,0.0,0.0,0.0,0.0,0.0,0.0,0.0,0.0,0.0,0.0,0.0,0.0,0.0,0.0,0.0,0.0,0.0,0.0,0.0,0.0,0.0,0.0,0.0,0.0,0.0,0.0,0.0,0.0,0.0,0.0,0.0,0.0,0.0,0.0,0.0,0.0,0.0,0.0,0.0,0.0,0.0,0.0,0.0,0.0,0.0,0.0,0.0,0.0,0.0,0.0,0.0,0.0,0.0,0.0,0.0,0.0,0.0,0.0,0.0,0.0,0.0,0.0,0.0,0.0,0.0,0.0,0.0,0.0,0.0,0.0,0.0,-1.6235,-1.7785,-1.8665,-1.8707,-1.7959,-1.793,-1.6758,0.0,0.0,0.0,0.0,0.0,0.0,0.0,0.0,0.0,0.0,0.0,0.0,0.0,0.0,0.0,0.0,0.0,0.0,0.0,0.0,0.0,0.0,0.0,0.0,0.0,0.0,0.0,0.0,0.0,0.0,0.0,0.0,0.0,0.0,0.0,0.0,0.0,0.0,0.0,0.0,0.0,0.0,0.0,0.0,0.0,0.0,0.0,0.0,0.0,0.0,0.0,0.0,0.0,0.0,0.0,0.0,0.0,0.0,0.0,0.0,0.0,0.0,0.0,0.0,0.0,0.0,0.0,0.0,0.0,0.0,0.0,0.0,0.0,0.0,0.0,0.0,0.0,0.0,0.0,0.0,0.0,0.0,0.0,0.0,0.0,0.0,0.0,0.0,0.0,0.0,0.0,0.0,0.0,0.0,0.0,0.0,0.0,0.0,0.0,0.0,0.0,0.0,0.0,0.0,0.0,0.0,0.0,0.0,0.0,-1.7024,-1.7857,-1.8454,-1.8746,-1.7685,-1.6709,0.0,0.0,0.0,0.0,0.0,0.0,0.0,0.0,0.0,0.0,0.0,0.0,0.0,0.0,0.0,0.0,0.0,0.0,0.0,0.0,0.0,0.0,0.0,0.0,0.0,0.0,0.0,0.0,0.0,0.0,0.0,0.0,0.0,0.0,0.0,0.0,0.0,0.0,0.0,0.0,0.0,0.0,0.0,0.0,0.0,0.0,0.0,0.0,0.0,0.0,0.0,0.0,0.0,0.0,0.0,0.0,0.0,0.0,0.0,0.0,0.0,0.0,0.0,0.0,0.0,0.0,0.0,0.0,0.0,0.0,0.0,0.0,0.0,0.0,0.0,0.0,0.0,0.0,0.0,0.0,0.0,0.0,0.0,0.0,0.0,0.0,0.0,0.0,0.0,0.0,0.0,0.0,0.0,0.0,0.0,0.0,0.0,0.0,0.0,0.0,0.0,0.0,0.0,0.0,0.0,0.0,0.0,0.0,0.0,-1.7655,-1.8454,-1.8998,-1.9221,-1.8218,-1.7339,-1.665,0.0,0.0,0.0,0.0,0.0,0.0,0.0,0.0,0.0,0.0,0.0,0.0,0.0,0.0,0.0,0.0,0.0,0.0,0.0,0.0,0.0,0.0,0.0,0.0,0.0,0.0,0.0,0.0,0.0,0.0,0.0,0.0,0.0,0.0,0.0,0.0,0.0,0.0,0.0,0.0,0.0,0.0,0.0,0.0,0.0,0.0,0.0,0.0,0.0,0.0,0.0,0.0,0.0,0.0,0.0,0.0,0.0,0.0,0.0,0.0,0.0,0.0,0.0,0.0,0.0,0.0,0.0,0.0,0.0,0.0,0.0,0.0,0.0,0.0,0.0,0.0,0.0,0.0,0.0,0.0,0.0,0.0,0.0,0.0,0.0,0.0,0.0,0.0,0.0,0.0,0.0,0.0,0.0,0.0,0.0,0.0,0.0,0.0,0.0,0.0,0.0,0.0,0.0,0.0,0.0,0.0,0.0,0.0,-1.9277,-2.0157,-2.0185,-1.9414,-1.9313,-1.8508,0.0,0.0,0.0,0.0,0.0,0.0,0.0,0.0,0.0,0.0,0.0,0.0,0.0,0.0,0.0,0.0,0.0,0.0,0.0,0.0,0.0,0.0,0.0,0.0,0.0,0.0,0.0,0.0,0.0,0.0,0.0,0.0,0.0,0.0,0.0,0.0,0.0,0.0,0.0,0.0,0.0,0.0,0.0,0.0,0.0,0.0,0.0,0.0,0.0,0.0,0.0,0.0,0.0,0.0,0.0,0.0,0.0,0.0,0.0,0.0,0.0,0.0,0.0,0.0,0.0,0.0,0.0,0.0,0.0,0.0,0.0,0.0,0.0,0.0,0.0,0.0,0.0,0.0,0.0,0.0,0.0,0.0,0.0,0.0,0.0,0.0,0.0,0.0,0.0,0.0,0.0,0.0,0.0,0.0,0.0,0.0,0.0,0.0,0.0,0.0,0.0,0.0,0.0,0.0,0.0,0.0,0.0,0.0,0.0,-1.9314,-2.0145,-2.0469,-2.0176,-1.961,-1.877,0.0,0.0,0.0,0.0,0.0,0.0,0.0,0.0,0.0,0.0,0.0,0.0,0.0,0.0,0.0,0.0,0.0,0.0,0.0,0.0,0.0,0.0,0.0,0.0,0.0,0.0,0.0,0.0,0.0,0.0,0.0,0.0,0.0,0.0,0.0,0.0,0.0,0.0,0.0,0.0,0.0,0.0,0.0,0.0,0.0,0.0,0.0,0.0,0.0,0.0,0.0,0.0,0.0,0.0,0.0,0.0,0.0,0.0,0.0,0.0,0.0,0.0,0.0,0.0,0.0,0.0,0.0,0.0,0.0,0.0,0.0,0.0,0.0,0.0,0.0,0.0,0.0,0.0,0.0,0.0,0.0,0.0,0.0,0.0,0.0,0.0,0.0,0.0,0.0,0.0,0.0,0.0,0.0,0.0,0.0,0.0,0.0,0.0,0.0,0.0,0.0,0.0,0.0,0.0,0.0,0.0,0.0,0.0,-1.9473,-1.9844,-2.0352,-2.057,-2.0503,-2.0071,-1.9247,0.0,0.0,0.0,0.0,0.0,0.0,0.0,0.0,0.0,0.0,0.0,0.0,0.0,0.0,0.0,0.0,0.0,0.0,0.0,0.0,0.0,0.0,0.0,0.0,0.0,0.0,0.0,0.0,0.0,0.0,0.0,0.0,0.0,0.0,0.0,0.0,0.0,0.0,0.0,0.0,0.0,0.0,0.0,0.0,0.0,0.0,0.0,0.0,0.0,0.0,0.0,0.0,0.0,0.0,0.0,0.0,0.0,0.0,0.0,0.0,0.0,0.0,0.0,0.0,0.0,0.0,0.0,0.0,0.0,0.0,0.0,0.0,0.0,0.0,0.0,0.0,0.0,0.0,0.0,0.0,0.0,0.0,0.0,0.0,0.0,0.0,0.0,0.0,0.0,0.0,0.0,0.0,0.0,0.0,0.0,0.0,0.0,0.0,0.0,0.0,0.0,0.0,0.0,0.0,0.0,0.0,0.0,0.0,-1.9814,-2.0576,-2.0595,-2.0567,-2.0506,-2.0555,-1.9812,0.0,0.0,0.0,0.0,0.0,0.0,0.0,0.0,0.0,0.0,0.0,0.0,0.0,0.0,0.0,0.0,0.0,0.0,0.0,0.0,0.0,0.0,0.0,0.0,0.0,0.0,0.0,0.0,0.0,0.0,0.0,0.0,0.0,0.0,0.0,0.0,0.0,0.0,0.0,0.0,0.0,0.0,0.0,0.0,0.0,0.0,0.0,0.0,0.0,0.0,0.0,0.0,0.0,0.0,0.0,0.0,0.0,0.0,0.0,0.0,0.0,0.0,0.0,0.0,0.0,0.0,0.0,0.0,0.0,0.0,0.0,0.0,0.0,0.0,0.0,0.0,0.0,0.0,0.0,0.0,0.0,0.0,0.0,0.0,0.0,0.0,0.0,0.0,0.0,0.0,0.0,0.0,0.0,0.0,0.0,0.0,0.0,0.0,0.0,0.0,0.0,0.0,0.0,0.0,0.0,0.0,0.0,0.0,-2.0389,-2.051,-2.0504,-2.0497,-2.0425,-2.0479,-2.0002,0.0,0.0,0.0,0.0,0.0,0.0,0.0,0.0,0.0,0.0,0.0,0.0,0.0,0.0,0.0,0.0,0.0,0.0,0.0,0.0,0.0,0.0,0.0,0.0,0.0,0.0,0.0,0.0,0.0,0.0,0.0,0.0,0.0,0.0,0.0,0.0,0.0,0.0,0.0,0.0,0.0,0.0,0.0,0.0,0.0,0.0,0.0,0.0,-1.2449,0.0,0.0,0.0,0.0,0.0,0.0,0.0,0.0,0.0,0.0,0.0,0.0,0.0,0.0,0.0,0.0,0.0,0.0,0.0,0.0,0.0,0.0,0.0,0.0,0.0,0.0,0.0,0.0,0.0,0.0,0.0,0.0,0.0,0.0,0.0,0.0,0.0,0.0,0.0,0.0,0.0,0.0,0.0,0.0,0.0,0.0,0.0,0.0,0.0,0.0,0.0,0.0,0.0,0.0,0.0,0.0,0.0,0.0,0.0,-2.0516,-2.0458,-2.0443,-2.0419,-2.0357,-2.0383,-1.9817,0.0,0.0,0.0,0.0,0.0,0.0,0.0,0.0,0.0,0.0,0.0,0.0,0.0,0.0,0.0,0.0,0.0,0.0,0.0,0.0,0.0,0.0,0.0,0.0,0.0,0.0,0.0,0.0,0.0,0.0,0.0,0.0,0.0,0.0,0.0,0.0,0.0,0.0,0.0,0.0,0.0,0.0,0.0,0.0,0.0,0.0,0.0,0.0,0.0,0.0,0.0,0.0,0.0,0.0,0.0,0.0,0.0,0.0,0.0,0.0,0.0,0.0,0.0,0.0,0.0,0.0,0.0,0.0,0.0,0.0,0.0,0.0,0.0,0.0,0.0,0.0,0.0,0.0,0.0,0.0,0.0,0.0,0.0,0.0,0.0,0.0,0.0,0.0,0.0,0.0,0.0,0.0,0.0,0.0,0.0,0.0,0.0,0.0,0.0,0.0,0.0,0.0,0.0,0.0,0.0,0.0,0.0,-1.9558,-2.0327,-2.0381,-2.0389,-2.036,-2.0302,-2.0302,-1.9525,-1.7922,0.0,0.0,0.0,0.0,0.0,0.0,0.0,0.0,0.0,0.0,0.0,0.0,0.0,0.0,0.0,0.0,0.0,0.0,0.0,0.0,0.0,0.0,0.0,0.0,0.0,0.0,0.0,0.0,0.0,0.0,0.0,0.0,0.0,0.0,0.0,0.0,0.0,0.0,-1.336,-1.4161,0.0,0.0,0.0,0.0,0.0,0.0,0.0,0.0,-1.4718,0.0,0.0,0.0,0.0,0.0,0.0,0.0,0.0,0.0,0.0,0.0,0.0,0.0,0.0,0.0,0.0,0.0,0.0,0.0,0.0,0.0,0.0,0.0,0.0,0.0,0.0,0.0,0.0,0.0,0.0,0.0,0.0,0.0,0.0,0.0,0.0,0.0,0.0,0.0,0.0,0.0,0.0,0.0,0.0,0.0,0.0,0.0,0.0,0.0,0.0,0.0,0.0,0.0,0.0,0.0,0.0,-1.8949,-1.9273,-1.9715,-2.0309,-2.0317,-2.0312,-2.0302,-2.0302,-1.9483,-1.7772,0.0,0.0,0.0,0.0,0.0,0.0,0.0,0.0,0.0,0.0,0.0,0.0,0.0,0.0,0.0,0.0,0.0,0.0,0.0,0.0,0.0,0.0,0.0,0.0,0.0,0.0,0.0,0.0,0.0,0.0,0.0,0.0,0.0,0.0,0.0,0.0,0.0,0.0,0.0,-1.3387,-1.3769,0.0,0.0,0.0,0.0,0.0,0.0,0.0,0.0,-1.5147,0.0,0.0,0.0,0.0,0.0,0.0,0.0,0.0,0.0,0.0,0.0,0.0,0.0,0.0,0.0,0.0,0.0,0.0,0.0,0.0,0.0,0.0,0.0,0.0,0.0,0.0,0.0,0.0,0.0,0.0,0.0,0.0,0.0,0.0,0.0,0.0,0.0,0.0,0.0,0.0,0.0,0.0,0.0,0.0,0.0,0.0,0.0,0.0,0.0,0.0,0.0,0.0,0.0,0.0,0.0,-1.848,-1.9327,-1.994,-2.0285,-2.0302,-2.0302,-2.0275,-1.9788,-1.8937,0.0,0.0,0.0,0.0,0.0,0.0,0.0,0.0,0.0,0.0,0.0,0.0,0.0,0.0,0.0,0.0,0.0,0.0,0.0,0.0,0.0,0.0,0.0,0.0,0.0,0.0,0.0,0.0,0.0,0.0,0.0,0.0,0.0,0.0,0.0,0.0,0.0,0.0,0.0,0.0,-1.3443,-1.3877,-1.4276,0.0,0.0,0.0,0.0,0.0,0.0,-1.5165,-1.5195,0.0,0.0,0.0,0.0,0.0,0.0,0.0,0.0,0.0,0.0,0.0,0.0,0.0,0.0,0.0,0.0,0.0,0.0,0.0,0.0,0.0,0.0,0.0,0.0,0.0,0.0,0.0,0.0,0.0,0.0,0.0,0.0,0.0,0.0,0.0,0.0,0.0,0.0,0.0,0.0,0.0,0.0,0.0,0.0,0.0,0.0,0.0,0.0,0.0,0.0,0.0,0.0,0.0,0.0,0.0,-1.7862,-1.9302,-2.0139,-2.0285,-2.0302,-2.0302,-2.0285,-1.9521,-1.8649,0.0,0.0,0.0,0.0,0.0,0.0,0.0,0.0,0.0,0.0,0.0,0.0,0.0,0.0,0.0,0.0,0.0,0.0,0.0,0.0,0.0,0.0,0.0,0.0,0.0,0.0,0.0,0.0,0.0,0.0,0.0,0.0,0.0,0.0,0.0,0.0,0.0,0.0,0.0,0.0,0.0,-1.4109,-1.402,-1.4145,0.0,0.0,0.0,0.0,-1.4988,-1.5111,0.0,0.0,0.0,0.0,0.0,0.0,0.0,0.0,0.0,0.0,0.0,0.0,0.0,0.0,0.0,0.0,0.0,0.0,0.0,0.0,0.0,0.0,0.0,0.0,0.0,0.0,0.0,0.0,0.0,0.0,0.0,0.0,0.0,0.0,0.0,0.0,0.0,0.0,0.0,0.0,0.0,0.0,0.0,0.0,0.0,0.0,0.0,0.0,0.0,0.0,0.0,0.0,0.0,0.0,0.0,0.0,-1.7886,-1.8777,-1.9579,-2.0254,-2.0302,-2.0302,-2.0302,-2.0179,-1.9331,0.0,0.0,0.0,0.0,0.0,0.0,0.0,0.0,0.0,0.0,0.0,0.0,0.0,0.0,0.0,0.0,0.0,0.0,0.0,0.0,0.0,0.0,0.0,0.0,0.0,0.0,0.0,0.0,0.0,0.0,0.0,0.0,0.0,0.0,0.0,0.0,0.0,0.0,0.0,0.0,0.0,-1.3869,-1.3689,-1.3691,-1.3869,0.0,0.0,-1.4738,-1.4966,-1.5111,0.0,0.0,0.0,0.0,0.0,0.0,0.0,0.0,0.0,0.0,0.0,0.0,0.0,0.0,0.0,0.0,0.0,0.0,0.0,0.0,0.0,0.0,0.0,0.0,0.0,0.0,0.0,0.0,0.0,0.0,0.0,0.0,0.0,0.0,0.0,0.0,0.0,0.0,0.0,0.0,0.0,0.0,0.0,0.0,0.0,0.0,0.0,0.0,0.0,0.0,0.0,0.0,0.0,0.0,0.0,-1.7542,-1.7923,-1.9138,-1.996,-2.0273,-2.0302,-2.0302,-2.0292,-1.9304,-1.8414,0.0,0.0,0.0,0.0,0.0,0.0,0.0,0.0,0.0,0.0,0.0,0.0,0.0,0.0,0.0,0.0,0.0,0.0,0.0,0.0,0.0,0.0,0.0,0.0,0.0,0.0,0.0,0.0,0.0,0.0,0.0,0.0,0.0,0.0,0.0,0.0,0.0,0.0,0.0,0.0,0.0,0.0,-1.4383,-1.4484,0.0,0.0,0.0,-1.4858,-1.5424,0.0,0.0,0.0,0.0,0.0,0.0,0.0,0.0,0.0,0.0,0.0,0.0,0.0,0.0,0.0,0.0,0.0,0.0,0.0,0.0,0.0,0.0,0.0,0.0,0.0,0.0,0.0,0.0,0.0,0.0,0.0,0.0,0.0,0.0,0.0,0.0,0.0,0.0,0.0,0.0,0.0,0.0,0.0,0.0,0.0,0.0,0.0,0.0,0.0,0.0,0.0,0.0,0.0,0.0,0.0,0.0,0.0,-1.7949,-1.9513,-2.0332,-2.0329,-2.0302,-2.0302,-2.0264,-1.8773,0.0,0.0,0.0,0.0,0.0,0.0,0.0,0.0,0.0,0.0,0.0,0.0,0.0,0.0,0.0,0.0,0.0,0.0,0.0,0.0,0.0,0.0,0.0,0.0,0.0,0.0,0.0,-1.0104,0.0,0.0,0.0,0.0,0.0,0.0,0.0,0.0,0.0,0.0,0.0,0.0,0.0,0.0,-1.5806,-1.5384,-1.5377,-1.5419,0.0,0.0,-1.4896,-1.5702,-1.5309,-1.4893,0.0,0.0,0.0,0.0,0.0,0.0,0.0,0.0,0.0,0.0,0.0,0.0,0.0,0.0,0.0,0.0,0.0,0.0,0.0,0.0,0.0,0.0,0.0,0.0,0.0,0.0,0.0,0.0,0.0,0.0,0.0,0.0,0.0,0.0,0.0,0.0,0.0,0.0,0.0,0.0,0.0,0.0,0.0,0.0,0.0,0.0,0.0,0.0,0.0,0.0,0.0,0.0,0.0,0.0,-1.7197,-1.8018,-1.9573,-2.0395,-2.0387,-2.0331,-2.0302,-2.0283,-1.9403,-1.848,0.0,0.0,0.0,0.0,0.0,0.0,0.0,0.0,0.0,0.0,0.0,0.0,0.0,0.0,0.0,0.0,0.0,0.0,0.0,0.0,0.0,0.0,0.0,0.0,0.0,0.0,0.0,0.0,0.0,0.0,0.0,0.0,0.0,0.0,0.0,0.0,0.0,0.0,0.0,0.0,0.0,-1.6889,-1.6542,-1.5869,-1.566,0.0,-1.5317,-1.4697,-1.5502,-1.523,-1.4831,-1.4662,0.0,0.0,0.0,0.0,0.0,0.0,0.0,0.0,0.0,0.0,0.0,0.0,0.0,0.0,0.0,0.0,0.0,0.0,0.0,0.0,0.0,0.0,0.0,0.0,0.0,0.0,0.0,0.0,0.0,0.0,0.0,0.0,0.0,0.0,0.0,0.0,0.0,0.0,0.0,0.0,0.0,0.0,0.0,0.0,0.0,0.0,0.0,0.0,0.0,0.0,0.0,0.0,0.0,-1.7666,-1.8018,-1.9633,-2.0445,-2.0394,-2.0331,-2.0302,-2.0302,-1.8936,-1.8016,0.0,0.0,0.0,0.0,0.0,0.0,0.0,0.0,0.0,0.0,0.0,0.0,0.0,0.0,0.0,0.0,0.0,0.0,0.0,0.0,0.0,0.0,0.0,0.0,0.0,0.0,0.0,0.0,-1.0955,-1.1123,-1.1535,0.0,0.0,0.0,0.0,0.0,0.0,0.0,0.0,0.0,0.0,-1.802,-1.7684,-1.7407,0.0,0.0,-1.6615,-1.6011,-1.6178,-1.5651,-1.5009,-1.44,-1.4385,0.0,0.0,0.0,0.0,0.0,0.0,0.0,0.0,0.0,0.0,0.0,0.0,0.0,0.0,0.0,0.0,0.0,0.0,0.0,0.0,0.0,0.0,0.0,0.0,0.0,0.0,0.0,0.0,0.0,0.0,0.0,0.0,0.0,0.0,0.0,0.0,0.0,0.0,0.0,0.0,0.0,0.0,0.0,0.0,0.0,0.0,0.0,0.0,0.0,0.0,0.0,0.0,-1.7744,-1.8008,-1.9648,-2.0482,-2.0413,-2.0352,-2.0302,-2.0254,-1.8609,-1.7661,0.0,0.0,0.0,0.0,0.0,0.0,0.0,0.0,0.0,0.0,0.0,0.0,0.0,0.0,0.0,0.0,0.0,0.0,0.0,0.0,0.0,0.0,0.0,0.0,0.0,0.0,0.0,0.0,-1.1865,-1.2117,-1.2801,0.0,0.0,0.0,0.0,0.0,0.0,0.0,0.0,0.0,0.0,-1.9141,-1.8858,-1.8615,-1.8457,-1.8444,-1.749,-1.6753,-1.6756,-1.6114,-1.5413,-1.4741,0.0,0.0,0.0,0.0,0.0,0.0,0.0,0.0,0.0,0.0,0.0,0.0,0.0,0.0,0.0,0.0,0.0,0.0,0.0,0.0,0.0,0.0,0.0,0.0,0.0,0.0,0.0,-1.6315,0.0,0.0,-1.5105,0.0,0.0,0.0,0.0,0.0,0.0,0.0,0.0,0.0,0.0,0.0,0.0,0.0,0.0,0.0,0.0,0.0,0.0,0.0,0.0,0.0,0.0,-1.7187,-1.8027,-1.9678,-2.0508,-2.0487,-2.0371,-2.0302,-2.0256,-1.8619,-1.7605,-1.7378,0.0,0.0,0.0,0.0,0.0,0.0,0.0,0.0,0.0,0.0,0.0,0.0,0.0,0.0,0.0,0.0,0.0,0.0,0.0,0.0,0.0,0.0,0.0,0.0,0.0,0.0,-1.277,-1.2642,-1.2887,0.0,0.0,0.0,0.0,0.0,0.0,0.0,0.0,0.0,0.0,-1.9737,-2.0185,-1.9974,-1.918,-1.8791,-1.912,-1.7709,-1.6672,-1.7024,-1.658,-1.6115,0.0,0.0,0.0,0.0,0.0,0.0,0.0,0.0,0.0,0.0,0.0,0.0,0.0,0.0,0.0,0.0,0.0,0.0,0.0,0.0,0.0,0.0,0.0,0.0,0.0,0.0,0.0,-1.769,-1.7186,0.0,0.0,0.0,0.0,0.0,0.0,0.0,0.0,0.0,0.0,0.0,-1.96,-2.0211,0.0,0.0,0.0,0.0,0.0,0.0,0.0,0.0,0.0,0.0,0.0,0.0,-1.7916,-1.8809,-1.9867,-2.0443,-2.043,-2.0351,-2.0302,-2.0302,-1.9164,-1.7713,-1.5912,0.0,0.0,0.0,0.0,0.0,0.0,0.0,0.0,0.0,0.0,0.0,0.0,0.0,0.0,0.0,0.0,0.0,0.0,0.0,0.0,0.0,0.0,0.0,0.0,0.0,-1.426,0.0,0.0,0.0,0.0,0.0,0.0,0.0,0.0,0.0,0.0,0.0,-1.9417,-2.0523,-2.0448,-2.0277,-2.0215,-2.0199,-2.0066,0.0,0.0,0.0,0.0,0.0,0.0,0.0,0.0,0.0,0.0,0.0,0.0,0.0,0.0,-1.8413,-1.7353,-1.6722,-1.6428,-1.6611,0.0,0.0,0.0,0.0,0.0,0.0,0.0,0.0,0.0,0.0,0.0,0.0,0.0,0.0,-1.9411,0.0,-1.846,0.0,0.0,0.0,0.0,0.0,0.0,0.0,0.0,-2.1176,-2.1567,-2.1335,-2.193,-2.1934,0.0,-2.1162,-2.0156,0.0,0.0,0.0,0.0,0.0,0.0,0.0,0.0,-1.8647,-1.9212,-2.0037,-2.0453,-2.0436,-2.0369,-2.034,-2.0312,-1.9425,-1.7861,-1.5606,-1.5173,-1.4324,0.0,0.0,0.0,0.0,0.0,0.0,0.0,0.0,0.0,0.0,0.0,0.0,0.0,0.0,0.0,0.0,0.0,0.0,0.0,0.0,0.0,0.0,0.0,-1.5094,0.0,0.0,0.0,0.0,0.0,0.0,0.0,0.0,0.0,-2.0333,-2.0327,-2.0729,-2.1812,-2.1514,-2.1151,-2.107,0.0,0.0,0.0,0.0,0.0,0.0,0.0,-1.7667,-1.75,-1.7457,-1.764,-1.8144,-1.8922,-1.9786,-2.0729,0.0,0.0,-1.9183,-1.8508,-1.8307,-1.8793,-1.8674,-1.8808,-1.9916,-1.9659,-1.9411,0.0,0.0,0.0,0.0,0.0,0.0,0.0,0.0,-2.1886,-2.1445,0.0,-2.04,0.0,0.0,0.0,0.0,0.0,-2.1721,0.0,0.0,-2.337,-2.3793,-2.31,-2.3099,-2.3122,-2.3221,-2.3877,-2.3398,-2.1768,-1.9375,0.0,0.0,0.0,0.0,0.0,0.0,-1.9361,-1.9405,-2.0223,-2.0608,-2.0544,-2.0447,-2.0381,-2.0369,-1.9377,-1.8054,-1.651,-1.713,-1.6377,-1.3889,-1.451,0.0,0.0,0.0,0.0,0.0,0.0,0.0,0.0,0.0,0.0,0.0,0.0,0.0,0.0,0.0,0.0,0.0,0.0,0.0,0.0,-1.5308,0.0,0.0,0.0,0.0,0.0,0.0,0.0,0.0,0.0,0.0,-2.0611,-2.1783,-2.2802,-2.2822,0.0,0.0,0.0,0.0,-2.1268,-2.1541,-1.9957,-1.9107,-2.0234,-1.9529,-1.8817,-1.8827,0.0,0.0,-1.9904,-2.0735,-2.1242,-2.0728,-2.149,-2.2094,-2.1577,-2.0207,-1.9672,-2.1089,-2.081,-2.0951,-2.236,-2.2343,-2.2312,-2.4028,0.0,0.0,0.0,0.0,-2.3208,-2.3602,-2.4601,-2.3602,-2.2854,-2.2306,-2.1982,0.0,0.0,0.0,0.0,0.0,0.0,-2.3074,-2.34,-2.3966,-2.4379,-2.4726,-2.4812,-2.4866,-2.4878,-2.4491,-2.4057,-2.353,-2.2228,-2.0634,-1.8846,0.0,0.0,0.0,0.0,-2.1384,-2.1916,-2.1584,-2.1402,-2.1421,-2.0706,-2.0322,-2.0327,-1.9435,-1.8718,-1.8234,-1.782,-1.7257,-1.6481,-1.5533,0.0,0.0,0.0,0.0,0.0,0.0,0.0,0.0,0.0,0.0,0.0,0.0,0.0,0.0,0.0,0.0,0.0,0.0,0.0,-1.5171,-1.5676,-1.6236,0.0,0.0,0.0,0.0,0.0,0.0,0.0,0.0,0.0,-2.3033,-2.286,-2.3024,0.0,0.0,-2.2574,-2.25,-2.2543,-2.2343,-2.1649,-2.084,0.0,-1.9699,-1.8779,-1.8224,-1.8493,-1.9389,-2.0267,-2.0966,-2.1054,-2.1352,-2.2375,-2.1937,-2.1537,-2.2086,-2.1835,-2.1601,-2.2023,-2.1906,-2.2075,-2.306,-2.2857,-2.2573,-2.4974,-2.4035,-2.4037,-2.4313,-2.4709,-2.4206,-2.4545,-2.5406,-2.4801,-2.4255,-2.3813,-2.3765,-2.306,-2.1916,-2.247,0.0,0.0,0.0,-2.4197,-2.4659,-2.4687,-2.4986,-2.5466,-2.5543,-2.5611,-2.5578,-2.5037,-2.4755,-2.4726,-2.4101,-2.2843,-2.1032,0.0,0.0,-2.1515,-2.2024,-2.2504,-2.2979,-2.2491,-2.2221,-2.2211,-2.1265,-2.0558,-2.0173,-1.9611,-1.9154,-1.8809,-1.8602,-1.8165,-1.75,-1.6816,-1.6006,0.0,0.0,0.0,0.0,0.0,0.0,0.0,0.0,0.0,0.0,0.0,-1.2709,-1.1834,0.0,0.0,0.0,-1.5574,-1.6397,-1.6629,-1.7399,0.0,0.0,0.0,0.0,0.0,0.0,0.0,-2.3093,-2.4005,-2.4543,-2.4465,-2.3996,-2.387,-2.4389,-2.3859,-2.338,-2.33,0.0,-2.3015,-2.2455,-2.1321,-2.0468,-2.0229,-1.8979,-1.8235,-1.8943,-1.9273,-1.9948,-2.1111,-2.1209,-2.1461,-2.2297,-2.1967,-2.1552,-2.2153,-2.2215,-2.2274,-2.2408,-2.2414,-2.2669,-2.3501,-2.3181,-2.2962,-2.5664,-2.5605,-2.5596,-2.5564,-2.5516,-2.5511,-2.5506,-2.5517,-2.5506,-2.5515,-2.5515,-2.5515,-2.5104,-2.4413,-2.4403,0.0,-2.4423,-2.5163,-2.5493,-2.5513,-2.5515,-2.5543,-2.5611,-2.5608,-2.5609,-2.5601,-2.5521,-2.5455,-2.538,-2.513,-2.4635,-2.3931,-2.3396,-2.3119,-2.3086,-2.3149,-2.3164,-2.3105,-2.3106,-2.3024,-2.286,-2.1971,-2.1033,-2.012,-1.9965,-1.9494,-1.8672,-1.9362,-1.9102,-1.7632,-1.8218,-1.7596,-1.5472,0.0,0.0,0.0,0.0,0.0,0.0,0.0,0.0,0.0,0.0,0.0,0.0,0.0,0.0,0.0,-1.703,0.0,-1.9039,-1.9867,0.0,0.0,0.0,-2.1641,-2.1773,-2.3159,-2.4111,-2.4159,0.0,0.0,-2.501,-2.4957,-2.4965,-2.4965,-2.4863,-2.471,-2.4482,-2.3801,-2.3408,-2.3485,-2.1527,-2.0357,-2.0999,-1.9597,-1.8662,-1.9665,-1.9415,-1.9503,-2.0698,-2.1144,-2.1374,-2.1511,-2.1625,-2.1753,-2.1801,-2.1812,-2.1935,-2.2269,-2.2443,-2.2756,-2.3433,-2.3506,-2.3454,-2.5635,-2.5674,-2.5674,-2.5663,-2.5659,-2.5644,-2.5624,-2.5576,-2.557,-2.5572,-2.5582,-2.558,-2.5475,-2.5297,-2.5291,-2.527,-2.5229,-2.5469,-2.5544,-2.5517,-2.5563,-2.5572,-2.5601,-2.5605,-2.5606,-2.5582,-2.5479,-2.5421,-2.538,-2.5139,-2.4983,-2.4922,-2.4556,-2.4143,-2.3729,-2.449,-2.4895,-2.4884,-2.424,-2.3527,-2.2692,-2.2435,-2.1828,-2.0788,-2.0736,-2.0326,-1.9531,-1.9669,-1.9663,-1.9363,-1.8964,-1.8543,-1.8064,-1.6211,0.0,0.0,0.0,0.0,0.0,0.0,0.0,0.0,0.0,-1.5981,-1.3856,0.0,-1.8127,0.0,-1.8766,-1.9819,-1.9898,-2.0693,0.0,0.0,-2.2275,-2.2946,-2.4236,-2.4089,-2.4102,-2.4723,-2.4873,-2.4906,-2.4855,-2.4718,-2.4621,-2.4617,-2.4601,-2.4459,-2.4166,-2.3846,-2.344,-2.2944,-2.1928,-2.0995,-2.0373,-1.9029,-1.8397,-1.9699,-1.9546,-1.9678,-2.0782,-2.063,-2.0519,-2.095,-2.0726,-2.0694,-2.1113,-2.1226,-2.1223,-2.1378,-2.1996,-2.2623,-2.2853,-2.3079,-2.3289,-2.5639,-2.5603,-2.5648,-2.5632,-2.5607,-2.5662,-2.5672,-2.5646,-2.5604,-2.56,-2.5609,-2.5576,-2.5565,-2.555,-2.5546,-2.5534,-2.5518,-2.5576,-2.5576,-2.5547,-2.5574,-2.56,-2.5602,-2.5576,-2.5546,-2.5495,-2.5438,-2.5351,-2.5216,-2.5024,-2.4973,-2.5078,-2.4892,-2.4661,-2.4424,-2.4971,-2.5319,-2.5399,-2.4928,-2.4226,-2.3304,-2.3095,-2.2378,-2.1092,-2.0869,-2.0412,-1.9613,-1.9653,-1.9757,-1.9893,-1.9545,-1.9237,-1.8987,-1.7667,-1.6776,0.0,0.0,0.0,0.0,0.0,0.0,0.0,0.0,0.0,0.0,0.0,-1.9362,-1.9371,-2.0666,-2.1637,-2.1957,-2.2752,-2.3447,-2.3864,-2.3909,-2.4271,-2.5226,-2.4728,-2.4503,-2.4953,-2.4887,-2.476,-2.4676,-2.4561,-2.4462,-2.4393,-2.4367,-2.4242,-2.3925,-2.3655,-2.3282,-2.2762,-2.2088,-2.1087,-1.9749,-1.8664,-1.8295,-1.9084,-1.8951,-1.8931,-1.9816,-1.9694,-1.9567,-1.9894,-1.9893,-1.9957,-2.0348,-2.0439,-2.0413,-2.0499,-2.1045,-2.1662,-2.2065,-2.2321,-2.2513,-2.5635,-2.5514,-2.557,-2.557,-2.5512,-2.563,-2.5687,-2.5668,-2.561,-2.5582,-2.5572,-2.5518,-2.5478,-2.5476,-2.5486,-2.5479,-2.55,-2.555,-2.5582,-2.5592,-2.558,-2.5591,-2.5582,-2.5521,-2.5456,-2.539,-2.539,-2.5274,-2.5033,-2.4886,-2.4853,-2.487,-2.4809,-2.4877,-2.5025,-2.5013,-2.5109,-2.5293,-2.5303,-2.4937,-2.4245,-2.3863,-2.2905,-2.1311,-2.0883,-2.0259,-1.9399,-1.961,-1.9817,-1.9994,-2.0209,-2.003,-1.936,-1.9232,-1.847,0.0,-1.6711,0.0,0.0,0.0,0.0,0.0,0.0,0.0,0.0,-1.9757,-2.0631,-2.1595,-2.2615,-2.3547,-2.4292,-2.5068,-2.5507,-2.5419,-2.5419,-2.538,-2.5312,-2.5118,-2.4965,-2.4965,-2.4832,-2.4654,-2.4495,-2.4467,-2.44,-2.4248,-2.4084,-2.3916,-2.3668,-2.3386,-2.3069,-2.2617,-2.1902,-2.0733,-1.951,-1.8724,-1.847,-1.8631,-1.8475,-1.8143,-1.872,-1.8768,-1.8747,-1.8915,-1.9277,-1.9589,-1.9696,-1.9741,-1.9748,-1.9797,-2.0081,-2.0591,-2.1347,-2.1653,-2.1754,-2.5644,-2.5582,-2.5605,-2.5566,-2.5512,-2.5535,-2.5546,-2.5529,-2.551,-2.5512,-2.5515,-2.5456,-2.5427,-2.5418,-2.5418,-2.5418,-2.5426,-2.5493,-2.5512,-2.5514,-2.5517,-2.551,-2.5515,-2.5456,-2.5427,-2.539,-2.5332,-2.5303,-2.5245,-2.5062,-2.5033,-2.5192,-2.4945,-2.4956,-2.5224,0.0,0.0,0.0,-2.5303,-2.5139,-2.4851,-2.476,-2.3793,-2.1901,-2.1752,0.0,-1.9653,-2.0216,-2.0698,-2.1029,-2.1709,0.0,0.0,0.0,0.0,0.0,0.0,0.0,0.0,0.0,0.0,0.0,-2.0724,-2.0527,-2.075,-2.2129,-2.3181,-2.3553,-2.4456,-2.507,-2.5248,-2.5489,-2.5634,-2.5569,-2.5518,-2.5457,-2.5389,-2.5063,-2.4828,-2.4837,-2.4526,-2.4303,-2.4284,-2.4248,-2.4248,-2.4162,-2.3735,-2.3396,-2.3315,-2.3233,-2.283,-2.1958,-2.1011,-2.0271,-2.0063,-1.9446,-1.8959,-1.8927,-1.9168,-1.9161,-1.8889,-1.876,-1.8925,-1.9289,-1.9166,-1.9093,-1.9555,-1.9697,-1.9661,-1.9697,-1.9754,-2.007,-2.0934,-2.1376,-2.1728,-2.5639,0.0,-2.5552,-2.5486,0.0,-2.5399,-2.5407,-2.5396,-2.5435,-2.5421,-2.5409,-2.537,-2.5361,-2.5341,-2.5351,-2.5351,-2.5361,-2.5418,-2.5474,-2.5503,-2.5464,-2.5477,-2.5505,-2.5399,-2.5361,-2.5361,-2.5332,-2.5235,-2.5149,-2.5053,-2.5049,-2.5141,-2.4982,-2.5034,-2.5284,-2.5213,-2.5194,-2.5293,-2.5303,-2.5245,-2.5139,-2.5057,-2.4331,-2.2952,-2.2781,0.0,0.0,0.0,0.0,0.0,0.0,0.0,0.0,0.0,0.0,-2.0905,-2.0496,-2.0496,-2.1012,-2.103,-2.1592,-2.2869,-2.3159,-2.2997,-2.2396,-2.3631,-2.4484,-2.4592,-2.5176,-2.5552,-2.5551,-2.5639,-2.5674,-2.5605,-2.5536,-2.5464,-2.538,-2.5099,-2.4883,-2.4771,-2.4545,-2.4312,-2.4209,-2.4199,-2.4199,-2.419,-2.3917,-2.3606,-2.3431,-2.3033,-2.2448,-2.1731,-2.0993,-2.0392,-2.0273,-1.9859,-1.9413,-1.9334,-1.9243,-1.9096,-1.8847,-1.8753,-1.8762,-1.8826,-1.8761,-1.8863,-1.8867,-1.9087,-1.9302,-1.9339,-1.9522,-1.999,-2.0809,-2.1172,-2.1515,-2.5624,-2.5521,-2.5516,-2.5447,-2.5322,-2.5332,-2.5322,-2.5322,0.0,0.0,0.0,-2.5303,-2.537,-2.5505,-2.537,-2.538,-2.5524,-2.5428,-2.5399,-2.5457,-2.5409,-2.5409,-2.5457,-2.5361,-2.5303,-2.5303,-2.5303,-2.5207,-2.5062,-2.5062,-2.5053,-2.5062,-2.5043,-2.5149,-2.5293,-2.5303,-2.5303,-2.5303,-2.5303,-2.5303,-2.5293,-2.5136,-2.4631,-2.3814,-2.3641,-2.3179,-2.2378,-2.264,-2.2825,-2.287,-2.3093,-2.3178,-2.3043,-2.3014,-2.2945,-2.2815,-2.2794,-2.2919,-2.3187,-2.3164,-2.352,-2.4416,-2.4948,-2.4822,-2.3858,-2.4598,-2.5139,-2.5163,-2.5435,-2.5601,-2.5601,-2.565,-2.5674,-2.5615,-2.5541,-2.5466,-2.5399,-2.5158,-2.4946,-2.4799,-2.4617,-2.4428,-2.4228,-2.4199,-2.4199,-2.4181,-2.4096,-2.3978,-2.3589,-2.2833,-2.2113,-2.1552,-2.1014,-2.0667,-2.0288,-1.9914,-1.966,-1.9468,-1.9164,-1.8874,-1.8748,-1.8815,-1.8667,-1.8316,-1.8555,-1.8609,-1.8277,-1.8599,-1.8865,-1.89,-1.9383,-2.0013,-2.0761,-2.1043,-2.1388,-2.5664,-2.5599,-2.5578,-2.5505,-2.539,-2.539,-2.539,-2.539,-2.5332,-2.5303,-2.5303,-2.5303,-2.5707,-2.639,-2.563,-2.5707,-2.635,-2.5639,-2.5322,-2.5332,-2.5322,-2.5322,-2.5332,-2.5303,-2.5303,-2.5303,-2.5303,-2.5293,-2.5264,-2.5245,-2.5245,-2.5255,-2.5255,-2.5274,-2.5303,-2.5303,-2.5303,-2.5303,-2.5303,-2.5303,-2.5293,-2.5273,-2.4797,-2.3875,-2.3786,-2.3386,-2.2615,-2.3264,-2.3708,-2.389,-2.4563,-2.4639,-2.3966,-2.3918,-2.3581,-2.2878,-2.281,-2.3168,-2.3976,-2.4024,-2.4368,-2.5151,-2.5283,-2.5187,-2.4995,-2.5078,-2.5263,-2.5434,-2.5543,-2.5601,-2.5611,-2.5664,-2.5693,-2.5693,-2.5563,-2.5492,-2.5486,-2.5208,-2.4959,-2.4809,-2.4623,-2.4409,-2.4247,-2.4199,-2.4199,-2.4153,-2.4044,-2.3693,-2.3338,-2.2617,-2.1886,-2.1228,-2.0682,-2.0261,-1.9972,-1.9754,-1.9528,-1.9081,-1.9371,-1.9405,-1.8992,-1.9261,-1.9286,-1.8821,-1.881,-1.8626,-1.8185,-1.8542,-1.8748,-1.8848,-1.9478,-2.0254,-2.0845,-2.1256,-2.1676,-2.5664,-2.5605,-2.5605,-2.5546,-2.5452,-2.5446,-2.5444,-2.5452,-2.543,-2.54,-2.5351,-2.5322,-2.5783,-2.6485,-2.5705,-2.5782,-2.656,-2.5707,-2.5332,-2.5351,-2.5332,-2.5332,-2.5351,-2.5332,-2.5332,-2.5341,-2.5322,-2.5332,-2.5361,-2.5322,-2.5303,-2.5303,-2.5303,-2.5303,-2.5303,-2.5303,-2.5303,-2.5303,-2.5303,-2.5303,-2.5303,-2.5303,-2.5071,-2.4616,-2.4619,-2.4466,-2.408,-2.4408,-2.4649,-2.4745,-2.5111,-2.5091,-2.4615,-2.4596,-2.4378,-2.3928,-2.389,-2.413,-2.4659,-2.4832,-2.5005,-2.5283,-2.5376,-2.5293,-2.5048,-2.52,-2.5351,-2.5432,-2.5521,-2.5541,-2.5556,-2.5613,-2.5644,-2.5644,-2.5551,-2.5511,-2.5485,-2.5301,-2.5072,-2.4837,-2.4706,-2.4545,-2.4247,-2.4199,-2.4199,-2.42,-2.4126,-2.4006,-2.3665,-2.319,-2.2548,-2.1749,-2.107,-2.0516,-2.0097,-1.9818,-1.9622,-1.9352,-1.9697,-1.9786,-1.944,-1.9741,-1.9656,-1.9035,-1.8688,-1.8256,-1.778,-1.786,-1.8099,-1.8496,-1.9042,-1.9816,-2.0702,-2.1486,-2.194,-2.6143,-2.5928,-2.6142,-2.6174,-2.6089,-2.5897,-2.5812,-2.5805,-2.56,-2.5496,-2.5414,-2.5341,-2.5899,-2.6734,-2.579,-2.5877,-2.6657,-2.5774,-2.5332,-2.5361,-2.5332,-2.5332,-2.539,-2.5332,-2.5341,-2.539,-2.534,-2.5369,-2.5418,-2.538,-2.5332,-2.5322,-2.5322,-2.5313,-2.5303,-2.5303,-2.5303,-2.5303,-2.5303,-2.5303,-2.5303,-2.5303,-2.5303,-2.5303,-2.5293,-2.5303,-2.5303,-2.5303,-2.5303,-2.5303,-2.5303,-2.5214,-2.5088,-2.5032,-2.4956,-2.4849,-2.4814,-2.4867,-2.5072,-2.5273,-2.5331,-2.5243,-2.5359,-2.5316,-2.499,-2.5161,-2.5325,-2.5359,-2.5437,-2.5517,-2.5515,-2.5544,-2.5586,-2.5566,-2.5521,-2.5473,-2.5466,-2.5361,-2.5171,-2.4874,-2.4813,-2.4629,-2.4312,-2.4199,-2.421,-2.4291,-2.4401,-2.4397,-2.4178,-2.3856,-2.3276,-2.2531,-2.164,-2.0846,-2.0382,-1.9965,-1.9777,-1.9786,-1.9963,-1.9995,-1.9859,-2.0043,-1.9818,-1.9072,-1.8574,-1.8178,-1.7666,-1.7673,-1.7947,-1.8387,-1.8968,-1.9728,-2.0916,-2.1599,-2.2012,-2.7578,-2.7051,-2.7676,-2.8017,-2.7803,-2.71,-2.6776,-2.6675,-2.5948,-2.5547,-2.5527,-2.5423,-2.6313,-2.7408,-2.607,-2.6262,-2.7544,-2.6063,-2.5312,-2.5322,-2.5303,-2.5303,-2.5322,-2.5303,-2.5351,-2.5399,-2.5381,-2.5415,-2.5486,-2.5486,-2.5447,-2.5399,-2.539,-2.5361,-2.5303,-2.5303,-2.5303,-2.5303,-2.5303,-2.5303,-2.5303,-2.5303,-2.5303,-2.5303,-2.5303,-2.5303,-2.5303,-2.5303,-2.5303,-2.5303,-2.5303,-2.5303,-2.5244,-2.509,-2.4993,-2.496,-2.487,-2.4876,-2.4993,-2.5024,-2.5126,-2.5282,-2.5282,-2.5221,-2.4984,-2.5019,-2.5099,-2.5206,-2.5368,-2.548,-2.5513,-2.5491,-2.547,-2.5463,-2.5428,-2.5405,-2.5398,-2.5341,-2.519,-2.4828,-2.4799,-2.4648,-2.4294,-2.4199,-2.4275,-2.4419,-2.4486,-2.4569,-2.458,-2.4216,-2.3797,-2.3182,-2.2088,-2.0959,-2.0416,-1.9972,-1.9937,-2.0146,-1.9984,-1.998,-2.0104,-1.9951,-1.9574,-1.9361,-1.8946,-1.8712,-1.8444,-1.8373,-1.8719,-1.8864,-1.9468,-2.041,-2.1258,-2.1597,-2.1616,-2.8096,-2.7803,-2.8154,-2.8291,-2.8193,-2.7861,-2.7706,-2.7611,-2.7306,-2.6783,-2.6307,-2.6708,-2.7312,-2.7842,-2.7118,-2.7253,-2.7775,-2.662,-2.5774,-2.5341,-2.5303,-2.5303,-2.5303,-2.5303,-2.5351,-2.5447,-2.5412,-2.5451,-2.5532,-2.5517,-2.5481,-2.5473,-2.5453,-2.5428,-2.537,-2.5351,-2.5341,-2.5303,-2.5303,-2.5303,-2.5303,-2.5303,-2.5303,-2.5303,-2.5303,-2.5303,-2.5303,-2.5303,-2.5303,-2.5303,-2.5303,-2.5253,-2.5131,-2.5036,-2.498,-2.4898,-2.4818,-2.4766,-2.4695,-2.4814,-2.4854,-2.4823,-2.4936,-2.4873,-2.457,-2.4737,-2.4854,-2.4831,-2.5038,-2.5207,-2.5216,-2.5226,-2.5216,-2.5144,-2.5171,-2.5224,-2.5205,-2.5166,-2.503,-2.4823,-2.47,-2.4528,-2.4266,-2.4199,-2.4293,-2.4484,-2.4574,-2.4702,-2.4761,-2.4421,-2.4008,-2.3467,-2.2436,-2.1486,-2.0838,-2.0591,-2.0461,-2.0329,-2.0412,-2.0518,-2.0289,-2.0467,-2.0288,-1.9821,-1.9713,-1.9604,-1.9467,-1.9178,-1.9221,-1.9411,-1.972,-2.0432,-2.079,-2.1059,-2.1118,-2.8857,-2.8672,-2.8652,-2.8789,-2.8984,-2.875,-2.8617,-2.8531,-2.8313,-2.7758,-2.7196,-2.7944,-2.8301,-2.8198,-2.8004,-2.7887,-2.7782,-2.6994,-2.6139,-2.536,-2.5303,-2.5303,-2.5303,-2.5322,-2.539,-2.5486,-2.5476,-2.5522,-2.5611,-2.5576,-2.5547,-2.5537,-2.5532,-2.5488,-2.5432,-2.5446,-2.5399,-2.5361,-2.5351,-2.5351,-2.5351,-2.5341,-2.5313,-2.5303,-2.5303,-2.5303,-2.5303,-2.5303,-2.5303,-2.5303,-2.5303,-2.5234,-2.5099,-2.5034,-2.4955,-2.4813,-2.4809,-2.4756,-2.4623,-2.4742,-2.4741,-2.4676,-2.4741,-2.4654,-2.4418,-2.4552,-2.4639,-2.455,-2.4719,-2.4881,-2.4947,-2.5002,-2.4955,-2.4829,-2.4939,-2.5019,-2.5008,-2.499,-2.4891,-2.4736,-2.4664,-2.4515,-2.433,-2.4264,-2.4292,-2.4478,-2.4604,-2.474,-2.4762,-2.4539,-2.419,-2.3699,-2.2922,-2.2135,-2.1344,-2.0829,-2.0717,-2.0756,-2.0835,-2.0659,-2.0562,-2.0932,-2.1062,-2.0545,-2.0547,-2.059,-2.0567,-2.0307,-1.9828,-1.9879,-2.007,-2.0302,-2.0418,-2.0645,-2.0708,-3.0303,-2.958,-2.9541,-2.9971,-3.0693,-2.9883,-2.9503,-2.9374,-2.8622,-2.8132,-2.8069,-2.8808,-2.9118,-2.8977,-2.8332,-2.7934,-2.7823,-2.7071,-2.6235,-2.5505,-2.538,-2.5322,-2.5303,-2.537,-2.5447,-2.5505,-2.5534,-2.5625,-2.5698,-2.5693,-2.5654,-2.5596,-2.5596,-2.5576,-2.5513,-2.5492,-2.5495,-2.5486,-2.5486,-2.5486,-2.5476,-2.5428,-2.537,-2.5322,-2.5303,-2.5303,-2.5303,-2.5303,-2.5303,-2.5303,-2.5303,-2.5284,-2.5264,-2.5109,-2.4946,-2.4823,-2.4809,-2.4847,-2.4907,-2.4832,-2.4814,-2.4907,-2.478,-2.47,-2.447,-2.4487,-2.4486,-2.4476,-2.4503,-2.4617,-2.4751,-2.4787,-2.4782,-2.4764,-2.4791,-2.4821,-2.4803,-2.4804,-2.4716,-2.4601,-2.4639,-2.4627,-2.4496,-2.4328,-2.4301,-2.4411,-2.4496,-2.4568,-2.4695,-2.4598,-2.4308,-2.3959,-2.3445,-2.2771,-2.1757,-2.1244,-2.1055,-2.1046,-2.0966,-2.0711,-2.1046,-2.134,-2.1319,-2.134,-2.1406,-2.1507,-2.1673,-2.1431,-2.0878,-2.0603,-2.0266,-2.0333,-2.0161,-2.0265,-2.0392,-3.0732,-3.0439,-3.0439,-3.0625,-3.084,-3.0557,-3.0361,-3.0248,-2.996,-2.9442,-2.9087,-2.9704,-2.9706,-2.918,-2.9448,-2.9233,-2.8622,-2.7801,-2.7246,-2.6909,-2.639,-2.6149,-2.6187,-2.6216,-2.5956,-2.5611,-2.5582,-2.5628,-2.5693,-2.5693,-2.5684,-2.5674,-2.5664,-2.5633,-2.5582,-2.5561,-2.5541,-2.5518,-2.5515,-2.5515,-2.5511,-2.5473,-2.5447,-2.5428,-2.5341,-2.5303,-2.5303,-2.5303,-2.5303,-2.5303,-2.5303,-2.5303,-2.5293,-2.5234,-2.5115,-2.4943,-2.4914,-2.4869,-2.4696,-2.4632,-2.455,-2.4491,-2.4442,-2.4401,-2.4339,-2.4312,-2.4303,-2.4312,-2.4312,-2.4366,-2.4424,-2.4524,-2.4578,-2.4467,-2.4541,-2.4617,-2.461,-2.4607,-2.4594,-2.4521,-2.4478,-2.4422,-2.4487,-2.4319,-2.4217,-2.4271,-2.4224,-2.4322,-2.45,-2.4361,-2.4146,-2.4015,-2.3726,-2.3236,-2.2477,-2.1973,-2.1656,-2.1485,-2.1374,-2.1434,-2.1674,-2.1779,-2.1789,-2.1986,-2.211,-2.2163,-2.224,-2.1896,-2.1432,-2.0974,-2.064,-2.039,-1.9962,-2.0089,-2.0236,-3.0918,-3.0918,-3.0918,-3.0918,-3.0918,-3.0918,-3.083,-3.0713,-3.0705,-3.0353,-2.997,-3.0318,-3.02,-2.9796,-3.0285,-3.0225,-2.9529,-2.8754,-2.8236,-2.793,-2.7352,-2.7101,-2.7149,-2.7169,-2.692,-2.6448,-2.6151,-2.5964,-2.5723,-2.5693,-2.5693,-2.5693,-2.5693,-2.5674,-2.5644,-2.5644,-2.5619,-2.558,-2.5571,-2.5561,-2.5557,-2.5555,-2.5524,-2.5524,-2.5428,-2.5361,-2.5341,-2.5313,-2.5303,-2.5303,-2.5303,-2.5303,-2.5303,-2.5303,-2.5207,-2.5033,-2.4992,-2.4898,-2.4629,-2.4551,-2.4426,-2.4312,-2.4238,-2.4199,-2.4199,-2.4199,-2.4199,-2.4199,-2.4199,-2.4199,-2.4217,-2.4328,-2.4347,-2.4246,-2.4319,-2.4385,-2.442,-2.4401,-2.4461,-2.4568,-2.4519,-2.4502,-2.4524,-2.4404,-2.4291,-2.4208,-2.4136,-2.4192,-2.4312,-2.4229,-2.4071,-2.4024,-2.3862,-2.345,-2.2954,-2.2565,-2.2198,-2.1982,-2.1694,-2.1848,-2.2103,-2.2211,-2.2335,-2.2579,-2.272,-2.2755,-2.2582,-2.2231,-2.1795,-2.1298,-2.1047,-2.0838,-2.0413,-1.9957,-2.0274,-3.0918,-3.0918,-3.0918,-3.0918,-3.0918,-3.0918,-3.082,-3.0732,-3.0723,-3.0635,-3.0504,-3.0596,-3.0535,-3.0557,-3.055,-3.0564,-3.0342,-2.9719,-2.9022,-2.8365,-2.8174,-2.8105,-2.8122,-2.8173,-2.8097,-2.7909,-2.7306,-2.6533,-2.584,-2.5752,-2.5693,-2.5693,-2.5693,-2.5693,-2.5693,-2.5684,-2.5693,-2.5684,-2.5674,-2.5693,-2.5693,-2.564,-2.5599,-2.56,-2.5533,-2.5466,-2.5409,-2.5341,-2.5322,-2.5322,-2.5313,-2.5303,-2.5303,-2.5303,-2.5197,-2.5033,-2.4996,-2.4925,-2.4766,-2.4591,-2.4495,-2.4418,-2.4303,-2.4199,-2.4199,-2.4199,-2.4199,-2.4199,-2.4199,-2.4199,-2.4199,-2.4208,-2.4217,-2.4199,-2.4246,-2.4227,-2.4256,-2.4228,-2.4357,-2.4691,-2.4751,-2.4796,-2.476,-2.4634,-2.4459,-2.4331,-2.4219,-2.4228,-2.4303,-2.4257,-2.4209,-2.4172,-2.4039,-2.3732,-2.3441,-2.3159,-2.279,-2.2424,-2.2089,-2.2021,-2.238,-2.2553,-2.2647,-2.2826,-2.2815,-2.2833,-2.2599,-2.2284,-2.2062,-2.1655,-2.1466,-2.1165,-2.0704,-2.0362,-2.0582,-3.0918,-3.0918,-3.0918,-3.0918,-3.0918,-3.0918,-3.0869,-3.083,-3.083,-3.083,-3.079,-3.071,-3.0662,-3.0654,-3.0665,-3.0669,-3.0645,-3.0481,-3.0195,-2.9749,-2.9244,-2.9017,-2.9067,-2.9083,-2.8794,-2.8203,-2.7398,-2.6885,-2.6553,-2.6025,-2.5693,-2.5693,-2.5713,-2.5693,-2.5693,-2.5693,-2.5693,-2.5693,-2.5693,-2.5693,-2.5693,-2.5674,-2.5674,-2.5665,-2.5606,-2.5561,-2.5534,-2.5466,-2.5447,-2.5447,-2.5399,-2.5351,-2.5313,-2.5303,-2.5207,-2.5022,-2.4997,-2.4861,-2.4631,-2.4526,-2.4436,-2.4312,-2.4237,-2.4218,-2.4199,-2.4199,-2.4199,-2.4199,-2.4199,-2.4199,-2.4199,-2.4199,-2.4209,-2.419,-2.4199,-2.4266,-2.4401,-2.4519,-2.4697,-2.4877,-2.4869,-2.485,-2.4894,-2.4792,-2.4678,-2.4582,-2.4417,-2.4339,-2.451,-2.4394,-2.4392,-2.4522,-2.4308,-2.407,-2.3767,-2.3534,-2.3236,-2.2875,-2.2532,-2.2295,-2.2598,-2.2849,-2.294,-2.2911,-2.29,-2.2782,-2.2544,-2.2345,-2.2133,-2.1907,-2.1604,-2.1283,-2.0901,-2.0893,-2.1009,-3.0918,-3.0918,-3.0918,-3.0918,-3.0918,-3.0918,-3.0918,-3.0918,-3.0918,-3.0918,-3.0889,-3.081,-3.0781,-3.0771,-3.0764,-3.078,-3.0795,-3.086,-3.0841,-3.0683,-3.0251,-2.9981,-3.0016,-3.003,-2.9591,-2.8838,-2.8232,-2.7783,-2.7471,-2.6943,-2.6514,-2.625,-2.6172,-2.5996,-2.5742,-2.5693,-2.5693,-2.5693,-2.5693,-2.5693,-2.5693,-2.5693,-2.5693,-2.5693,-2.5644,-2.5635,-2.5644,-2.5597,-2.5561,-2.5506,-2.5446,-2.538,-2.5341,-2.5313,-2.5197,-2.5035,-2.4926,-2.479,-2.4541,-2.4432,-2.4348,-2.4228,-2.4199,-2.4199,-2.4199,-2.4199,-2.4199,-2.4199,-2.4199,-2.4199,-2.4199,-2.4199,-2.4238,-2.4308,-2.4324,-2.4403,-2.4588,-2.4794,-2.4921,-2.5013,-2.5057,-2.5055,-2.5017,-2.4974,-2.4879,-2.4807,-2.4619,-2.4519,-2.4714,-2.4618,-2.469,-2.4742,-2.4636,-2.4369,-2.4072,-2.385,-2.3672,-2.333,-2.2972,-2.2805,-2.2834,-2.3013,-2.3117,-2.2833,-2.2736,-2.2587,-2.236,-2.2349,-2.22,-2.1966,-2.1786,-2.1606,-2.1378,-2.1236,-2.1311,-3.0918,-3.0918,-3.0918,-3.0918,-3.0918,-3.0918,-3.0918,-3.0918,-3.0918,-3.0918,-3.0898,-3.0889,-3.0898,-3.0908,-3.0879,-3.0886,-3.0904,-3.0898,-3.0898,-3.0889,-3.0781,-3.0762,-3.0742,-3.0732,-3.0342,-2.9746,-2.9473,-2.9053,-2.8369,-2.7959,-2.7812,-2.6953,-2.6709,-2.6504,-2.584,-2.5693,-2.5693,-2.5693,-2.5693,-2.5693,-2.5693,-2.5693,-2.5693,-2.5693,-2.5693,-2.5693,-2.5693,-2.5678,-2.5639,-2.5513,-2.5449,-2.5415,-2.5399,-2.5351,-2.5216,-2.5023,-2.4882,-2.4753,-2.4552,-2.4423,-2.4284,-2.4247,-2.4256,-2.419,-2.4209,-2.4199,-2.4199,-2.4199,-2.4199,-2.4199,-2.4199,-2.4246,-2.4329,-2.4486,-2.4549,-2.4629,-2.4809,-2.4995,-2.5122,-2.517,-2.5327,-2.5418,-2.5187,-2.5129,-2.5036,-2.4921,-2.4862,-2.4879,-2.486,-2.4853,-2.4834,-2.4845,-2.4865,-2.4648,-2.4348,-2.4201,-2.3975,-2.3405,-2.3186,-2.3137,-2.297,-2.3041,-2.3067,-2.2819,-2.2562,-2.2392,-2.231,-2.2319,-2.2319,-2.218,-2.2077,-2.2011,-2.1899,-2.1718,-2.1645,-3.0918,-3.0918,-3.0918,-3.0918,-3.0918,-3.0918,-3.0918,-3.0918,-3.0918,-3.0918,-3.0918,-3.0918,-3.0918,-3.0918,-3.0918,-3.0912,-3.0918,-3.0918,-3.0918,-3.0918,-3.0918,-3.0918,-3.0918,-3.0908,-3.0781,-3.0449,-2.9883,-2.9404,-2.9088,-2.8021,-2.7266,-2.6924,-2.6406,-2.5996,-2.5713,-2.5693,-2.5693,-2.5693,-2.5693,-2.5693,-2.5693,-2.5693,-2.5693,-2.5693,-2.5693,-2.5693,-2.5693,-2.5701,-2.5668,-2.5588,-2.5551,-2.5498,-2.5417,-2.539,-2.5264,-2.5061,-2.4962,-2.4883,-2.4747,-2.4651,-2.4568,-2.4436,-2.4418,-2.4366,-2.4209,-2.4199,-2.4199,-2.4199,-2.4199,-2.4218,-2.4236,-2.4348,-2.4564,-2.4803,-2.4855,-2.4895,-2.5019,-2.5199,-2.5341,-2.5408,-2.546,-2.5457,-2.5409,-2.5368,-2.5332,-2.5242,-2.5203,-2.5196,-2.5118,-2.5117,-2.5098,-2.5098,-2.507,-2.4868,-2.4674,-2.454,-2.4174,-2.3509,-2.3298,-2.3369,-2.3124,-2.297,-2.2875,-2.2695,-2.2494,-2.2319,-2.2319,-2.2319,-2.2319,-2.2319,-2.2254,-2.2152,-2.2189,-2.2106,-2.2069,-3.0918,-3.0918,-3.0918,-3.0918,-3.0918,-3.0918,-3.0918,-3.0918,-3.0918,-3.0918,-3.0918,-3.0918,-3.0918,-3.0918,-3.0918,-3.0918,-3.0918,-3.0918,-3.0918,-3.0918,-3.0918,-3.0918,-3.0918,-3.0908,-3.087,-3.0764,-3.0265,-2.9834,-2.9371,-2.8395,-2.7647,-2.6934,-2.6434,-2.6035,-2.5664,-2.5684,-2.5693,-2.5693,-2.5693,-2.5693,-2.5693,-2.5693,-2.5693,-2.5693,-2.5693,-2.5693,-2.5693,-2.5693,-2.5684,-2.5644,-2.5605,-2.5542,-2.5459,-2.5418,-2.5313,-2.5129,-2.5045,-2.4945,-2.4895,-2.4847,-2.4747,-2.4651,-2.4614,-2.4568,-2.4495,-2.4444,-2.4444,-2.447,-2.4447,-2.4432,-2.4478,-2.4625,-2.4799,-2.4951,-2.5098,-2.5187,-2.522,-2.5377,-2.5484,-2.5534,-2.5556,-2.5566,-2.5557,-2.5557,-2.5515,-2.5459,-2.5399,-2.538,-2.5331,-2.5341,-2.5312,-2.5263,-2.5223,-2.503,-2.4858,-2.4723,-2.4422,-2.3744,-2.328,-2.3396,-2.3158,-2.2873,-2.2783,-2.2634,-2.2434,-2.2319,-2.2319,-2.2319,-2.2319,-2.2319,-2.2319,-2.231,-2.231,-2.2319,-2.2319,-3.0918,-3.0918,-3.0918,-3.0918,-3.0918,-3.0918,-3.0918,-3.0918,-3.0918,-3.0918,-3.0918,-3.0918,-3.0918,-3.0918,-3.0918,-3.0918,-3.0918,-3.0918,-3.0918,-3.0918,-3.0918,-3.0918,-3.0898,-3.0859,-3.0807,-3.0703,-3.0695,-3.0246,-2.9622,-2.9298,-2.8366,-2.7241,-2.6824,-2.6297,-2.5752,-2.5664,-2.5693,-2.5693,-2.5693,-2.5693,-2.5693,-2.5693,-2.5693,-2.5693,-2.5693,-2.5693,-2.5693,-2.5693,-2.5693,-2.5693,-2.5644,-2.5576,-2.5508,-2.5447,-2.538,-2.5283,-2.5151,-2.5056,-2.5028,-2.4958,-2.485,-2.4823,-2.4814,-2.4818,-2.4751,-2.4731,-2.4731,-2.474,-2.4807,-2.4755,-2.4783,-2.492,-2.4989,-2.5082,-2.5264,-2.537,-2.5428,-2.5524,-2.5601,-2.5616,-2.5662,-2.5674,-2.5635,-2.5605,-2.5599,-2.5525,-2.5494,-2.5437,-2.5382,-2.5361,-2.5322,-2.5293,-2.5244,-2.5214,-2.5041,-2.4881,-2.4498,-2.4015,-2.3439,-2.3243,-2.2996,-2.2785,-2.2729,-2.2616,-2.2434,-2.233,-2.2319,-2.2319,-2.233,-2.2358,-2.2396,-2.2369,-2.2341,-2.231,-2.2319,-3.0918,-3.0918,-3.0918,-3.0918,-3.0918,-3.0918,-3.0918,-3.0898,-3.0908,-3.0898,-3.0908,-3.0908,-3.0898,-3.0908,-3.0898,-3.0918,-3.0918,-3.0918,-3.0918,-3.0918,-3.0918,-3.0918,-3.0879,-3.0808,-3.0733,-3.0678,-3.0587,-3.0423,-3.0029,-2.8952,-2.8135,-2.7652,-2.6457,-2.5795,-2.5664,-2.5664,-2.5693,-2.5693,-2.5693,-2.5693,-2.5693,-2.5693,-2.5693,-2.5693,-2.5693,-2.5693,-2.5693,-2.5693,-2.5693,-2.5693,-2.5684,-2.5626,-2.5526,-2.5492,-2.5428,-2.5331,-2.5272,-2.5222,-2.5225,-2.5186,-2.5112,-2.4974,-2.4959,-2.4898,-2.4818,-2.4832,-2.4818,-2.4813,-2.4813,-2.4865,-2.4949,-2.4978,-2.5081,-2.5207,-2.5322,-2.5398,-2.5408,-2.5512,-2.5588,-2.5619,-2.5654,-2.5693,-2.5664,-2.5664,-2.5644,-2.5596,-2.5535,-2.5465,-2.5421,-2.5387,-2.5351,-2.5332,-2.5284,-2.5244,-2.513,-2.4937,-2.4588,-2.4191,-2.3676,-2.3127,-2.2885,-2.278,-2.2755,-2.2643,-2.2445,-2.2369,-2.2319,-2.2362,-2.2383,-2.2428,-2.249,-2.25,-2.25,-2.2407,-2.2319,-3.0918,-3.0918,-3.0918,-3.0918,-3.0918,-3.0918,-3.0918,-3.0889,-3.0831,-3.0798,-3.0808,-3.0806,-3.081,-3.082,-3.0869,-3.0918,-3.0918,-3.0918,-3.0918,-3.0918,-3.0918,-3.0918,-3.0879,-3.0778,-3.07,-3.0681,-3.0623,-3.0417,-2.9725,-2.8786,-2.7853,-2.7382,-2.6198,-2.5708,-2.5618,-2.5664,-2.5693,-2.5693,-2.5693,-2.5693,-2.5693,-2.5693,-2.5693,-2.5693,-2.5693,-2.5693,-2.5693,-2.5693,-2.5693,-2.5693,-2.5693,-2.5654,-2.5567,-2.5517,-2.5438,-2.537,-2.5313,-2.5303,-2.5303,-2.5293,-2.5253,-2.5152,-2.5133,-2.5107,-2.5068,-2.5043,-2.5034,-2.5043,-2.5056,-2.5077,-2.5129,-2.5149,-2.5216,-2.5284,-2.537,-2.5389,-2.5385,-2.5475,-2.557,-2.5605,-2.5635,-2.5664,-2.5674,-2.5693,-2.5693,-2.5644,-2.5644,-2.5581,-2.5522,-2.5476,-2.5399,-2.5361,-2.5322,-2.5264,-2.5183,-2.4965,-2.4652,-2.4287,-2.3883,-2.3296,-2.2858,-2.2842,-2.2847,-2.2643,-2.2453,-2.2377,-2.231,-2.2392,-2.2521,-2.2591,-2.2678,-2.2695,-2.2678,-2.2583,-2.2448,-3.0918,-3.0918,-3.0918,-3.0918,-3.0918,-3.0908,-3.0879,-3.0859,-3.0741,-3.07,-3.0691,-3.0696,-3.0723,-3.0732,-3.084,-3.0908,-3.0918,-3.0918,-3.0918,-3.0918,-3.0918,-3.0918,-3.0879,-3.081,-3.0755,-3.0733,-3.0687,-3.0294,-2.9658,-2.8732,-2.8057,-2.7094,-2.6246,-2.582,-2.5698,-2.5664,-2.5693,-2.5693,-2.5693,-2.5693,-2.5693,-2.5693,-2.5693,-2.5693,-2.5693,-2.5693,-2.5693,-2.5693,-2.5693,-2.5693,-2.5693,-2.5664,-2.5625,-2.5556,-2.5485,-2.5418,-2.5361,-2.5332,-2.5322,-2.5313,-2.5293,-2.5303,-2.5284,-2.5284,-2.5283,-2.5263,-2.5243,-2.5253,-2.5253,-2.5253,-2.5303,-2.5274,-2.5274,-2.5313,-2.5361,-2.5361,-2.5341,-2.5399,-2.5485,-2.5576,-2.5605,-2.5635,-2.5674,-2.5693,-2.5693,-2.5693,-2.5693,-2.5673,-2.5615,-2.5543,-2.5457,-2.5409,-2.537,-2.5313,-2.5234,-2.5078,-2.4765,-2.4454,-2.4072,-2.3584,-2.3041,-2.2987,-2.297,-2.2643,-2.247,-2.246,-2.2545,-2.2685,-2.28,-2.2819,-2.2879,-2.2937,-2.286,-2.2756,-2.2531,-3.0918,-3.0918,-3.0918,-3.0918,-3.0908,-3.0908,-3.0829,-3.0742,-3.0699,-3.065,-3.0625,-3.0674,-3.0685,-3.0732,-3.084,-3.0908,-3.0908,-3.0918,-3.0918,-3.0918,-3.0918,-3.0918,-3.0898,-3.0879,-3.0869,-3.082,-3.0744,-3.0507,-3.0221,-2.9574,-2.8672,-2.7861,-2.707,-2.6435,-2.5894,-2.5684,-2.5771,-2.5703,-2.5693,-2.5693,-2.5693,-2.5693,-2.5693,-2.5693,-2.5693,-2.5693,-2.5693,-2.5693,-2.5693,-2.5693,-2.5693,-2.5693,-2.5674,-2.5615,-2.5551,-2.5493,-2.5428,-2.537,-2.537,-2.5332,-2.5313,-2.5303,-2.5303,-2.5303,-2.5303,-2.5303,-2.5303,-2.5303,-2.5303,-2.5303,-2.5303,-2.5303,-2.5303,-2.5303,-2.5313,-2.5332,-2.5313,-2.5332,-2.5399,-2.5502,-2.5557,-2.5596,-2.5625,-2.5654,-2.5654,-2.5644,-2.5635,-2.5627,-2.5595,-2.5542,-2.5476,-2.5438,-2.5418,-2.5351,-2.5283,-2.5133,-2.4907,-2.4673,-2.4326,-2.3943,-2.3507,-2.3282,-2.3085,-2.2909,-2.2859,-2.2902,-2.2981,-2.3053,-2.3172,-2.3261,-2.3247,-2.3191,-2.3044,-2.288,-2.2367,-3.0918,-3.0889,-3.082,-3.0782,-3.0796,-3.0759,-3.0707,-3.0653,-3.0612,-3.0573,-3.0554,-3.0577,-3.0604,-3.0667,-3.0751,-3.083,-3.0898,-3.0918,-3.0918,-3.0918,-3.0918,-3.0918,-3.0918,-3.0918,-3.0918,-3.0889,-3.0806,-3.0762,-3.0671,-2.9884,-2.9307,-2.8828,-2.8047,-2.7197,-2.6542,-2.6406,-2.6074,-2.5859,-2.5693,-2.5693,-2.5693,-2.5693,-2.5693,-2.5693,-2.5693,-2.5693,-2.5693,-2.5693,-2.5693,-2.5693,-2.5693,-2.5693,-2.5684,-2.5654,-2.5605,-2.5547,-2.5453,-2.5399,-2.539,-2.5341,-2.5303,-2.5303,-2.5303,-2.5303,-2.5303,-2.5303,-2.5303,-2.5303,-2.5303,-2.5303,-2.5303,-2.5303,-2.5303,-2.5303,-2.5303,-2.5303,-2.5303,-2.5303,-2.5361,-2.5428,-2.5459,-2.5508,-2.5557,-2.5586,-2.5605,-2.5596,-2.5576,-2.5572,-2.557,-2.5518,-2.5476,-2.5438,-2.5409,-2.5361,-2.5313,-2.5204,-2.5024,-2.4798,-2.4612,-2.4234,-2.3951,-2.3693,-2.3518,-2.3365,-2.3345,-2.3336,-2.3259,-2.3267,-2.3489,-2.369,-2.3687,-2.3604,-2.3275,-2.2931,-2.2461,-3.086,-3.0843,-3.0721,-3.0672,-3.0669,-3.0631,-3.0588,-3.0561,-3.0528,-3.0506,-3.0477,-3.0498,-3.0539,-3.062,-3.0703,-3.081,-3.0908,-3.0918,-3.0918,-3.0918,-3.0918,-3.0918,-3.0918,-3.0918,-3.0918,-3.0908,-3.0898,-3.0918,-3.0791,-3.0273,-2.9844,-2.9375,-2.8789,-2.7978,-2.7158,-2.6865,-2.6435,-2.5957,-2.5693,-2.5693,-2.5693,-2.5693,-2.5693,-2.5693,-2.5693,-2.5693,-2.5693,-2.5693,-2.5693,-2.5693,-2.5693,-2.5693,-2.5693,-2.5693,-2.5674,-2.5615,-2.5508,-2.5461,-2.5418,-2.5361,-2.5322,-2.5303,-2.5303,-2.5303,-2.5303,-2.5303,-2.5303,-2.5303,-2.5303,-2.5303,-2.5303,-2.5303,-2.5303,-2.5303,-2.5303,-2.5303,-2.5303,-2.5313,-2.5322,-2.5369,-2.5377,-2.5434,-2.5502,-2.5537,-2.5557,-2.5557,-2.5548,-2.5543,-2.5532,-2.5501,-2.5447,-2.5418,-2.539,-2.5351,-2.5322,-2.5303,-2.5109,-2.4896,-2.48,-2.4582,-2.4329,-2.4104,-2.3951,-2.3819,-2.3673,-2.3615,-2.355,-2.3557,-2.3764,-2.3959,-2.4084,-2.3946,-2.3553,-2.3169,-2.2728,-3.0712,-3.0724,-3.0635,-3.0613,-3.0609,-3.0602,-3.0566,-3.0504,-3.05,-3.0467,-3.0408,-3.0467,-3.0519,-3.0624,-3.0781,-3.0859,-3.0898,-3.0918,-3.0918,-3.0918,-3.0918,-3.0918,-3.0898,-3.0918,-3.0859,-3.0771,-3.0781,-3.0918,-3.0859,-3.0713,-3.0312,-2.9756,-2.9394,-2.8662,-2.7305,-2.706,-2.6543,-2.5859,-2.5693,-2.5693,-2.5693,-2.5693,-2.5693,-2.5693,-2.5693,-2.5693,-2.5684,-2.5684,-2.5693,-2.5693,-2.5693,-2.5693,-2.5693,-2.5693,-2.5693,-2.5674,-2.5627,-2.5541,-2.5477,-2.5399,-2.5351,-2.5313,-2.5303,-2.5303,-2.5303,-2.5303,-2.5303,-2.5303,-2.5303,-2.5303,-2.5303,-2.5303,-2.5303,-2.5303,-2.5303,-2.5303,-2.5303,-2.5303,-2.5322,-2.5322,-2.5338,-2.5398,-2.547,-2.5492,-2.5518,-2.5518,-2.5514,-2.5505,-2.5486,-2.5438,-2.5418,-2.539,-2.537,-2.5341,-2.5322,-2.5303,-2.5168,-2.4966,-2.4908,-2.4865,-2.4636,-2.442,-2.4413,-2.4261,-2.4091,-2.3946,-2.3901,-2.3961,-2.4077,-2.4143,-2.4161,-2.4001,-2.3754,-2.3359,-2.2937,-3.0621,-3.0693,-3.0579,-3.0536,-3.0537,-3.0506,-3.0467,-3.0458,-3.0448,-3.0427,-3.0398,-3.0419,-3.0498,-3.0616,-3.0733,-3.083,-3.0898,-3.0918,-3.0918,-3.0918,-3.0918,-3.0918,-3.0762,-3.0469,-3.0312,-3.0566,-3.0107,-3.0088,-3.0459,-3.0801,-3.0557,-3.0322,-2.9785,-2.8984,-2.7754,-2.7246,-2.6533,-2.5947,-2.5693,-2.5693,-2.5693,-2.5693,-2.5693,-2.5693,-2.5674,-2.5659,-2.5644,-2.5644,-2.5644,-2.5654,-2.5674,-2.5693,-2.5693,-2.5693,-2.5693,-2.5693,-2.5674,-2.5596,-2.5496,-2.5414,-2.5361,-2.5322,-2.5303,-2.5303,-2.5303,-2.5303,-2.5303,-2.5303,-2.5303,-2.5303,-2.5303,-2.5303,-2.5303,-2.5293,-2.5273,-2.5274,-2.5274,-2.5293,-2.5313,-2.5303,-2.5313,-2.5361,-2.5409,-2.5409,-2.5418,-2.5418,-2.5409,-2.5399,-2.539,-2.5361,-2.5351,-2.5351,-2.5341,-2.5332,-2.5322,-2.5303,-2.5178,-2.5024,-2.4966,-2.4903,-2.4816,-2.47,-2.4642,-2.4551,-2.4364,-2.428,-2.4246,-2.419,-2.4152,-2.4181,-2.4199,-2.401,-2.3825,-2.3464,-2.2917,-3.0564,-3.0631,-3.0525,-3.0477,-3.0477,-3.0427,-3.0398,-3.0388,-3.0398,-3.0388,-3.0408,-3.0429,-3.0501,-3.0597,-3.0674,-3.0791,-3.0908,-3.0918,-3.0918,-3.0918,-3.0918,-3.0918,-3.0771,-3.0322,-3.0225,-3.0596,-2.9932,-2.9785,-3.0234,-3.0654,-3.0762,-3.0858,-3.0283,-2.9473,-2.8633,-2.7793,-2.6924,-2.5781,-2.5693,-2.5693,-2.5693,-2.5693,-2.5693,-2.5684,-2.5653,-2.5611,-2.5617,-2.5621,-2.5625,-2.5644,-2.5674,-2.5693,-2.5693,-2.5693,-2.5693,-2.5684,-2.5644,-2.5596,-2.5513,-2.5424,-2.5351,-2.5322,-2.5303,-2.5303,-2.5303,-2.5303,-2.5303,-2.5303,-2.5303,-2.5303,-2.5283,-2.5272,-2.5195,-2.5176,-2.519,-2.5213,-2.5234,-2.5243,-2.5273,-2.5303,-2.5303,-2.5303,-2.5332,-2.5322,-2.5313,-2.5313,-2.5303,-2.5303,-2.5293,-2.5274,-2.5224,-2.5213,-2.5147,-2.5136,-2.5136,-2.512,-2.5067,-2.5062,-2.5004,-2.5004,-2.4938,-2.4862,-2.4774,-2.4676,-2.4552,-2.4393,-2.4246,-2.4208,-2.4199,-2.4199,-2.418,-2.4082,-2.3871,-2.3533,-2.2998,-3.0506,-3.0525,-3.0448,-3.0417,-3.0417,-3.0398,-3.0388,-3.0388,-3.0388,-3.0388,-3.0398,-3.0467,-3.0518,-3.0607,-3.0665,-3.0771,-3.0889,-3.0908,-3.0918,-3.0918,-3.0918,-3.0918,-3.0742,-3.0537,-3.0254,-2.9951,-2.9394,-2.9443,-2.9941,-3.0176,-3.0537,-3.0819,-3.0457,-3.0127,-2.9346,-2.8252,-2.7178,-2.6133,-2.5791,-2.5693,-2.5693,-2.5693,-2.5693,-2.5693,-2.5693,-2.5684,-2.5697,-2.5672,-2.5654,-2.5664,-2.5684,-2.5693,-2.5693,-2.5693,-2.5693,-2.5674,-2.5605,-2.5566,-2.5503,-2.5447,-2.5418,-2.5351,-2.5303,-2.5303,-2.5303,-2.5303,-2.5303,-2.5303,-2.5303,-2.5303,-2.5251,-2.5166,-2.5117,-2.5063,-2.5085,-2.5063,-2.5098,-2.518,-2.5213,-2.5283,-2.5274,-2.5254,-2.5303,-2.5303,-2.5303,-2.5303,-2.5303,-2.5303,-2.5234,-2.5204,-2.5099,-2.502,-2.4913,-2.4879,-2.4874,-2.4868,-2.4924,-2.4956,-2.4944,-2.5051,-2.5117,-2.5026,-2.4828,-2.4704,-2.4542,-2.4386,-2.4264,-2.4217,-2.4199,-2.4199,-2.417,-2.4074,-2.3969,-2.3708,-2.3104,-3.0427,-3.0417,-3.0398,-3.0388,-3.0388,-3.0388,-3.0388,-3.0388,-3.0388,-3.0388,-3.0398,-3.0427,-3.0506,-3.0588,-3.0643,-3.0745,-3.0889,-3.0908,-3.0908,-3.0918,-3.0918,-3.0918,-3.0654,-3.0019,-2.9336,-2.9238,-2.8691,-2.875,-2.9609,-2.9492,-3.0088,-3.0379,-3.0273,-2.9961,-2.9258,-2.8389,-2.7217,-2.6592,-2.5967,-2.5703,-2.5693,-2.5693,-2.5693,-2.5693,-2.5654,-2.5654,-2.565,-2.5638,-2.564,-2.5647,-2.5687,-2.5693,-2.5693,-2.5693,-2.5693,-2.5684,-2.5605,-2.5547,-2.5496,-2.5436,-2.5351,-2.5332,-2.5303,-2.5303,-2.5303,-2.5303,-2.5303,-2.5303,-2.5303,-2.5303,-2.5283,-2.5228,-2.5163,-2.5048,-2.4966,-2.4938,-2.4946,-2.5046,-2.5096,-2.5152,-2.5163,-2.5152,-2.5224,-2.5303,-2.5303,-2.5303,-2.5303,-2.5293,-2.5224,-2.512,-2.502,-2.4888,-2.478,-2.4727,-2.4716,-2.4756,-2.4799,-2.4841,-2.4868,-2.4964,-2.5025,-2.4968,-2.4795,-2.4666,-2.4554,-2.4394,-2.4284,-2.4228,-2.4199,-2.4199,-2.4153,-2.4088,-2.3953,-2.3833,-2.3289,-3.0388,-3.0388,-3.0388,-3.0388,-3.0388,-3.0388,-3.0388,-3.0388,-3.0388,-3.0408,-3.0417,-3.0427,-3.0506,-3.0583,-3.0616,-3.0676,-3.081,-3.085,-3.0879,-3.0898,-3.0918,-3.0918,-3.0391,-2.9717,-2.9082,-2.8769,-2.7861,-2.7744,-2.8555,-2.8398,-2.9004,-2.9502,-2.957,-2.9434,-2.9639,-2.833,-2.7168,-2.6523,-2.6103,-2.5703,-2.5693,-2.5693,-2.5693,-2.5693,-2.5674,-2.5654,-2.5654,-2.5652,-2.5636,-2.5649,-2.5674,-2.5693,-2.5693,-2.5693,-2.5693,-2.5664,-2.5613,-2.5541,-2.5488,-2.5399,-2.5313,-2.5303,-2.5303,-2.5303,-2.5303,-2.5303,-2.5303,-2.5303,-2.5303,-2.5303,-2.5293,-2.5205,-2.5131,-2.5012,-2.4917,-2.4877,-2.4855,-2.4902,-2.4956,-2.501,-2.5044,-2.5088,-2.5214,-2.5303,-2.5303,-2.5303,-2.5303,-2.5293,-2.5244,-2.5118,-2.4943,-2.4799,-2.4663,-2.4629,-2.4617,-2.4566,-2.4556,-2.4663,-2.4714,-2.476,-2.4794,-2.476,-2.4723,-2.4603,-2.4496,-2.4393,-2.4302,-2.4219,-2.4199,-2.4199,-2.4153,-2.4125,-2.4087,-2.3955,-2.3582,-3.0388,-3.0388,-3.0388,-3.0388,-3.0388,-3.0388,-3.0388,-3.0388,-3.0388,-3.0448,-3.0496,-3.0487,-3.0544,-3.0604,-3.0622,-3.0688,-3.0752,-3.0762,-3.0801,-3.0889,-3.0703,-3.082,-3.0391,-2.9687,-2.8594,-2.8389,-2.7676,-2.7187,-2.7314,-2.7812,-2.832,-2.8555,-2.873,-2.9082,-3.0459,-2.9092,-2.7422,-2.6016,-2.584,-2.5703,-2.5693,-2.5693,-2.5693,-2.5693,-2.5693,-2.5674,-2.5684,-2.5684,-2.5674,-2.5684,-2.5684,-2.5693,-2.5693,-2.5693,-2.5693,-2.5693,-2.5576,-2.5503,-2.5476,-2.537,-2.5322,-2.5303,-2.5303,-2.5303,-2.5303,-2.5303,-2.5303,-2.5303,-2.5303,-2.5303,-2.5226,-2.5149,-2.5088,-2.4994,-2.4902,-2.4813,-2.479,-2.4731,-2.4795,-2.4894,-2.4974,-2.5046,-2.5194,-2.5303,-2.5303,-2.5303,-2.5303,-2.5283,-2.5253,-2.5118,-2.4933,-2.4827,-2.4708,-2.4575,-2.4528,-2.4348,-2.433,-2.4453,-2.4536,-2.4554,-2.461,-2.4633,-2.4569,-2.4505,-2.4422,-2.433,-2.4257,-2.4199,-2.4199,-2.4199,-2.4199,-2.4171,-2.4153,-2.4051,-2.3729,-3.0388,-3.0388,-3.0388,-3.0388,-3.0388,-3.0388,-3.0388,-3.0388,-3.0408,-3.0448,-3.0496,-3.0496,-3.0573,-3.0641,-3.0656,-3.0714,-3.0787,-3.083,-3.0879,-3.0801,-3.0381,-3.0088,-2.9687,-2.8809,-2.7851,-2.7363,-2.7002,-2.6973,-2.708,-2.7334,-2.7812,-2.8125,-2.8076,-2.8594,-2.874,-2.7998,-2.6973,-2.6543,-2.6103,-2.5693,-2.5693,-2.5693,-2.5693,-2.5693,-2.5693,-2.5693,-2.5693,-2.5693,-2.5693,-2.5693,-2.5693,-2.5693,-2.5693,-2.5693,-2.5693,-2.5674,-2.5585,-2.5447,-2.539,-2.5313,-2.5313,-2.5303,-2.5303,-2.5303,-2.5303,-2.5303,-2.5303,-2.5303,-2.5303,-2.5303,-2.5264,-2.5245,-2.5186,-2.5042,-2.4914,-2.4769,-2.4705,-2.4626,-2.462,-2.4771,-2.4883,-2.5063,-2.5223,-2.5293,-2.5303,-2.5303,-2.5303,-2.5303,-2.5283,-2.5131,-2.4965,-2.4911,-2.4799,-2.4614,-2.4453,-2.4375,-2.4293,-2.4358,-2.4358,-2.4321,-2.4377,-2.4469,-2.4413,-2.4338,-2.4321,-2.4284,-2.4228,-2.4199,-2.4199,-2.4199,-2.4199,-2.4199,-2.4181,-2.4135,-2.3987,-3.0388,-3.0388,-3.0388,-3.0388,-3.0388,-3.0388,-3.0388,-3.0388,-3.0398,-3.0458,-3.0508,-3.0528,-3.0585,-3.0674,-3.0709,-3.0459,-3.0489,-3.0742,-3.0518,-3.043,-2.9912,-2.9726,-2.9111,-2.792,-2.7344,-2.6748,-2.625,-2.6055,-2.6455,-2.6523,-2.6787,-2.7129,-2.7412,-2.7285,-2.7275,-2.7021,-2.6816,-2.6416,-2.5869,-2.5693,-2.5693,-2.5693,-2.5693,-2.5693,-2.5693,-2.5693,-2.5693,-2.5693,-2.5693,-2.5693,-2.5693,-2.5693,-2.5693,-2.5693,-2.5693,-2.5664,-2.5578,-2.5437,-2.5332,-2.5303,-2.5313,-2.5351,-2.5322,-2.5303,-2.5303,-2.5303,-2.5303,-2.5303,-2.5303,-2.5313,-2.5322,-2.5322,-2.5245,-2.5101,-2.4992,-2.4854,-2.477,-2.4698,-2.4682,-2.4809,-2.491,-2.5082,-2.5233,-2.5253,-2.5303,-2.5303,-2.5303,-2.5293,-2.5283,-2.5131,-2.5001,-2.4974,-2.4917,-2.4751,-2.4601,-2.4502,-2.4411,-2.432,-2.4264,-2.4199,-2.4227,-2.4311,-2.4236,-2.4199,-2.4228,-2.4247,-2.4209,-2.4199,-2.4199,-2.4199,-2.4199,-2.4199,-2.4199,-2.4153,-2.4089,-3.0388,-3.0388,-3.0388,-3.0388,-3.0388,-3.0388,-3.0388,-3.0379,-3.0331,-3.039,-3.0489,-3.0442,-3.0453,-3.0566,-3.0605,-3.0254,-2.9746,-3.0254,-2.998,-2.9619,-2.9189,-2.9238,-2.8711,-2.7637,-2.6875,-2.6553,-2.6201,-2.5762,-2.5781,-2.5918,-2.5957,-2.5918,-2.6152,-2.6162,-2.6279,-2.6426,-2.6387,-2.6006,-2.582,-2.5693,-2.5693,-2.5693,-2.5693,-2.5693,-2.5693,-2.5693,-2.5693,-2.5693,-2.5693,-2.5693,-2.5693,-2.5693,-2.5693,-2.5693,-2.5693,-2.5654,-2.5557,-2.5445,-2.5341,-2.5322,-2.5332,-2.5361,-2.5332,-2.5313,-2.5313,-2.5313,-2.5303,-2.5303,-2.5303,-2.5332,-2.5361,-2.534,-2.5318,-2.5215,-2.5139,-2.5034,-2.4958,-2.4911,-2.4891,-2.4943,-2.4996,-2.512,-2.5244,-2.5293,-2.5303,-2.5303,-2.5293,-2.525,-2.5209,-2.5118,-2.5032,-2.5055,-2.4968,-2.4865,-2.4751,-2.4651,-2.4527,-2.4422,-2.4264,-2.4199,-2.4199,-2.4199,-2.4199,-2.4199,-2.4199,-2.4199,-2.4199,-2.4199,-2.4199,-2.4199,-2.4199,-2.4199,-2.4199,-2.4181,-2.406,-3.0388,-3.0388,-3.0388,-3.0388,-3.0388,-3.0388,-3.0388,-3.0331,-2.9785,-2.9525,-2.9595,-2.9703,-2.9769,-2.9834,-2.9883,-2.9736,-2.9473,-2.9189,-2.8906,-2.8584,-2.8242,-2.79,-2.7393,-2.6777,-2.6211,-2.6035,-2.585,-2.5693,-2.5713,-2.5693,-2.5693,-2.5732,-2.5693,-2.5693,-2.5791,-2.5967,-2.5859,-2.5781,-2.5703,-2.5693,-2.5693,-2.5693,-2.5693,-2.5693,-2.5693,-2.5693,-2.5693,-2.5693,-2.5693,-2.5693,-2.5649,-2.5641,-2.5637,-2.5635,-2.5625,-2.5625,-2.557,-2.5505,-2.5399,-2.5361,-2.537,-2.537,-2.5351,-2.538,-2.5361,-2.5332,-2.5313,-2.5303,-2.5303,-2.5332,-2.5349,-2.5332,-2.5334,-2.5283,-2.5216,-2.5156,-2.5067,-2.5022,-2.5018,-2.503,-2.509,-2.5173,-2.5293,-2.5303,-2.5303,-2.5303,-2.5283,-2.5228,-2.5163,-2.5061,-2.5041,-2.5065,-2.5041,-2.4926,-2.491,-2.4823,-2.468,-2.4515,-2.4367,-2.4236,-2.4199,-2.4199,-2.4199,-2.4199,-2.4199,-2.4199,-2.4199,-2.4199,-2.4199,-2.4199,-2.4199,-2.4199,-2.419,-2.4181,-2.4125,-3.0083,-3.0379,-3.0388,-3.0208,-2.9863,-2.9552,-2.9417,-2.9352,-2.9179,-2.9017,-2.874,-2.8817,-2.8884,-2.8947,-2.8994,-2.8828,-2.8428,-2.8496,-2.8252,-2.7676,-2.7226,-2.7207,-2.6738,-2.6162,-2.584,-2.5693,-2.5693,-2.5693,-2.5693,-2.5693,-2.5693,-2.5693,-2.5693,-2.5693,-2.5723,-2.5762,-2.5732,-2.5713,-2.5693,-2.5693,-2.5693,-2.5693,-2.5693,-2.5693,-2.5693,-2.5693,-2.5693,-2.5693,-2.5684,-2.5671,-2.5617,-2.5592,-2.5587,-2.5576,-2.5576,-2.5576,-2.5576,-2.5527,-2.5447,-2.5405,-2.5399,-2.539,-2.537,-2.537,-2.539,-2.537,-2.5332,-2.5303,-2.5303,-2.5303,-2.5313,-2.5326,-2.5334,-2.5332,-2.5274,-2.5244,-2.5173,-2.5122,-2.5122,-2.5131,-2.5184,-2.5254,-2.5303,-2.5303,-2.5303,-2.5303,-2.5263,-2.5189,-2.5122,-2.5037,-2.503,-2.5065,-2.5055,-2.4998,-2.4984,-2.4965,-2.4826,-2.4655,-2.4487,-2.4366,-2.4255,-2.4199,-2.4199,-2.4199,-2.4199,-2.4199,-2.4199,-2.4199,-2.4199,-2.4199,-2.4199,-2.4199,-2.4199,-2.419,-2.4125,-2.9458,-3.0138,-3.0215,-2.9661,-2.8952,-2.8302,-2.7966,-2.7861,-2.8467,-2.8516,-2.7959,-2.7893,-2.7954,-2.8004,-2.8057,-2.7744,-2.7519,-2.7559,-2.7334,-2.6914,-2.6777,-2.6689,-2.6484,-2.6113,-2.5762,-2.5693,-2.5693,-2.5693,-2.5693,-2.5693,-2.5693,-2.5693,-2.5693,-2.5693,-2.5693,-2.5693,-2.5693,-2.5693,-2.5693,-2.5693,-2.5693,-2.5693,-2.5693,-2.5693,-2.5693,-2.5693,-2.5693,-2.5684,-2.5661,-2.5614,-2.5582,-2.5563,-2.553,-2.5518,-2.5527,-2.5557,-2.5576,-2.5557,-2.5518,-2.5483,-2.545,-2.5418,-2.539,-2.537,-2.537,-2.537,-2.5332,-2.5303,-2.5303,-2.5313,-2.5329,-2.5325,-2.5312,-2.5313,-2.5284,-2.5274,-2.5244,-2.5204,-2.5214,-2.5224,-2.5244,-2.5303,-2.5303,-2.5303,-2.5303,-2.5303,-2.5273,-2.519,-2.5098,-2.501,-2.502,-2.5044,-2.5034,-2.5034,-2.513,-2.5091,-2.4961,-2.4804,-2.462,-2.446,-2.4358,-2.4275,-2.4199,-2.4199,-2.4199,-2.4199,-2.4199,-2.4199,-2.4199,-2.4199,-2.4199,-2.4199,-2.419,-2.419,-2.4162,-2.8294,-2.8506,-2.8496,-2.8354,-2.8173,-2.7987,-2.7486,-2.6938,-2.7092,-2.7121,-2.6967,-2.6997,-2.7027,-2.7046,-2.7108,-2.6909,-2.6865,-2.6562,-2.6182,-2.6103,-2.6074,-2.6191,-2.6064,-2.5869,-2.5693,-2.5693,-2.5693,-2.5693,-2.5693,-2.5693,-2.5693,-2.5693,-2.5693,-2.5693,-2.5693,-2.5693,-2.5693,-2.5693,-2.5693,-2.5693,-2.5693,-2.5693,-2.5693,-2.5693,-2.5693,-2.5664,-2.5658,-2.5671,-2.5616,-2.555,-2.5529,-2.5486,-2.5428,-2.5437,-2.5489,-2.5547,-2.5566,-2.5586,-2.5566,-2.5531,-2.5504,-2.5463,-2.5418,-2.538,-2.5361,-2.5341,-2.5322,-2.5313,-2.5313,-2.5322,-2.5332,-2.5313,-2.5303,-2.5303,-2.5303,-2.5303,-2.5303,-2.5303,-2.5303,-2.5303,-2.5303,-2.5303,-2.5303,-2.5303,-2.5303,-2.5303,-2.5303,-2.5234,-2.5106,-2.5013,-2.5022,-2.5034,-2.5013,-2.5046,-2.5172,-2.5202,-2.5053,-2.4884,-2.4689,-2.4558,-2.4419,-2.4312,-2.4199,-2.4199,-2.4199,-2.4199,-2.4199,-2.4199,-2.4199,-2.4199,-2.419,-2.417,-2.4152,-2.4114,-2.4134,-2.7553,-2.7842,-2.7476,-2.7323,-2.7258,-2.6919,-2.6467,-2.6092,-2.6014,-2.6024,-2.6034,-2.6063,-2.6083,-2.6092,-2.614,-2.6232,-2.6154,-2.5801,-2.5752,-2.5664,-2.5635,-2.5713,-2.5684,-2.5693,-2.5693,-2.5693,-2.5693,-2.5693,-2.5693,-2.5693,-2.5693,-2.5693,-2.5693,-2.5693,-2.5693,-2.5693,-2.5693,-2.5693,-2.5693,-2.5693,-2.5693,-2.5693,-2.5693,-2.5693,-2.5664,-2.5635,-2.5612,-2.5615,-2.5544,-2.5473,-2.5427,-2.539,-2.538,-2.5428,-2.5472,-2.551,-2.5547,-2.5603,-2.5582,-2.5571,-2.5547,-2.549,-2.5438,-2.5399,-2.5332,-2.5313,-2.5313,-2.5303,-2.5303,-2.5313,-2.5313,-2.5303,-2.5303,-2.5303,-2.5303,-2.5303,-2.5303,-2.5303,-2.5303,-2.5303,-2.5303,-2.5303,-2.5303,-2.5303,-2.5303,-2.5303,-2.5303,-2.5216,-2.5099,-2.504,-2.5032,-2.5034,-2.5034,-2.5099,-2.5234,-2.5223,-2.513,-2.4965,-2.478,-2.456,-2.4388,-2.4275,-2.4199,-2.4199,-2.4199,-2.4199,-2.4199,-2.4199,-2.4199,-2.4199,-2.417,-2.4142,-2.4095,-2.4019,-2.3964,-2.6851,-2.7419,-2.6745,-2.6428,-2.6333,-2.5659,-2.5361,-2.5341,-2.5322,-2.5332,-2.537,-2.538,-2.5303,-2.5322,-2.5361,-2.538,-2.5437,-2.5534,-2.5541,-2.5573,-2.5605,-2.5654,-2.5684,-2.5693,-2.5693,-2.5693,-2.5693,-2.5693,-2.5693,-2.5693,-2.5693,-2.5693,-2.5693,-2.5693,-2.5693,-2.5693,-2.5693,-2.5693,-2.5693,-2.5693,-2.5693,-2.5693,-2.5693,-2.5674,-2.5635,-2.5605,-2.5584,-2.5553,-2.5476,-2.5409,-2.5361,-2.5351,-2.537,-2.5428,-2.5467,-2.5499,-2.5555,-2.5595,-2.5598,-2.5576,-2.5536,-2.5499,-2.5451,-2.539,-2.5332,-2.5303,-2.5303,-2.5303,-2.5303,-2.5303,-2.5303,-2.5303,-2.5303,-2.5303,-2.5303,-2.5303,-2.5303,-2.5303,-2.5303,-2.5303,-2.5303,-2.5303,-2.5303,-2.5303,-2.5303,-2.5303,-2.5235,-2.5148,-2.5081,-2.506,-2.5048,-2.5061,-2.5078,-2.5163,-2.5283,-2.5264,-2.5183,-2.5021,-2.4812,-2.4565,-2.4357,-2.4257,-2.4199,-2.4199,-2.4199,-2.419,-2.4199,-2.4199,-2.4199,-2.4142,-2.419,-2.4122,-2.3915,-2.3819,-2.3724,-2.564,-2.5793,-2.5591,-2.5563,-2.5534,-2.5351,-2.5303,-2.5303,-2.5303,-2.5303,-2.5303,-2.5303,-2.5303,-2.5303,-2.5313,-2.5332,-2.5351,-2.5438,-2.5495,-2.5532,-2.5606,-2.5664,-2.5693,-2.5693,-2.5693,-2.5693,-2.5693,-2.5693,-2.5693,-2.5693,-2.5693,-2.5693,-2.5693,-2.5693,-2.5693,-2.5693,-2.5693,-2.5693,-2.5693,-2.5693,-2.5693,-2.5693,-2.5693,-2.5684,-2.5684,-2.5605,-2.5559,-2.5572,-2.5457,-2.538,-2.5361,-2.537,-2.5399,-2.5447,-2.5495,-2.5524,-2.5572,-2.5611,-2.5617,-2.5615,-2.5595,-2.5511,-2.5468,-2.5418,-2.5361,-2.5303,-2.5303,-2.5303,-2.5303,-2.5303,-2.5303,-2.5303,-2.5303,-2.5303,-2.5303,-2.5303,-2.5303,-2.5303,-2.5303,-2.5303,-2.5303,-2.5303,-2.5303,-2.5303,-2.5303,-2.5255,-2.5139,-2.5061,-2.5038,-2.5044,-2.5038,-2.5066,-2.5099,-2.5204,-2.5293,-2.5303,-2.5234,-2.5057,-2.4855,-2.4591,-2.4392,-2.4257,-2.4199,-2.4199,-2.417,-2.4151,-2.417,-2.4065,-2.4074,-2.4025,-2.4142,-2.4122,-2.3822,-2.3595,-2.3446]}]]